[[[{"header":{"parameterUnit":"kt","parameterCategory":2,"dx":1,"dy":1,"la1":29.587661999999998,"la2":31.0,"lo1":-88.76705300000003,"lo2":-86.6583820000003,"nx":115,"ny":88,"refTime":"2022-09-27T06:00:00:Z","depth":0,"parameterNumber":1,"parameterNumberName":"U-component_of_WINDS"},"data":[16.0963,16.0963,16.0963,16.1508,16.2359,16.3105,16.4192,16.5346,16.6729,16.7481,16.7497,16.7943,16.7585,16.5408,16.5408,16.5467,16.5647,16.5527,16.5408,16.5408,16.5408,16.5408,16.5408,16.5408,16.5408,16.5408,16.5408,16.5408,16.5408,16.5408,16.5408,16.5408,16.5408,16.5408,16.5408,16.5408,16.5408,16.5408,16.5408,16.5408,16.5408,16.5408,16.5408,16.5408,16.5408,16.5408,16.5408,16.5408,16.5408,16.5408,16.5408,16.5408,16.5372,16.5337,16.5266,16.4995,16.4782,16.4498,16.4213,16.3713,16.339,16.3283,16.2837,16.2584,16.2475,16.2257,16.2148,16.1857,16.2039,16.2837,16.3414,16.3856,16.4249,16.4676,16.4948,16.5266,16.5408,16.5408,16.5408,16.5408,16.5408,16.5408,16.5408,16.5408,16.5408,16.5408,16.5408,16.5408,16.5408,16.5408,16.5408,16.5408,16.5408,16.5408,16.5408,16.5408,16.5408,16.5408,16.5408,16.5408,16.5408,16.5408,16.5408,16.5408,16.5408,16.5408,16.5408,16.5408,16.5408,16.5408,16.5408,16.5408,16.5408,16.5408,16.5408,16.0963,16.0963,16.0963,16.1079,16.1196,16.1306,16.1885,16.2757,16.3498,16.4198,16.495,16.5165,16.5235,16.5231,16.5408,16.5408,16.5408,16.5408,16.5408,16.5408,16.5408,16.5408,16.5408,16.5408,16.5408,16.5408,16.5408,16.5408,16.5408,16.5408,16.5408,16.5408,16.5408,16.5408,16.5408,16.5408,16.5408,16.5408,16.5408,16.5408,16.5408,16.5408,16.5408,16.5408,16.5408,16.5408,16.5408,16.5408,16.5408,16.5408,16.5408,16.5408,16.5408,16.5408,16.5408,16.5408,16.5136,16.5101,16.4995,16.4463,16.4249,16.3928,16.3319,16.309,16.3054,16.2981,16.3018,16.2886,16.2886,16.3283,16.3856,16.4356,16.4711,16.5065,16.5231,16.5408,16.5408,16.5408,16.5408,16.5408,16.5408,16.5408,16.5408,16.5408,16.5408,16.5408,16.5408,16.5408,16.5408,16.5408,16.5408,16.5408,16.5408,16.5408,16.5408,16.5408,16.5408,16.5408,16.5408,16.5408,16.5408,16.5408,16.5408,16.5408,16.5408,16.5408,16.5408,16.5408,16.5408,16.5408,16.5408,16.5408,16.5408,16.5408,16.5408,16.0963,16.0963,16.0963,16.0963,16.0963,16.0963,16.1147,16.1586,16.2243,16.2945,16.357,16.4106,16.4676,16.5372,16.5408,16.5408,16.5408,16.5408,16.5408,16.5408,16.5408,16.5408,16.5408,16.5408,16.5408,16.5408,16.5408,16.5408,16.5408,16.5408,16.5408,16.5408,16.5408,16.5408,16.5408,16.5408,16.5408,16.5408,16.5408,16.5408,16.5408,16.5408,16.5408,16.5408,16.5408,16.5408,16.5408,16.5408,16.5408,16.5408,16.5408,16.5408,16.5408,16.5408,16.5408,16.5408,16.5408,16.5408,16.5277,16.5101,16.4888,16.4853,16.4522,16.3928,16.3856,16.4094,16.413,16.4071,16.4071,16.4035,16.4605,16.4747,16.5065,16.5266,16.5372,16.5408,16.5408,16.5408,16.5408,16.5408,16.5408,16.5408,16.5408,16.5408,16.5408,16.5408,16.5408,16.5408,16.5408,16.5408,16.5408,16.5408,16.5408,16.5408,16.5408,16.5408,16.5408,16.5408,16.5408,16.5408,16.5408,16.5408,16.5408,16.5408,16.5408,16.5408,16.5408,16.5408,16.5408,16.5408,16.5408,16.5408,16.5408,16.5408,16.5383,16.0963,16.0963,16.0963,16.0963,16.0963,16.0963,16.0963,16.1,16.1623,16.2352,16.309,16.3713,16.4427,16.5302,16.5408,16.5408,16.5408,16.5408,16.5408,16.5408,16.5408,16.5408,16.5408,16.5408,16.5408,16.5408,16.5408,16.5408,16.5408,16.5408,16.5408,16.5408,16.5408,16.5408,16.5408,16.5408,16.5408,16.5408,16.5408,16.5408,16.5408,16.5408,16.5408,16.5408,16.5408,16.5408,16.5408,16.5408,16.5408,16.5408,16.5408,16.5408,16.5408,16.5408,16.5408,16.5408,16.5408,16.5408,16.5312,16.5277,16.5242,16.5337,16.5266,16.4959,16.4924,16.5231,16.5337,16.5337,16.5337,16.5302,16.5312,16.5277,16.5408,16.5408,16.5408,16.5408,16.5408,16.5408,16.5408,16.5408,16.5408,16.5408,16.5408,16.5408,16.5408,16.5408,16.5408,16.5408,16.5408,16.5408,16.5408,16.5408,16.5408,16.5408,16.5408,16.5408,16.5408,16.5408,16.5408,16.5408,16.5408,16.5408,16.5408,16.5408,16.5408,16.5408,16.5408,16.5408,16.5408,16.5408,16.5408,16.5408,16.5408,16.5288,16.5263,16.0963,16.1,16.0963,16.1036,16.0963,16.0963,16.0941,16.1,16.122,16.182,16.3018,16.3234,16.4166,16.5266,16.5408,16.5408,16.5408,16.5408,16.5408,16.5408,16.5408,16.5408,16.5408,16.5408,16.5408,16.5408,16.5408,16.5408,16.5408,16.5408,16.5408,16.5408,16.5408,16.5408,16.5408,16.5408,16.5408,16.5408,16.5408,16.5408,16.5408,16.5408,16.5408,16.5408,16.5408,16.5408,16.5408,16.5408,16.5408,16.5408,16.5408,16.5408,16.5408,16.5408,16.5408,16.5408,16.5408,16.5408,16.5408,16.5408,16.5408,16.5408,16.5408,16.5242,16.5171,16.5372,16.5408,16.5408,16.5408,16.5408,16.5408,16.5408,16.5408,16.5408,16.5408,16.5408,16.5408,16.5408,16.5408,16.5408,16.5408,16.5408,16.5408,16.5408,16.5408,16.5408,16.5408,16.5408,16.5408,16.5408,16.5408,16.5408,16.5408,16.5408,16.5408,16.5408,16.5408,16.5408,16.5408,16.5408,16.5408,16.5408,16.5408,16.5408,16.5408,16.5408,16.5408,16.5408,16.5408,16.5408,16.5408,16.5408,16.5288,16.5228,16.4964,16.166,16.166,16.166,16.166,16.1586,16.1147,16.1455,16.2148,16.2221,16.2742,16.3749,16.3749,16.4415,16.5337,16.5408,16.5408,16.5408,16.5408,16.5408,16.5408,16.5408,16.5408,16.5408,16.5408,16.5408,16.5408,16.5408,16.5408,16.5408,16.5408,16.5408,16.5408,16.5408,16.5408,16.5408,16.5408,16.5408,16.5408,16.5408,16.5408,16.5408,16.5408,16.5408,16.5408,16.5408,16.5408,16.5408,16.5408,16.5408,16.5408,16.5408,16.5408,16.5408,16.5408,16.5408,16.5408,16.5408,16.5408,16.5408,16.5408,16.5408,16.5408,16.5408,16.5408,16.5408,16.5408,16.5408,16.5408,16.5408,16.5408,16.5408,16.5408,16.5408,16.5408,16.5408,16.5408,16.5408,16.5408,16.5408,16.5408,16.5408,16.5408,16.5408,16.5408,16.5408,16.5408,16.5408,16.5408,16.5408,16.5408,16.5408,16.5408,16.5408,16.5408,16.5408,16.5408,16.5408,16.5408,16.5408,16.5408,16.5408,16.5408,16.5408,16.5408,16.5408,16.5408,16.5408,16.5408,16.5408,16.5408,16.5408,16.5288,16.5168,16.4929,16.4246,16.2243,16.2425,16.2425,16.2425,16.2352,16.1784,16.2112,16.2959,16.3126,16.3498,16.4249,16.4249,16.464,16.5408,16.5408,16.5408,16.5408,16.5408,16.5408,16.5408,16.5408,16.5408,16.5408,16.5408,16.5408,16.5408,16.5408,16.5408,16.5408,16.5408,16.5408,16.5408,16.5408,16.5408,16.5408,16.5408,16.5408,16.5408,16.5408,16.5408,16.5408,16.5408,16.5408,16.5408,16.5408,16.5408,16.5408,16.5408,16.5408,16.5408,16.5408,16.5408,16.5408,16.5408,16.5408,16.5408,16.5408,16.5408,16.5408,16.5408,16.5408,16.5408,16.5408,16.5408,16.5408,16.5408,16.5408,16.5408,16.5408,16.5408,16.5408,16.5408,16.5408,16.5408,16.5408,16.5408,16.5408,16.5408,16.5408,16.5408,16.5408,16.5408,16.5408,16.5408,16.5408,16.5408,16.5408,16.5408,16.5408,16.5408,16.5408,16.5408,16.5408,16.5408,16.5408,16.5408,16.5408,16.5408,16.5408,16.5408,16.5408,16.5408,16.5408,16.5408,16.5408,16.5408,16.5408,16.5408,16.5408,16.5408,16.5263,16.5144,16.4904,16.4246,16.3528,16.2475,16.3018,16.309,16.309,16.3031,16.309,16.309,16.3126,16.3198,16.3665,16.432,16.4356,16.4747,16.5337,16.5408,16.5408,16.5408,16.5408,16.5408,16.5408,16.5408,16.5408,16.5408,16.5408,16.5408,16.5408,16.5408,16.5408,16.5408,16.5408,16.5408,16.5408,16.5408,16.5408,16.5408,16.5408,16.5408,16.5408,16.5408,16.5408,16.5408,16.5408,16.5408,16.5408,16.5408,16.5408,16.5408,16.5408,16.5408,16.5408,16.5408,16.5408,16.5408,16.5408,16.5408,16.5408,16.5408,16.5408,16.5408,16.5408,16.5408,16.5408,16.5408,16.5408,16.5408,16.5408,16.5408,16.5408,16.5408,16.5408,16.5408,16.5408,16.5408,16.5408,16.5408,16.5408,16.5408,16.5408,16.5408,16.5408,16.5408,16.5408,16.5408,16.5408,16.5408,16.5408,16.5408,16.5408,16.5408,16.5408,16.5408,16.5408,16.5408,16.5408,16.5408,16.5408,16.5408,16.5408,16.5408,16.5408,16.5408,16.5408,16.5408,16.5408,16.5408,16.5408,16.5408,16.5408,16.5408,16.5203,16.5084,16.4844,16.4246,16.3588,16.2152,16.3642,16.3821,16.3856,16.3856,16.3928,16.4415,16.4629,16.4629,16.4629,16.4676,16.4924,16.4959,16.5196,16.5337,16.5408,16.5408,16.5408,16.5408,16.5408,16.5408,16.5408,16.5408,16.5408,16.5408,16.5408,16.5408,16.5408,16.5408,16.5408,16.5408,16.5408,16.5408,16.5408,16.5408,16.5408,16.5408,16.5408,16.5408,16.5408,16.5408,16.5408,16.5408,16.5408,16.5408,16.5408,16.5408,16.5408,16.5408,16.5408,16.5408,16.5408,16.5408,16.5408,16.5408,16.5408,16.5408,16.5408,16.5408,16.5408,16.5408,16.5408,16.5408,16.5408,16.5408,16.5408,16.5408,16.5408,16.5408,16.5408,16.5408,16.5408,16.5408,16.5408,16.5408,16.5408,16.5408,16.5408,16.5408,16.5408,16.5408,16.5408,16.5408,16.5408,16.5408,16.5408,16.5408,16.5408,16.5408,16.5408,16.5408,16.5408,16.5408,16.5408,16.5408,16.5408,16.5408,16.5408,16.5408,16.5408,16.5408,16.5408,16.5408,16.5408,16.5408,16.5408,16.5408,16.5408,16.5408,16.5408,16.5263,16.4844,16.4186,16.3588,16.2212,16.069,16.4392,16.464,16.464,16.464,16.4711,16.5231,16.5408,16.5408,16.5408,16.5408,16.5408,16.5408,16.5408,16.5408,16.5408,16.5408,16.5408,16.5408,16.5408,16.5408,16.5408,16.5408,16.5408,16.5408,16.5408,16.5408,16.5408,16.5408,16.5408,16.5408,16.5408,16.5408,16.5408,16.5408,16.5408,16.5408,16.5408,16.5408,16.5408,16.5408,16.5408,16.5408,16.5408,16.5408,16.5408,16.5408,16.5408,16.5408,16.5408,16.5408,16.5408,16.5408,16.5408,16.5408,16.5408,16.5408,16.5408,16.5408,16.5408,16.5408,16.5408,16.5408,16.5408,16.5408,16.5408,16.5408,16.5408,16.5408,16.5408,16.5408,16.5408,16.5408,16.5408,16.5408,16.5408,16.5408,16.5408,16.5408,16.5408,16.5408,16.5408,16.5408,16.5408,16.5408,16.5408,16.5408,16.5408,16.5408,16.5408,16.5408,16.5408,16.5408,16.5408,16.5408,16.5408,16.5408,16.5408,16.5408,16.5408,16.5408,16.5408,16.5408,16.5408,16.5408,16.5408,16.5408,16.5408,16.5408,16.5408,16.5024,16.4306,16.3648,16.2331,16.075,15.9433,16.4676,16.5408,16.5408,16.5372,16.5337,16.5408,16.5408,16.5408,16.5408,16.5408,16.5408,16.5408,16.5408,16.5408,16.5408,16.5408,16.5408,16.5408,16.5408,16.5408,16.5408,16.5408,16.5408,16.5408,16.5408,16.5408,16.5408,16.5408,16.5408,16.5408,16.5408,16.5408,16.5408,16.5408,16.5408,16.5408,16.5408,16.5408,16.5408,16.5408,16.5408,16.5408,16.5408,16.5408,16.5408,16.5408,16.5408,16.5408,16.5408,16.5408,16.5408,16.5408,16.5408,16.5408,16.5408,16.5408,16.5408,16.5408,16.5408,16.5408,16.5408,16.5408,16.5408,16.5408,16.5408,16.5408,16.5408,16.5408,16.5408,16.5408,16.5408,16.5408,16.5408,16.5408,16.5408,16.5408,16.5408,16.5408,16.5408,16.5408,16.5408,16.5408,16.5408,16.5408,16.5408,16.5408,16.5408,16.5408,16.5408,16.5408,16.5408,16.5408,16.5408,16.5408,16.5408,16.5408,16.5408,16.5408,16.5408,16.5408,16.5408,16.5408,16.5408,16.5408,16.5408,16.5408,16.5408,16.5348,16.5024,16.4665,16.3887,16.2571,16.081,15.9374,15.8775,16.4771,16.5408,16.5408,16.5408,16.5408,16.5408,16.5408,16.5408,16.5408,16.5408,16.5408,16.5408,16.5408,16.5408,16.5408,16.5408,16.5408,16.5408,16.5408,16.5408,16.5408,16.5408,16.5408,16.5408,16.5408,16.5408,16.5408,16.5408,16.5408,16.5408,16.5408,16.5408,16.5408,16.5408,16.5408,16.5408,16.5408,16.5408,16.5408,16.5408,16.5408,16.5408,16.5408,16.5408,16.5408,16.5408,16.5408,16.5408,16.5408,16.5408,16.5408,16.5408,16.5408,16.5408,16.5408,16.5408,16.5408,16.5408,16.5408,16.5408,16.5408,16.5408,16.5408,16.5408,16.5408,16.5408,16.5408,16.5408,16.5408,16.5408,16.5408,16.5408,16.5408,16.5408,16.5408,16.5408,16.5408,16.5408,16.5408,16.5408,16.5408,16.5408,16.5408,16.5408,16.5408,16.5408,16.5408,16.5408,16.5408,16.5408,16.5408,16.5408,16.5408,16.5408,16.5408,16.5408,16.5408,16.5408,16.5408,16.5408,16.5408,16.5408,16.5408,16.5408,16.5408,16.5408,16.5203,16.4844,16.4545,16.4186,16.2964,16.1648,15.9972,15.8955,15.833,16.4711,16.5408,16.5408,16.5408,16.5408,16.5408,16.5408,16.5408,16.5408,16.5408,16.5408,16.5408,16.5408,16.5408,16.5408,16.5408,16.5408,16.5408,16.5408,16.5408,16.5408,16.5408,16.5408,16.5408,16.5408,16.5408,16.5408,16.5408,16.5408,16.5408,16.5408,16.5408,16.5408,16.5408,16.5408,16.5408,16.5408,16.5408,16.5408,16.5408,16.5408,16.5408,16.5408,16.5408,16.5408,16.5408,16.5408,16.5408,16.5408,16.5408,16.5408,16.5408,16.5408,16.5408,16.5408,16.5408,16.5408,16.5408,16.5408,16.5408,16.5408,16.5408,16.5408,16.5408,16.5408,16.5408,16.5408,16.5408,16.5408,16.5408,16.5408,16.5408,16.5408,16.5408,16.5408,16.5408,16.5408,16.5408,16.5408,16.5408,16.5408,16.5408,16.5408,16.5408,16.5408,16.5408,16.5408,16.5408,16.5408,16.5408,16.5408,16.5408,16.5408,16.5408,16.5408,16.5408,16.5408,16.5408,16.5408,16.5408,16.5408,16.5408,16.5408,16.5408,16.5408,16.5323,16.5024,16.4485,16.3708,16.2845,16.1708,16.0571,15.9613,15.8629,15.815,16.47,16.5408,16.5408,16.5408,16.5408,16.5408,16.5408,16.5408,16.5408,16.5408,16.5408,16.5408,16.5408,16.5408,16.5408,16.5408,16.5408,16.5408,16.5408,16.5408,16.5408,16.5408,16.5408,16.5408,16.5408,16.5408,16.5408,16.5408,16.5408,16.5408,16.5408,16.5408,16.5408,16.5408,16.5408,16.5408,16.5408,16.5408,16.5408,16.5408,16.5408,16.5408,16.5408,16.5408,16.5408,16.5408,16.5408,16.5408,16.5408,16.5408,16.5408,16.5408,16.5408,16.5408,16.5408,16.5408,16.5408,16.5408,16.5408,16.5408,16.5408,16.5408,16.5408,16.5408,16.5408,16.5408,16.5408,16.5408,16.5408,16.5408,16.5408,16.5408,16.5408,16.5408,16.5408,16.5408,16.5408,16.5408,16.5408,16.5408,16.5408,16.5408,16.5408,16.5408,16.5408,16.5408,16.5408,16.5408,16.5408,16.5383,16.5383,16.5263,16.5228,16.5323,16.5288,16.5408,16.5408,16.5408,16.5408,16.5408,16.5288,16.5408,16.5408,16.5288,16.4964,16.5084,16.4964,16.3289,16.1947,16.1289,16.0571,15.9673,15.8749,15.821,15.7911,16.4202,16.5408,16.5408,16.5408,16.5408,16.5408,16.5408,16.5408,16.5408,16.5408,16.5408,16.5408,16.5408,16.5408,16.5408,16.5408,16.5408,16.5408,16.5408,16.5408,16.5408,16.5408,16.5408,16.5408,16.5408,16.5408,16.5408,16.5408,16.5408,16.5408,16.5408,16.5408,16.5408,16.5408,16.5408,16.5408,16.5408,16.5408,16.5408,16.5408,16.5408,16.5408,16.5408,16.5408,16.5408,16.5408,16.5408,16.5408,16.5408,16.5408,16.5408,16.5408,16.5408,16.5408,16.5408,16.5408,16.5408,16.5408,16.5408,16.5408,16.5408,16.5408,16.5408,16.5408,16.5408,16.5408,16.5408,16.5408,16.5408,16.5408,16.5408,16.5408,16.5408,16.5408,16.5408,16.5408,16.5408,16.5408,16.5408,16.5408,16.5408,16.5408,16.5408,16.5408,16.5408,16.5408,16.5408,16.5408,16.5383,16.5383,16.5203,16.4844,16.4844,16.4844,16.4964,16.5203,16.5348,16.5408,16.5408,16.5288,16.4929,16.4929,16.4725,16.4605,16.4366,16.4126,16.3408,16.1708,16.0032,15.9733,15.9374,15.8596,15.827,15.7911,15.7672,16.3785,16.4984,16.5302,16.5408,16.5408,16.5408,16.5408,16.5408,16.5408,16.5408,16.5408,16.5408,16.5408,16.5408,16.5408,16.5408,16.5408,16.5408,16.5408,16.5408,16.5408,16.5408,16.5408,16.5408,16.5408,16.5408,16.5408,16.5408,16.5408,16.5408,16.5408,16.5408,16.5408,16.5408,16.5408,16.5408,16.5408,16.5408,16.5408,16.5408,16.5408,16.5408,16.5408,16.5408,16.5408,16.5408,16.5408,16.5408,16.5408,16.5408,16.5408,16.5408,16.5408,16.5408,16.5383,16.5383,16.5348,16.5408,16.5408,16.5408,16.5408,16.5408,16.5408,16.5408,16.5408,16.5408,16.5408,16.5408,16.5408,16.5408,16.5408,16.5408,16.5408,16.5408,16.5408,16.5408,16.5408,16.5408,16.5408,16.5408,16.5408,16.5408,16.5408,16.5408,16.5408,16.5348,16.5348,16.5288,16.5263,16.4904,16.4426,16.4186,16.4067,16.4067,16.4186,16.4186,16.4126,16.3947,16.4007,16.4007,16.3947,16.3887,16.3349,16.3109,16.287,16.2331,16.1648,16.0391,15.9074,15.8536,15.815,15.8031,15.7911,15.7672,15.7672,16.3534,16.432,16.5054,16.5337,16.5408,16.5408,16.5408,16.5408,16.5408,16.5408,16.5408,16.5408,16.5408,16.5408,16.5408,16.5408,16.5408,16.5408,16.5408,16.5408,16.5408,16.5408,16.5408,16.5408,16.5408,16.5408,16.5408,16.5408,16.5408,16.5408,16.5408,16.5408,16.5408,16.5408,16.5408,16.5408,16.5408,16.5408,16.5408,16.5408,16.5408,16.5408,16.5408,16.5408,16.5408,16.5408,16.5408,16.5408,16.5408,16.5408,16.5408,16.5408,16.5408,16.5408,16.5383,16.5263,16.5323,16.5408,16.5408,16.5408,16.5408,16.5408,16.5408,16.5408,16.5408,16.5408,16.5408,16.5408,16.5408,16.5408,16.5408,16.5408,16.5408,16.5408,16.5408,16.5408,16.5408,16.5408,16.5408,16.5408,16.5408,16.5408,16.5288,16.5348,16.5348,16.5348,16.5323,16.5144,16.4785,16.3767,16.3109,16.275,16.2631,16.2631,16.269,16.2511,16.2331,16.2092,16.2092,16.2092,16.2331,16.2511,16.1972,16.1708,16.1049,16.0571,16.0032,15.9194,15.8117,15.7731,15.7851,15.7791,15.7612,15.7612,15.7612,16.3534,16.4285,16.4427,16.4818,16.5372,16.5408,16.5408,16.5408,16.5408,16.5408,16.5408,16.5408,16.5408,16.5408,16.5408,16.5408,16.5408,16.5408,16.5408,16.5408,16.5408,16.5408,16.5408,16.5408,16.5408,16.5408,16.5408,16.5408,16.5408,16.5408,16.5408,16.5408,16.5408,16.5408,16.5408,16.5408,16.5408,16.5408,16.5408,16.5408,16.5408,16.5408,16.5408,16.5408,16.5408,16.5323,16.5084,16.5084,16.5084,16.5108,16.5168,16.5228,16.5348,16.5348,16.4904,16.4246,16.4904,16.5263,16.5323,16.5263,16.5024,16.5203,16.5288,16.5408,16.5408,16.5408,16.5408,16.5408,16.5408,16.5408,16.5408,16.5408,16.5408,16.5408,16.5408,16.5408,16.5408,16.5408,16.5408,16.5408,16.5408,16.5288,16.5049,16.4989,16.4545,16.4485,16.4067,16.4007,16.3708,16.269,16.1827,16.1468,16.1169,16.1169,16.093,16.075,16.069,16.0571,16.0571,16.0571,16.087,16.1075,16.1254,16.1135,16.0271,15.9254,15.8476,15.7758,15.7672,15.7612,15.7612,15.7612,15.7612,15.7612,15.7612,16.3162,16.3247,16.3964,16.4498,16.4853,16.5266,16.5408,16.5408,16.5408,16.5408,16.5408,16.5408,16.5408,16.5408,16.5408,16.5408,16.5408,16.5408,16.5408,16.5408,16.5408,16.5408,16.5408,16.5408,16.5408,16.5408,16.5408,16.5408,16.5408,16.5408,16.5408,16.5408,16.5408,16.5408,16.5408,16.5408,16.5408,16.5408,16.5408,16.5408,16.5408,16.5408,16.4964,16.4665,16.4426,16.4126,16.3767,16.3528,16.3588,16.3588,16.3528,16.3528,16.3468,16.3408,16.3204,16.2785,16.3084,16.3468,16.3528,16.3528,16.3947,16.4366,16.4426,16.4725,16.5203,16.5288,16.5408,16.5408,16.5408,16.5408,16.5408,16.5408,16.5408,16.5408,16.5408,16.5408,16.5408,16.5408,16.5408,16.5408,16.4844,16.4366,16.4426,16.4126,16.3708,16.3289,16.287,16.269,16.2511,16.1554,16.0571,16.0092,15.9613,15.9433,15.9074,15.9015,15.9015,15.9074,15.9194,15.9194,15.9314,15.9194,15.9493,15.9972,15.9314,15.8177,15.7672,15.7638,15.7672,15.7612,15.7612,15.7612,15.7612,15.7612,15.7612,16.2692,16.2243,16.3498,16.4142,16.4356,16.5125,16.5408,16.5408,16.5408,16.5408,16.5408,16.5408,16.5408,16.5408,16.5408,16.5408,16.5408,16.5408,16.5408,16.5408,16.5408,16.5408,16.5408,16.5408,16.5408,16.5408,16.5408,16.5408,16.5408,16.5408,16.5408,16.5408,16.5408,16.5408,16.5408,16.5408,16.5408,16.5408,16.5408,16.5408,16.5323,16.5024,16.4426,16.3229,16.3169,16.269,16.1947,16.1648,16.1554,16.1554,16.1554,16.1349,16.1049,16.1169,16.1289,16.1349,16.1648,16.2032,16.1972,16.1768,16.2212,16.281,16.3169,16.3708,16.4366,16.4844,16.4844,16.4964,16.5144,16.5408,16.5408,16.5408,16.5408,16.5408,16.5408,16.5408,16.5348,16.5108,16.4809,16.4246,16.3648,16.3169,16.299,16.275,16.2571,16.2391,16.1733,16.1254,16.1015,16.0271,15.9433,15.8869,15.833,15.7971,15.7612,15.7851,15.8031,15.8296,15.8296,15.839,15.821,15.7791,15.7672,15.8296,15.8057,15.7612,15.7612,15.7612,15.7612,15.7612,15.7612,15.7612,15.7612,15.7612,15.7612,16.2692,16.217,16.2945,16.3701,16.432,16.5065,16.5408,16.5408,16.5408,16.5408,16.5408,16.5408,16.5408,16.5408,16.5408,16.5408,16.5408,16.5408,16.5408,16.5408,16.5408,16.5408,16.5408,16.5408,16.5408,16.5408,16.5408,16.5408,16.5408,16.5408,16.5408,16.5408,16.5408,16.5408,16.5408,16.5408,16.5408,16.5383,16.5323,16.5203,16.5203,16.4246,16.3229,16.2152,16.1947,16.1588,16.1254,16.1229,16.1374,16.1554,16.1554,16.0331,15.9194,15.9134,15.9852,15.9912,16.075,16.1049,16.1049,16.1289,16.1374,16.1673,16.1793,16.1972,16.2391,16.3169,16.3648,16.4067,16.4485,16.5084,16.5408,16.5263,16.5263,16.5408,16.5408,16.5408,16.5168,16.4426,16.3408,16.2631,16.2186,16.1887,16.1648,16.1229,16.1468,16.1374,16.0511,15.9793,15.9493,15.8988,15.851,15.7911,15.7911,15.7672,15.7612,15.7791,15.7791,15.7877,15.7818,15.7851,15.7791,15.7612,15.7612,15.7612,15.7612,15.7612,15.7612,15.7612,15.7612,15.7612,15.7612,15.7612,15.7612,15.7612,15.7612,16.2439,16.166,16.2656,16.3283,16.3785,16.4853,16.5408,16.5408,16.5408,16.5408,16.5408,16.5408,16.5408,16.5408,16.5408,16.5408,16.5408,16.5408,16.5408,16.5408,16.5408,16.5408,16.5408,16.5408,16.5408,16.5408,16.5408,16.5408,16.5408,16.5408,16.5408,16.5408,16.5408,16.5408,16.5408,16.5408,16.5408,16.5323,16.4785,16.4366,16.4186,16.3109,16.1972,16.1588,16.087,16.0092,15.9613,15.9493,15.9493,15.9433,15.9433,15.8869,15.8031,15.827,15.8536,15.8596,15.9194,15.9433,15.9493,15.9493,15.9852,16.0391,16.0511,16.087,16.1588,16.1972,16.2451,16.2571,16.299,16.3708,16.4306,16.4366,16.4844,16.5144,16.5408,16.5084,16.4366,16.3229,16.2092,16.1648,16.087,16.0571,16.0152,15.9493,15.9553,15.9673,15.8835,15.8715,15.839,15.839,15.7791,15.7612,15.7612,15.7612,15.7612,15.7612,15.7612,15.7612,15.7612,15.7612,15.7612,15.7612,15.7612,15.7612,15.7612,15.7612,15.7612,15.7612,15.7612,15.7612,15.7612,15.7612,15.7612,15.7612,15.7612,16.1919,16.0885,16.2285,16.2945,16.3306,16.4593,16.5266,16.5408,16.5408,16.5408,16.5408,16.5408,16.5408,16.5408,16.5408,16.5408,16.5408,16.5408,16.5408,16.5408,16.5408,16.5408,16.5408,16.5408,16.5408,16.5408,16.5408,16.5408,16.5408,16.5408,16.5408,16.5408,16.5408,16.5408,16.5408,16.5383,16.5323,16.4844,16.4067,16.3468,16.293,16.1827,16.1109,16.087,15.9793,15.8655,15.7851,15.7612,15.7612,15.7612,15.7731,15.7971,15.7672,15.7731,15.7791,15.7851,15.7791,15.7791,15.7731,15.7911,15.8117,15.9074,15.9194,15.9613,16.063,16.087,16.1109,16.1169,16.1408,16.2186,16.287,16.3049,16.3408,16.4007,16.4246,16.3887,16.275,16.1768,16.0989,16.0451,15.9733,15.9194,15.9134,15.8296,15.8031,15.7731,15.7672,15.7672,15.7731,15.7791,15.7612,15.7612,15.7612,15.7612,15.7612,15.7612,15.7612,15.7612,15.7612,15.7612,15.7612,15.7612,15.7612,15.7612,15.7612,15.7612,15.7612,15.7612,15.7612,15.7612,15.7612,15.7612,15.7612,15.7612,15.7612,16.0855,16.0218,16.1665,16.2547,16.308,16.3999,16.4508,16.5217,16.5108,16.5203,16.5288,16.5348,16.5323,16.5408,16.5408,16.5408,16.5408,16.5408,16.5408,16.5408,16.5408,16.5408,16.5408,16.5408,16.5408,16.5408,16.5408,16.5408,16.5408,16.5408,16.5408,16.5408,16.5408,16.5408,16.5383,16.5323,16.4725,16.3947,16.3349,16.2571,16.1648,16.0511,15.9852,15.9613,15.8596,15.7911,15.7731,15.7612,15.7612,15.7612,15.7612,15.7612,15.7612,15.7612,15.7612,15.7612,15.7612,15.7612,15.7612,15.7612,15.7791,15.7911,15.7971,15.7971,15.8416,15.9288,15.9793,15.9793,16.087,16.1229,16.1554,16.1708,16.2007,16.2246,16.2067,16.1349,16.0331,15.9912,15.9314,15.8237,15.8031,15.7851,15.7851,15.7698,15.7612,15.7612,15.7612,15.7612,15.7612,15.7612,15.7612,15.7612,15.7612,15.7612,15.7612,15.7612,15.7612,15.7612,15.7612,15.7612,15.7612,15.7612,15.7612,15.7612,15.7612,15.7612,15.7612,15.7612,15.7612,15.7612,15.7612,15.7612,15.7612,15.7612,15.7612,15.9597,15.9073,15.96,16.0014,16.0385,16.1498,16.2167,16.2517,16.296,16.3528,16.4186,16.4306,16.4725,16.5383,16.5348,16.5348,16.5408,16.5408,16.5383,16.5383,16.5348,16.5348,16.5408,16.5408,16.5408,16.5408,16.5408,16.5408,16.5408,16.5408,16.5408,16.5408,16.5408,16.5408,16.5323,16.4725,16.3947,16.3289,16.1853,16.1049,16.0331,15.9134,15.8569,15.833,15.8031,15.7612,15.7612,15.7612,15.7612,15.7612,15.7612,15.7612,15.7612,15.7612,15.7612,15.7612,15.7612,15.7612,15.7612,15.7612,15.7612,15.7612,15.7612,15.7612,15.7791,15.8091,15.851,15.851,15.8929,15.9194,15.9374,15.9972,16.069,16.1109,16.0152,15.9074,15.8569,15.8569,15.815,15.7851,15.7612,15.7672,15.7672,15.7672,15.7612,15.7612,15.7612,15.7612,15.7612,15.7612,15.7612,15.7612,15.7612,15.7612,15.7612,15.7612,15.7612,15.7612,15.7612,15.7612,15.7612,15.7612,15.7612,15.7612,15.7612,15.7612,15.7612,15.7612,15.7612,15.7612,15.7612,15.7612,15.7612,15.7612,15.7612,15.8584,15.8009,15.8148,15.8253,15.8407,15.9513,16.0212,16.0491,16.1278,16.2212,16.275,16.293,16.3468,16.4306,16.4306,16.4605,16.4785,16.4844,16.5024,16.5323,16.5144,16.5084,16.5383,16.5408,16.5408,16.5408,16.5408,16.5408,16.5408,16.5408,16.5408,16.5408,16.5024,16.4904,16.4725,16.3588,16.287,16.2152,16.0451,15.9553,15.9015,15.8091,15.7672,15.7612,15.7672,15.7672,15.7612,15.7612,15.7612,15.7612,15.7612,15.7518,15.7159,15.7399,15.7399,15.7219,15.7339,15.7612,15.7612,15.7612,15.7612,15.7612,15.7612,15.7612,15.7612,15.7672,15.7672,15.7612,15.7612,15.7731,15.7851,15.8536,15.9374,16.0092,15.8895,15.7818,15.7731,15.7612,15.7612,15.7612,15.7612,15.7612,15.7612,15.7612,15.7612,15.7612,15.7612,15.7612,15.7612,15.7612,15.7612,15.7612,15.7612,15.7612,15.7612,15.7612,15.7612,15.7612,15.7492,15.7432,15.7372,15.7372,15.7432,15.7552,15.7399,15.7552,15.7552,15.7372,15.7612,15.7612,15.7612,15.7612,15.7612,15.7372,15.7312,15.8017,15.7406,15.795,15.8018,15.8125,15.8738,15.9298,16.0243,16.097,16.134,16.1588,16.1648,16.1733,16.1793,16.2152,16.269,16.3408,16.3588,16.4067,16.4545,16.4186,16.4067,16.4904,16.5049,16.5263,16.5383,16.5323,16.5288,16.5168,16.5084,16.5408,16.4964,16.4067,16.3588,16.3349,16.2306,16.1075,16.0331,15.9733,15.8929,15.7911,15.7672,15.7612,15.7612,15.7612,15.7612,15.7578,15.7458,15.7518,15.7612,15.7339,15.68,15.6228,15.704,15.686,15.5929,15.692,15.7219,15.7492,15.7226,15.7319,15.7353,15.7446,15.7612,15.7693,15.782,15.794,15.7906,15.7746,15.7739,15.7739,15.7911,15.7945,15.7971,15.7911,15.7672,15.7612,15.7612,15.7612,15.7612,15.7612,15.7612,15.7612,15.7612,15.7612,15.7612,15.7612,15.7612,15.7612,15.7612,15.7612,15.7612,15.7612,15.7612,15.7612,15.7612,15.7612,15.7492,15.698,15.692,15.6834,15.686,15.692,15.704,15.7099,15.7312,15.7372,15.6953,15.686,15.668,15.686,15.7492,15.7432,15.6953,15.6774,15.7007,15.669,15.6081,15.5768,15.5862,15.6013,15.6605,15.7272,15.7993,15.9085,16.0177,16.0331,16.075,16.1374,16.1554,16.1793,16.2246,16.2272,16.2511,16.281,16.2391,16.2545,16.299,16.3767,16.4545,16.5144,16.4605,16.4186,16.4126,16.3408,16.299,16.293,16.2511,16.2212,16.2092,16.0989,16.0152,15.9553,15.8775,15.8117,15.7698,15.7612,15.7612,15.7612,15.7612,15.7612,15.7612,15.686,15.6408,15.6288,15.5603,15.5032,15.4613,15.4912,15.4972,15.4613,15.4945,15.5244,15.525,15.576,15.581,15.6089,15.6926,15.7638,15.7759,15.8609,15.8971,15.8905,15.8453,15.8307,15.818,15.788,15.7846,15.818,15.782,15.7612,15.7612,15.7612,15.7612,15.7492,15.7492,15.7612,15.7612,15.7612,15.7612,15.7612,15.7612,15.7612,15.7612,15.7552,15.7612,15.7612,15.7339,15.7219,15.7492,15.7492,15.7492,15.692,15.6262,15.6022,15.5843,15.5843,15.5783,15.5843,15.5843,15.5902,15.5843,15.5723,15.5723,15.5244,15.5005,15.5424,15.5723,15.5603,15.5843,15.6702,15.6329,15.5166,15.4511,15.4338,15.4397,15.4718,15.5382,15.6159,15.7441,15.8733,15.8988,15.9433,16.0152,16.0331,16.0511,16.087,16.0511,16.0571,16.093,16.093,16.1169,16.1708,16.2486,16.3349,16.3947,16.3289,16.287,16.269,16.2032,16.1554,16.1374,16.1169,16.093,16.087,15.9673,15.8955,15.8835,15.8091,15.7612,15.7612,15.7612,15.7612,15.7612,15.7612,15.7399,15.704,15.6168,15.5537,15.5091,15.4254,15.3536,15.3296,15.3536,15.3536,15.3237,15.3639,15.4102,15.4107,15.4688,15.5169,15.5359,15.6447,15.7194,15.7441,15.8169,15.8627,15.8623,15.8162,15.7978,15.8148,15.7739,15.7406,15.7671,15.7111,15.6627,15.6507,15.6395,15.6441,15.6441,15.6441,15.6441,15.6381,15.6321,15.6202,15.6202,15.6262,15.6262,15.6321,15.6142,15.6441,15.6441,15.6441,15.6082,15.5843,15.5663,15.5663,15.5364,15.4945,15.4646,15.4433,15.4314,15.4254,15.4194,15.4134,15.4074,15.4014,15.4074,15.4254,15.4074,15.3895,15.3835,15.3775,15.4014,15.4373,15.7081,15.6227,15.5563,15.4793,15.4394,15.4197,15.4694,15.5416,15.6099,15.6931,15.7844,15.7791,15.7971,15.7911,15.8117,15.8476,15.9254,15.8536,15.8596,15.9587,15.9613,16.0211,16.1169,16.1408,16.1708,16.1733,16.1648,16.1588,16.1528,16.1289,16.1135,16.1169,16.0092,15.9613,15.9587,15.851,15.7791,15.7758,15.7731,15.7612,15.7612,15.7612,15.7612,15.7612,15.7518,15.692,15.575,15.557,15.4852,15.3895,15.3596,15.3024,15.2007,15.279,15.303,15.2262,15.3527,15.4512,15.4609,15.504,15.5398,15.5523,15.6275,15.6903,15.6966,15.7148,15.7331,15.7329,15.6727,15.6426,15.7421,15.7087,15.6534,15.5866,15.5661,15.5207,15.4924,15.432,15.3835,15.4074,15.4194,15.3927,15.3895,15.4194,15.4373,15.4314,15.4254,15.4314,15.4433,15.4433,15.4014,15.4014,15.4433,15.4732,15.4254,15.3775,15.3775,15.3775,15.3296,15.2937,15.2698,15.2638,15.2519,15.2578,15.2519,15.2519,15.2459,15.2519,15.2698,15.2758,15.3177,15.3117,15.2785,15.2546,15.2937,15.484,15.4542,15.3783,15.3847,15.4346,15.3426,15.4204,15.5997,15.5827,15.6464,15.7504,15.7612,15.7612,15.7612,15.7612,15.7877,15.821,15.7851,15.7911,15.827,15.833,15.8476,15.9015,15.9793,16.0211,16.0331,16.1049,16.1049,16.0211,15.9314,15.8895,15.8895,15.8476,15.827,15.821,15.7877,15.7612,15.7612,15.7612,15.7612,15.7612,15.7612,15.7612,15.7552,15.68,15.575,15.4433,15.3443,15.2725,15.2247,15.1469,15.0751,15.0456,15.114,15.1455,15.1127,15.2123,15.2744,15.287,15.381,15.4432,15.4494,15.6124,15.7324,15.7386,15.8158,15.8591,15.8498,15.8033,15.7531,15.7491,15.6688,15.632,15.6779,15.6047,15.5181,15.4822,15.4563,15.4178,15.3759,15.3568,15.3688,15.3775,15.3715,15.3655,15.3775,15.3775,15.3775,15.3775,15.3775,15.3775,15.3775,15.3596,15.3536,15.3356,15.216,15.1621,15.1529,15.117,15.0871,15.0691,15.0751,15.0783,15.0871,15.0931,15.099,15.099,15.0963,15.0963,15.0903,15.1349,15.1768,15.1409,15.117,15.123,15.3775,15.3709,15.2893,15.3103,15.3649,15.254,15.3214,15.4937,15.4499,15.5335,15.6726,15.692,15.7219,15.7612,15.6714,15.6202,15.6262,15.674,15.692,15.704,15.7432,15.7612,15.7731,15.851,15.8895,15.9015,15.9767,15.9673,15.8869,15.8326,15.7947,15.798,15.8274,15.844,15.8374,15.8114,15.7947,15.8007,15.7772,15.7612,15.7612,15.7612,15.7099,15.6295,15.5391,15.4373,15.3024,15.2095,15.1409,15.0958,15.0153,14.9642,14.9706,15.0088,15.0437,15.0693,15.16,15.2253,15.2593,15.3636,15.4483,15.4846,15.6759,15.7878,15.8066,15.8662,15.9196,15.8984,15.8384,15.8021,15.7623,15.6974,15.6576,15.6923,15.5906,15.475,15.4398,15.3951,15.3408,15.2829,15.2635,15.2506,15.2197,15.2279,15.2279,15.2279,15.2247,15.2187,15.2247,15.2247,15.216,15.2247,15.2279,15.2339,15.2339,15.0632,14.9734,14.9674,14.9702,14.9762,14.9822,15.0033,15.0093,15.0273,15.0153,15.0153,15.0332,15.0273,15.0213,15.0093,15.0093,15.0273,14.9642,15.0273,15.0061,15.3596,15.3438,15.278,15.2457,15.2476,15.1712,15.1904,15.3058,15.2747,15.374,15.5504,15.5597,15.6321,15.7233,15.5104,15.39,15.4146,15.5289,15.5796,15.5849,15.6867,15.7466,15.7492,15.7492,15.7432,15.7372,15.7578,15.7638,15.7645,15.8247,15.8646,15.8679,15.9335,15.9697,15.9565,15.8977,15.8679,15.8613,15.8047,15.7679,15.7559,15.7499,15.6208,15.4014,15.3655,15.2997,15.1736,15.1497,15.0898,14.9615,14.9555,14.9463,14.9435,14.9439,14.976,15.0454,15.1794,15.2902,15.3511,15.4654,15.5696,15.6464,15.7727,15.8536,15.8726,15.8853,15.8887,15.8571,15.7742,15.7409,15.8192,15.7887,15.737,15.6667,15.506,15.4094,15.3789,15.2958,15.1661,15.1091,15.1019,15.0854,15.0105,14.9706,14.9973,15.0033,14.9854,14.9882,15.0093,14.9973,15.0033,15.0033,14.9973,14.9702,14.9702,14.9674,14.9642,14.9642,14.9642,14.9702,14.9642,14.9642,14.9702,14.9702,14.9642,14.9642,14.9642,14.9642,14.9642,14.9642,14.9642,14.9642,14.9642,14.9642,14.9642,15.0811,15.0779,15.0558,15.0999,15.1797,15.117,15.1836,15.3262,15.2827,15.3204,15.4281,15.4314,15.4756,15.5395,15.4826,15.4725,15.5177,15.554,15.5494,15.5067,15.5367,15.5286,15.4825,15.4792,15.4792,15.4972,15.575,15.6228,15.6415,15.7799,15.8878,15.9434,15.9664,15.9762,15.9729,15.9598,15.9466,15.9373,15.8773,15.7866,15.6903,15.5969,15.4445,15.2459,15.2247,15.1589,15.0332,15.0181,14.9615,14.8358,14.8239,14.782,14.6954,14.7302,14.7861,14.8569,15.024,15.1462,15.2081,15.415,15.5778,15.6895,15.8638,15.9857,16.0191,16.0238,16.0136,15.9701,15.9231,15.8737,15.8892,15.877,15.8295,15.7293,15.6325,15.5143,15.397,15.3514,15.2778,15.1662,15.1101,15.0535,15.0374,15.0025,14.977,14.977,14.9706,14.9642,14.9642,14.9706,14.9706,14.9642,14.9674,14.9615,14.9642,14.9495,14.9642,14.9642,14.9495,14.9435,14.9642,14.9642,14.9674,14.8957,14.9463,14.9583,14.9196,14.9403,14.9523,14.9642,14.9642,14.9615,14.9674,14.9642,14.9642,14.9642,14.9642,14.9642,15.0153,15.0747,15.0419,15.0961,15.1975,15.1612,15.1976,15.2785,15.2571,15.2653,15.3071,15.3419,15.3769,15.4119,15.4664,15.4684,15.4424,15.4904,15.479,15.4173,15.4107,15.3977,15.3868,15.4553,15.4912,15.525,15.6898,15.8598,16.0062,16.0774,16.1065,16.0972,16.0224,15.9758,15.9725,15.8237,15.6808,15.554,15.4497,15.2657,15.0369,15.0033,14.9531,14.8617,14.85,14.8265,14.7793,14.7733,14.7372,14.6621,14.6929,14.7418,14.8116,14.9405,15.0761,15.2089,15.4293,15.5941,15.6944,15.8496,15.9607,15.9866,15.9893,15.9957,15.9839,15.9726,15.9392,15.882,15.8441,15.7965,15.7367,15.6728,15.5891,15.4545,15.4714,15.4242,15.284,15.2222,15.1818,15.1224,15.0784,15.0563,15.0532,15.0532,15.0595,15.0563,15.0532,15.0405,15.0063,14.9068,14.862,14.8409,14.828,14.8091,14.8059,14.8059,14.8059,14.794,14.8059,14.8119,14.7999,14.788,14.788,14.8239,14.8119,14.8358,14.8777,14.8837,14.9076,14.9615,14.9674,14.9076,14.9642,14.9642,14.9642,14.9642,14.9702,14.9702,14.9702,14.9794,14.9702,15.0364,15.14,15.0981,15.0939,15.1068,15.1754,15.228,15.2497,15.3406,15.4014,15.4012,15.5008,15.5171,15.4441,15.4433,15.4169,15.359,15.3639,15.3699,15.3792,15.5646,15.7799,16.0221,16.1788,16.2331,16.2301,16.0715,15.9752,15.9596,15.7048,15.4982,15.3641,15.2949,15.1077,14.786,14.7709,14.7482,14.7079,14.6929,14.7175,14.7541,14.7631,14.7631,14.751,14.757,14.7872,14.844,14.9065,15.0386,15.2708,15.4699,15.6079,15.6893,15.7936,15.864,15.8718,15.8418,15.8455,15.8854,15.9138,15.8973,15.834,15.775,15.7318,15.7071,15.6678,15.6051,15.5383,15.5872,15.5568,15.3843,15.3172,15.3054,15.1707,15.1244,15.118,15.0936,15.0752,15.0658,15.0719,15.0719,15.0563,15.001,14.8618,14.7231,14.6894,14.6282,14.6303,14.6087,14.5877,14.6116,14.6236,14.6176,14.5877,14.6595,14.6116,14.6236,14.6116,14.5877,14.6415,14.7313,14.764,14.7911,14.8897,14.9076,14.8298,14.9642,14.9642,14.9642,14.9642,14.9642,14.9642,14.9642,14.9642,14.9674,14.9827,15.0224,15.1141,15.2098,15.3055,15.3239,15.3849,15.4789,15.5127,15.4949,15.437,15.425,15.3788,15.3105,15.2634,15.2412,15.2284,15.2741,15.2994,15.3243,15.4968,15.6269,15.6929,15.8736,15.9828,16.0291,15.9827,15.9395,15.8807,15.6675,15.4459,15.2198,15.1496,15.0029,14.7901,14.7719,14.769,14.757,14.7874,14.7688,14.6924,14.7309,14.7085,14.6225,14.651,14.689,14.7121,14.8033,14.9015,15.0171,15.3132,15.5636,15.7076,15.8413,15.9349,15.956,15.7774,15.6537,15.6767,15.7712,15.8077,15.7677,15.8143,15.8445,15.7591,15.6996,15.6259,15.5214,15.4799,15.4114,15.291,15.2213,15.1628,15.08,14.9904,14.9453,14.9514,14.8907,14.8663,14.8632,14.8632,14.8815,14.8876,14.8693,14.7783,14.6929,14.6471,14.6194,14.5879,14.5697,14.5578,14.5578,14.5697,14.5757,14.5578,14.5697,14.5578,14.5697,14.5697,14.5817,14.6056,14.6205,14.6356,14.6834,14.6894,14.6415,14.8351,14.8383,14.8664,14.8789,14.8789,14.8789,14.8789,14.8821,14.932,14.9574,14.9666,15.0701,15.1613,15.2243,15.2868,15.3551,15.4196,15.4462,15.4162,15.3606,15.3905,15.3527,15.2685,15.2688,15.2532,15.216,15.2293,15.2373,15.2525,15.4338,15.5388,15.5798,15.7662,15.9237,16.0361,16.0159,15.9666,15.8973,15.6024,15.3263,15.0748,15.0268,14.9055,14.6964,14.6873,14.6691,14.6353,14.6215,14.6012,14.5596,14.5589,14.5252,14.46,14.51,14.5435,14.5463,14.6477,14.7483,14.8261,15.0467,15.2818,15.5087,15.6263,15.6643,15.6283,15.5453,15.4927,15.4993,15.6267,15.6973,15.67,15.7079,15.7158,15.6545,15.6625,15.6241,15.5389,15.5255,15.4908,15.3733,15.3,15.2289,15.1426,15.0758,15.026,14.9907,14.9641,14.9407,14.9168,14.813,14.733,14.7565,14.7212,14.6471,14.5542,14.518,14.4755,14.4085,14.4022,14.4022,14.4022,14.3962,14.3962,14.4022,14.3962,14.4022,14.3962,14.3962,14.4321,14.462,14.492,14.5219,14.5638,14.5817,14.5338,14.6807,14.696,14.7479,14.7753,14.7813,14.7813,14.7874,14.8086,14.9035,14.9564,14.9808,15.0521,15.0874,15.102,15.2117,15.2723,15.2808,15.3198,15.3233,15.2871,15.3828,15.3755,15.2763,15.3314,15.3297,15.2749,15.2165,15.2009,15.2375,15.3907,15.4985,15.5694,15.754,15.9256,16.0781,16.0279,15.9694,15.9128,15.5428,15.2227,14.969,14.9392,14.8219,14.5897,14.5777,14.5375,14.4619,14.4122,14.3976,14.4493,14.3929,14.3572,14.3467,14.3891,14.4035,14.39,14.491,14.5955,14.6767,14.7618,14.9225,15.1753,15.2706,15.2691,15.1465,15.2428,15.3259,15.3522,15.4532,15.5256,15.5297,15.4863,15.4682,15.4673,15.5439,15.5739,15.5134,15.5818,15.5796,15.4617,15.4299,15.3546,15.238,15.2049,15.1646,15.1259,15.0603,15.0713,14.9788,14.8425,14.7118,14.671,14.5704,14.4718,14.4376,14.3485,14.3041,14.2109,14.2168,14.2197,14.2257,14.2257,14.2257,14.2018,14.2197,14.2138,14.2078,14.1898,14.2466,14.3304,14.3574,14.3842,14.474,14.4979,14.4472,14.7052,14.7601,14.7722,14.7995,14.8326,14.8326,14.8687,14.9191,14.9109,0.0,0.0,15.2158,15.2972,15.3515,15.374,15.4131,15.4667,15.475,15.475,15.4639,15.4328,15.3865,15.3241,15.28,15.294,15.3318,15.2726,15.2982,15.406,15.4397,15.4641,15.4883,15.6684,15.7839,15.8125,15.7924,15.7671,15.7235,15.5143,15.2744,15.0232,14.9202,14.7716,14.5667,14.5638,14.5252,14.4498,14.4814,14.5,14.4886,14.5279,14.5178,14.4432,14.4498,14.3979,14.2926,14.3788,14.4464,14.4662,14.592,14.6962,14.7485,14.9228,15.0126,14.9863,15.0061,15.0718,15.1926,15.2189,15.2386,15.2386,15.229,15.2242,15.2242,15.3028,15.3599,15.3541,15.4239,15.4512,15.3789,15.3568,15.3085,15.2128,15.1564,15.0923,15.0441,15.01,14.9323,14.8905,14.9183,14.9081,14.8168,14.6989,14.5995,14.527,14.4338,14.3335,14.274,14.223,14.1898,14.1898,14.1898,14.1898,14.1898,14.1898,14.1898,14.1898,14.1898,14.2018,14.2197,14.2257,14.2317,14.2526,14.2616,14.2556,14.608,14.6704,14.6999,14.7613,0.0,14.8422,14.9083,15.0122,15.0052,15.038,15.1077,15.2047,15.2637,15.2962,15.3502,15.3904,15.4287,15.4579,15.4526,15.4234,15.435,15.4127,15.3552,15.3396,15.3525,15.384,15.3208,15.3086,15.3446,15.3446,15.3621,15.3942,15.493,15.5844,15.6655,15.6943,15.6754,15.6164,15.4342,15.2147,14.972,14.8888,14.7671,14.6139,14.5761,0.0,0.0,0.0,0.0,0.0,0.0,0.0,0.0,14.1754,0.0,14.0499,14.0487,14.062,14.0924,14.1578,14.2171,14.2486,14.4729,14.4889,14.1972,14.4471,14.6707,14.8154,14.8943,14.9337,14.9361,15.0061,15.0521,15.0587,15.1555,15.2288,15.2281,15.2431,15.2665,15.3042,15.2895,15.2699,15.2587,15.2287,15.1921,15.1393,15.0834,15.0334,14.9838,15.0566,15.0925,14.9756,14.8446,14.7045,14.5847,14.4919,14.4309,14.3128,14.262,14.226,14.1959,14.1898,14.1898,14.1898,14.1898,14.1898,14.1898,14.1898,14.1898,14.1898,14.1898,14.1898,14.1898,14.1898,14.1898,14.4629,14.565,14.622,14.7304,14.8633,14.8507,14.9321,15.0641,15.0641,15.0705,15.0694,15.123,15.1438,15.1516,15.2316,15.2699,15.275,15.3531,15.361,15.3152,15.4177,15.4298,15.369,15.3926,15.4052,15.4021,15.3521,15.3144,15.2859,15.2859,15.3176,15.3684,15.3796,15.4568,15.6045,0.0,0.0,0.0,15.3375,15.1642,14.9647,14.8826,14.7973,14.6937,14.6249,0.0,14.4403,14.3902,14.3221,14.2439,14.087,0.0,0.0,0.0,0.0,0.0,0.0,0.0,0.0,0.0,0.0,0.0,13.8553,13.772,13.3687,13.8049,14.1972,14.3659,14.5129,14.5918,14.5984,14.7299,14.8219,14.8285,14.9469,15.0413,15.0413,15.0403,15.0925,15.2152,15.2088,15.223,15.2845,15.3289,15.3215,15.2574,15.2523,15.2068,15.123,15.1608,15.1737,15.0837,14.9229,14.7624,14.5617,14.4957,14.3915,14.2788,14.2196,14.1779,14.115,14.1,14.106,14.106,14.109,14.106,14.106,14.112,14.106,14.1479,14.1539,14.1479,14.118,14.112,14.112,14.3293,14.5407,14.6024,14.7621,14.9792,14.9214,14.9383,15.0008,15.0008,15.0008,15.0033,15.0082,15.0132,15.0107,15.0256,15.0305,15.0395,15.173,15.2251,15.2241,15.3686,15.407,15.344,15.3479,15.3588,15.3785,15.3677,15.4054,15.4742,15.4805,15.4833,15.4916,15.5338,15.5937,15.66,15.4585,15.3121,15.2461,15.2523,15.213,15.1303,14.9811,14.8723,14.8112,14.7497,14.6196,14.4371,14.4572,14.3484,14.0906,14.1237,14.0217,13.7217,13.5903,13.4159,0.0,13.0774,0.0,0.0,0.0,0.0,0.0,0.0,0.0,0.0,13.2766,13.6514,13.9189,14.0723,14.1578,14.1578,14.285,14.3727,14.377,14.4997,14.5829,14.5961,14.8084,14.968,14.99,15.097,15.1645,15.1763,15.2861,15.3453,15.2953,15.3677,15.3721,15.2378,15.1417,15.0871,15.0107,14.9055,14.7602,14.5316,14.3328,14.1871,14.0587,13.9982,13.9042,13.8694,13.8516,13.8427,13.8487,13.8666,13.8516,13.8338,13.8487,13.8816,13.9983,14.0162,13.9833,13.8876,13.8636,13.8338,14.3543,14.5279,14.6079,14.6831,14.7556,14.7304,14.7259,14.7477,14.7501,14.7477,14.7477,14.7477,14.7622,14.7935,14.8246,14.8823,14.9674,15.0329,15.1007,15.1793,15.2218,15.2689,15.3157,15.2791,15.3139,15.4099,15.4099,15.3723,15.298,15.298,15.2594,15.1771,15.1993,15.2626,15.3469,15.314,15.2971,15.3036,15.3638,15.3413,15.2183,15.1101,14.9973,14.8771,14.8224,14.6717,14.4275,14.4752,14.3531,14.0534,13.9598,13.8083,13.5734,13.2861,13.0255,0.0,0.0,0.0,0.0,0.0,0.0,0.0,0.0,0.0,0.0,0.0,13.0004,13.132,13.4147,13.5857,13.5857,13.7961,13.9298,13.9298,14.0591,14.149,14.1424,14.3353,14.4931,14.5744,14.7991,14.9867,15.0593,15.2213,15.3209,15.2972,15.3714,15.3974,15.2787,15.2006,15.1436,15.1172,15.0056,14.8575,14.7239,14.4947,14.2778,14.114,14.0489,14.0004,13.9084,13.891,13.8881,13.8881,13.8881,13.8794,13.8444,13.8357,13.836,13.8753,13.8716,13.8646,13.8384,13.8386,13.824,14.2558,14.391,14.4187,14.4072,14.3804,14.3856,14.3903,14.3926,14.3926,14.3903,14.3926,14.3903,14.4136,14.4531,14.4946,14.5918,14.743,14.7759,14.89,15.0521,15.051,15.1259,15.2594,15.2153,15.2494,15.3478,15.3478,15.2591,15.096,15.087,15.0327,14.929,14.8175,14.8256,14.9443,15.0866,15.2132,15.3193,15.4273,15.423,15.3207,15.2313,15.1261,14.9919,14.9013,14.7337,14.4922,14.4709,14.3075,13.9738,13.7933,13.5931,13.349,12.9778,0.0,0.0,0.0,0.0,0.0,0.0,0.0,0.0,0.0,11.8234,11.8544,0.0,12.4059,0.0,12.8121,13.0883,13.1213,13.3606,0.0,0.0,13.6134,13.6772,13.6772,13.8288,13.9956,14.1428,14.442,14.6957,14.8662,15.0728,15.1886,15.1292,15.1564,15.1677,15.1293,15.0792,15.0494,15.0223,14.8947,14.8061,14.7071,14.522,14.258,14.0338,13.9755,13.9347,13.8233,13.8097,13.8012,13.7899,13.787,13.77,13.7092,13.7428,13.7256,13.6723,13.6395,13.6428,13.6971,13.6923,13.6872,13.8568,14.0545,13.8564,13.8027,13.8437,13.8924,13.9123,13.9123,13.9123,13.9123,13.9123,13.9123,13.9145,13.9188,13.9232,0.0,14.1446,14.285,14.4823,14.7562,14.8962,15.0342,15.1657,15.1633,15.15,15.1148,15.0968,15.0635,14.9989,14.9965,14.99,14.9664,14.5509,14.4072,14.5455,14.6901,14.8985,15.1728,15.3169,15.4232,15.4857,15.3336,15.2456,15.2273,15.0047,14.8156,14.6566,14.4518,14.1523,13.7621,13.7153,13.4551,12.9327,0.0,0.0,0.0,0.0,0.0,0.0,0.0,0.0,0.0,0.0,0.0,0.0,0.0,0.0,11.9998,12.436,0.0,12.8966,13.0519,0.0,0.0,0.0,13.1606,13.1606,13.3818,13.6025,13.7814,0.0,0.0,14.5122,14.7852,14.8762,14.6478,14.6207,14.6228,14.6185,14.6,14.5563,14.5898,14.4445,14.3364,14.3272,14.1275,13.8999,13.6496,13.5068,13.4586,13.3671,13.3402,13.301,13.284,13.2441,13.2501,13.2386,13.3438,13.3863,13.3193,13.2706,13.2347,13.2508,13.2185,13.23,13.3859,13.2666,13.2449,13.2573,13.2997,13.3253,13.3316,13.3316,13.3316,13.3316,13.3337,13.3337,13.3337,13.3337,13.3337,0.0,0.0,0.0,13.875,14.0789,14.309,14.4954,14.6335,14.7233,14.7971,14.8571,14.8571,14.7994,14.6972,14.6907,14.5205,14.1781,0.0,14.0153,14.2433,14.4711,14.7365,15.0282,15.2601,15.4345,15.5552,15.4581,15.3382,15.1812,15.0487,14.8188,14.4785,14.2916,14.0152,13.6245,13.4008,13.0803,0.0,0.0,0.0,0.0,0.0,0.0,0.0,0.0,0.0,0.0,0.0,11.1624,11.2219,0.0,0.0,0.0,11.8533,12.1079,12.3354,12.4891,0.0,0.0,0.0,0.0,0.0,0.0,0.0,13.2164,13.5831,13.9295,14.1938,14.2031,14.2059,14.2916,14.3741,14.4612,14.5488,0.0,14.5367,14.5388,14.4702,14.3895,14.2986,14.0975,13.8775,13.6842,13.4935,13.3264,13.2202,13.1998,13.1819,13.1444,13.135,13.1493,13.1917,13.0858,13.0085,13.0684,13.1069,13.1081,13.043,13.0054,13.0137,12.806,0.0,0.0,0.0,0.0,12.742,12.742,12.744,12.742,12.7374,12.744,12.754,0.0,0.0,0.0,0.0,0.0,0.0,13.2832,13.4694,13.7128,13.9232,14.1074,14.2104,14.3353,14.4668,14.4734,14.3945,14.2564,14.1293,13.8597,13.4607,0.0,0.0,0.0,0.0,14.5435,14.8769,15.1848,15.4026,15.5499,15.565,15.4575,15.2006,15.0047,14.73,14.345,14.0765,13.769,13.4211,13.0521,0.0,0.0,0.0,0.0,0.0,0.0,0.0,0.0,0.0,0.0,0.0,0.0,0.0,0.0,0.0,0.0,0.0,0.0,0.0,11.8363,12.0258,12.1389,0.0,0.0,0.0,0.0,0.0,0.0,0.0,0.0,0.0,13.667,13.6101,13.652,0.0,0.0,14.2085,14.3498,14.3699,14.3699,14.3699,14.341,0.0,14.1617,13.9627,13.789,13.6629,13.4571,13.258,13.1352,13.1047,13.0766,12.9731,12.9608,12.9706,12.9891,12.8036,12.7019,12.8086,12.8735,12.8628,12.7874,12.7833,12.8059,0.0,0.0,0.0,0.0,12.1587,0.0,0.0,0.0,12.1606,12.1606,0.0,12.1987,0.0,0.0,0.0,0.0,12.3738,12.5204,0.0,0.0,13.1583,13.3774,13.647,13.6667,13.7501,13.8794,13.886,13.8093,13.6404,13.2372,0.0,0.0,0.0,0.0,0.0,0.0,14.2959,14.7125,15.062,15.3148,15.456,15.6421,15.6182,15.3653,14.8594,14.5087,14.3331,13.8061,13.3771,13.0867,12.7077,0.0,0.0,0.0,0.0,0.0,0.0,0.0,0.0,0.0,0.0,0.0,0.0,0.0,0.0,0.0,0.0,0.0,0.0,0.0,0.0,11.7476,0.0,0.0,0.0,0.0,0.0,0.0,0.0,0.0,0.0,12.792,12.8637,13.082,13.312,13.4749,0.0,0.0,0.0,0.0,13.9182,13.9249,13.8863,13.8156,13.6781,13.5625,13.4576,13.3662,0.0,0.0,13.0198,12.9853,12.9044,12.6758,12.6343,12.6057,12.5198,12.421,12.4002,12.5379,12.4908,12.4124,12.3763,12.4191,12.514,0.0,0.0,0.0,0.0,0.0,0.0,0.0,0.0,0.0,11.7113,11.7267,11.6536,0.0,0.0,0.0,0.0,0.0,0.0,0.0,0.0,12.5316,12.744,12.9347,13.0267,13.1537,13.2856,13.2922,13.0304,0.0,0.0,0.0,0.0,0.0,0.0,0.0,0.0,13.9298,14.4749,14.8825,15.2231,15.4854,15.6569,15.6564,15.466,15.063,14.531,13.8585,13.4382,13.0475,0.0,0.0,0.0,0.0,0.0,0.0,0.0,0.0,0.0,0.0,0.0,0.0,0.0,0.0,0.0,0.0,0.0,0.0,0.0,0.0,0.0,0.0,0.0,11.3823,0.0,0.0,0.0,0.0,0.0,0.0,0.0,0.0,0.0,12.575,12.6698,12.899,13.3354,13.4137,13.5194,13.7653,0.0,0.0,0.0,0.0,0.0,0.0,0.0,13.2482,13.1608,12.9807,12.811,12.7094,12.6399,12.5567,12.4275,0.0,0.0,12.133,12.0237,12.006,12.1523,12.1033,12.0166,11.948,12.0334,12.1434,0.0,0.0,0.0,0.0,0.0,0.0,0.0,0.0,0.0,11.2931,11.3131,0.0,0.0,0.0,0.0,0.0,0.0,0.0,0.0,0.0,0.0,0.0,12.3428,12.4466,0.0,0.0,0.0,0.0,0.0,0.0,0.0,0.0,0.0,0.0,0.0,0.0,13.7145,14.2814,14.7821,15.1695,15.4615,15.6332,15.6132,15.4017,15.1259,14.5768,13.7347,0.0,0.0,0.0,0.0,0.0,0.0,0.0,0.0,0.0,0.0,0.0,0.0,0.0,0.0,0.0,0.0,0.0,0.0,0.0,0.0,0.0,0.0,0.0,0.0,0.0,11.0823,0.0,0.0,0.0,0.0,0.0,0.0,0.0,0.0,0.0,0.0,12.3369,12.6074,13.0047,13.1522,13.3098,13.5608,13.6037,13.6137,0.0,0.0,0.0,0.0,0.0,0.0,0.0,0.0,0.0,0.0,0.0,0.0,0.0,0.0,12.069,11.89,11.8056,11.7866,11.8762,0.0,0.0,0.0,0.0,0.0,0.0,0.0,0.0,0.0,0.0,0.0,0.0,0.0,0.0,0.0,10.923,0.0,0.0,10.9229,0.0,0.0,0.0,0.0,0.0,0.0,0.0,0.0,0.0,0.0,0.0,0.0,0.0,0.0,0.0,0.0,0.0,0.0,0.0,0.0,0.0,0.0,13.6574,14.1448,14.7497,15.1668,15.3724,15.5626,15.5024,15.1744,15.0031,14.6254,13.9949,0.0,0.0,0.0,0.0,0.0,0.0,0.0,0.0,0.0,0.0,0.0,0.0,0.0,0.0,0.0,0.0,0.0,0.0,0.0,0.0,0.0,0.0,0.0,0.0,0.0,0.0,11.0286,11.0353,11.042,0.0,0.0,0.0,0.0,0.0,0.0,0.0,0.0,0.0,12.4756,12.8186,13.1231,13.2694,13.3801,13.4461,13.4528,13.3234,13.1807,13.0466,12.901,12.7874,0.0,0.0,0.0,0.0,0.0,0.0,0.0,0.0,0.0,0.0,0.0,0.0,0.0,0.0,0.0,0.0,0.0,0.0,0.0,0.0,0.0,0.0,0.0,0.0,0.0,0.0,0.0,0.0,0.0,0.0,0.0,0.0,0.0,0.0,0.0,0.0,0.0,0.0,0.0,0.0,0.0,0.0,0.0,0.0,0.0,0.0,0.0,0.0,0.0,0.0,0.0,0.0,0.0,0.0,13.4217,14.0332,14.5307,14.9475,15.2748,15.4378,15.3708,15.0628,14.7781,14.3493,0.0,0.0,0.0,0.0,0.0,0.0,0.0,0.0,0.0,0.0,0.0,0.0,0.0,0.0,0.0,0.0,0.0,0.0,0.0,0.0,0.0,0.0,0.0,0.0,0.0,0.0,0.0,0.0,10.8125,10.9198,11.027,0.0,0.0,0.0,0.0,0.0,0.0,0.0,0.0,0.0,0.0,12.7384,12.9933,13.0245,13.0035,13.0102,12.9699,12.923,12.8828,12.7468,12.6072,12.4939,0.0,0.0,0.0,0.0,0.0,0.0,0.0,0.0,0.0,0.0,0.0,0.0,0.0,0.0,0.0,0.0,0.0,0.0,0.0,0.0,0.0,0.0,0.0,0.0,0.0,0.0,0.0,0.0,0.0,0.0,0.0,0.0,0.0,0.0,0.0,0.0,0.0,0.0,0.0,0.0,0.0,0.0,0.0,0.0,0.0,0.0,0.0,0.0,0.0,0.0,0.0,0.0,0.0,13.3345,13.9312,14.4304,14.8318,15.1385,15.2971,15.23,14.9262,14.6079,14.1671,0.0,0.0,0.0,0.0,0.0,0.0,0.0,0.0,0.0,0.0,0.0,0.0,0.0,0.0,0.0,0.0,0.0,0.0,0.0,0.0,0.0,0.0,0.0,0.0,0.0,0.0,0.0,0.0,10.5913,10.7053,10.8527,0.0,0.0,0.0,0.0,0.0,0.0,0.0,0.0,0.0,0.0,12.5263,12.7174,12.781,0.0,0.0,12.7602,12.7218,12.72,12.5993,12.4432,12.3042,12.155,0.0,0.0,0.0,0.0,0.0,0.0,0.0,0.0,0.0,0.0,0.0,0.0,0.0,0.0,0.0,0.0,0.0,0.0,0.0,0.0,0.0,0.0,0.0,0.0,0.0,0.0,0.0,0.0,0.0,0.0,0.0,0.0,0.0,0.0,0.0,0.0,0.0,0.0,0.0,0.0,0.0,0.0,0.0,0.0,0.0,0.0,0.0,0.0,0.0,0.0,0.0,0.0,13.3395,13.8218,14.3957,14.7824,14.9865,15.1362,15.0692,14.7675,14.4679,14.0409,0.0,0.0,0.0,0.0,0.0,0.0,0.0,0.0,0.0,0.0,0.0,0.0,0.0,0.0,0.0,0.0,0.0,0.0,0.0,0.0,0.0,0.0,0.0,0.0,0.0,0.0,0.0,0.0,0.0,0.0,0.0,0.0,0.0,0.0,0.0,0.0,0.0,0.0,0.0,0.0,0.0,12.418,12.4333,12.6128,12.7468,0.0,12.6261,12.5322,12.5304,12.4164,12.2841,12.1433,0.0,0.0,0.0,0.0,0.0,0.0,0.0,0.0,0.0,0.0,0.0,0.0,0.0,0.0,0.0,0.0,0.0,0.0,0.0,0.0,0.0,0.0,0.0,0.0,0.0,0.0,0.0,0.0,0.0,0.0,0.0,0.0,0.0,0.0,0.0,0.0,0.0,0.0,0.0,0.0,0.0,0.0,0.0,0.0,0.0,0.0,0.0,0.0,0.0,0.0,0.0,0.0,0.0,0.0,13.677,14.1555,14.5418,14.8369,14.8882,14.7608,14.4633,14.1683,0.0,0.0,0.0,0.0,0.0,0.0,0.0,0.0,0.0,0.0,0.0,0.0,0.0,0.0,0.0,0.0,0.0,0.0,0.0,0.0,0.0,0.0,0.0,0.0,0.0,0.0,0.0,10.0014,0.0,0.0,0.0,0.0,0.0,0.0,0.0,0.0,0.0,0.0,0.0,0.0,0.0,0.0,12.0055,12.1255,12.1416,12.1415,0.0,0.0,12.0812,12.0795,12.0544,11.9824,0.0,0.0,0.0,0.0,0.0,0.0,0.0,0.0,0.0,0.0,0.0,0.0,0.0,0.0,0.0,0.0,0.0,0.0,0.0,0.0,0.0,0.0,0.0,0.0,0.0,0.0,0.0,0.0,0.0,0.0,0.0,0.0,0.0,0.0,0.0,0.0,0.0,0.0,0.0,0.0,0.0,0.0,0.0,0.0,0.0,0.0,0.0,0.0,0.0,0.0,0.0,0.0,0.0,0.0,13.106,13.5778,13.9989,14.3444,14.5932,14.6602,14.553,14.2575,13.9604,13.5581,0.0,0.0,0.0,0.0,0.0,0.0,0.0,0.0,0.0,0.0,0.0,0.0,0.0,0.0,0.0,0.0,0.0,0.0,0.0,0.0,0.0,0.0,0.0,0.0,0.0,0.0,0.0,0.0,0.0,0.0,0.0,0.0,0.0,0.0,0.0,0.0,0.0,0.0,0.0,0.0,0.0,0.0,11.8992,11.9161,0.0,0.0,0.0,11.9203,11.9203,0.0,0.0,0.0,0.0,0.0,0.0,0.0,0.0,0.0,0.0,0.0,0.0,0.0,0.0,0.0,0.0,0.0,0.0,0.0,0.0,0.0,0.0,0.0,0.0,0.0,0.0,0.0,0.0,0.0,0.0,0.0,0.0,0.0,0.0,0.0,0.0,0.0,0.0,0.0,0.0,0.0,0.0,0.0,0.0,0.0,0.0,0.0,0.0,0.0,0.0,0.0,0.0,0.0,0.0,0.0,0.0,0.0,13.4828,13.9013,14.1832,14.3241,14.4633,14.3988,14.11,13.8129,13.4461,0.0,0.0,0.0,0.0,0.0,0.0,0.0,0.0,0.0,0.0,0.0,0.0,0.0,0.0,0.0,0.0,0.0,0.0,0.0,0.0,0.0,0.0,0.0,0.0,0.0,0.0,0.0,0.0,0.0,0.0,0.0,0.0,0.0,0.0,0.0,0.0,0.0,0.0,0.0,0.0,0.0,11.7024,11.7327,11.8084,11.8649,0.0,0.0,11.8649,11.8667,11.8667,0.0,0.0,0.0,0.0,0.0,0.0,0.0,0.0,0.0,0.0,0.0,0.0,0.0,0.0,0.0,0.0,0.0,0.0,0.0,0.0,0.0,0.0,0.0,0.0,0.0,0.0,0.0,0.0,0.0,0.0,0.0,0.0,0.0,0.0,0.0,0.0,0.0,0.0,0.0,0.0,0.0,0.0,0.0,0.0,0.0,0.0,0.0,0.0,0.0,0.0,0.0,0.0,0.0,0.0,0.0,0.0,13.2676,13.7477,14.0713,14.2173,14.3324,14.2488,13.9537,13.6654,13.2516,0.0,0.0,0.0,0.0,0.0,0.0,0.0,0.0,0.0,0.0,0.0,0.0,0.0,0.0,0.0,0.0,0.0,0.0,0.0,0.0,0.0,0.0,0.0,0.0,0.0,0.0,0.0,0.0,0.0,0.0,0.0,0.0,0.0,0.0,0.0,0.0,0.0,0.0,0.0,0.0,0.0,11.4415,11.5559,11.5649,0.0,0.0,0.0,0.0,11.5566,11.5633,0.0,0.0,0.0,0.0,0.0,0.0,0.0,0.0,0.0,0.0,0.0,0.0,0.0,0.0,0.0,0.0,0.0,0.0,0.0,0.0,0.0,0.0,0.0,0.0,0.0,0.0,0.0,0.0,0.0,0.0,0.0,0.0,0.0,0.0,0.0,0.0,0.0,0.0,0.0,0.0,0.0,0.0,0.0,0.0,0.0,0.0,0.0,0.0,0.0,0.0,0.0,0.0,0.0,0.0,0.0,0.0,13.1285,13.5049,13.822,14.0698,14.0632,13.9739,13.7948,13.4441,13.0418,0.0,0.0,0.0,0.0,0.0,0.0,0.0,0.0,0.0,0.0,0.0,0.0,0.0,0.0,0.0,0.0,0.0,0.0,0.0,0.0,0.0,0.0,0.0,0.0,0.0,0.0,0.0,0.0,0.0,0.0,0.0,0.0,0.0,0.0,0.0,0.0,0.0,0.0,0.0,0.0,11.2013,11.3363,11.4758,0.0,0.0,0.0,0.0,0.0,0.0,11.4678,11.4678,0.0,0.0,0.0,0.0,0.0,0.0,0.0,0.0,0.0,0.0,0.0,0.0,0.0,0.0,0.0,0.0,0.0,0.0,0.0,0.0,0.0,0.0,0.0,0.0,0.0,0.0,0.0,0.0,0.0,0.0,0.0,0.0,0.0,0.0,0.0,0.0,0.0,0.0,0.0,0.0,0.0,0.0,0.0,0.0,0.0,0.0,0.0,0.0,0.0,0.0,0.0,0.0,0.0,0.0,0.0,13.0094,13.2838,13.5696,13.8584,13.7861,13.7,13.6003,13.2296,12.8608,12.5121,0.0,0.0,0.0,0.0,0.0,0.0,0.0,0.0,0.0,0.0,0.0,0.0,0.0,0.0,0.0,0.0,0.0,0.0,0.0,0.0,0.0,0.0,0.0,0.0,0.0,0.0,0.0,0.0,0.0,0.0,0.0,0.0,0.0,0.0,0.0,0.0,0.0,0.0,0.0,11.0874,11.2348,0.0,0.0,0.0,0.0,0.0,0.0,0.0,0.0,11.4391,0.0,0.0,0.0,0.0,0.0,0.0,0.0,0.0,0.0,0.0,0.0,0.0,0.0,0.0,0.0,0.0,0.0,0.0,0.0,0.0,0.0,0.0,0.0,0.0,0.0,0.0,0.0,0.0,0.0,0.0,0.0,0.0,0.0,0.0,0.0,0.0,0.0,0.0,0.0,0.0,0.0,0.0,0.0,0.0,0.0,0.0,0.0,0.0,0.0,0.0,0.0,0.0,0.0,0.0,0.0,0.0,13.2632,13.4988,13.4988,13.658,13.5992,13.312,13.1223,12.7669,12.2322,0.0,0.0,0.0,0.0,0.0,0.0,0.0,0.0,0.0,0.0,0.0,0.0,0.0,0.0,0.0,0.0,0.0,0.0,0.0,0.0,0.0,0.0,0.0,0.0,0.0,0.0,0.0,0.0,0.0,0.0,0.0,0.0,0.0,0.0,0.0,0.0,0.0,0.0,10.6568,10.7841,0.0,0.0,0.0,0.0,0.0,0.0,0.0,0.0,11.2879,0.0,0.0,0.0,0.0,0.0,0.0,0.0,0.0,0.0,0.0,0.0,0.0,0.0,0.0,0.0,0.0,0.0,0.0,0.0,0.0,0.0,0.0,0.0,0.0,0.0,0.0,0.0,0.0,0.0,0.0,0.0,0.0,0.0,0.0,0.0,0.0,0.0,0.0,0.0,0.0,0.0,0.0,0.0,0.0,0.0,0.0,0.0,0.0,0.0,0.0,0.0,0.0,0.0,0.0,0.0,0.0,0.0,0.0,13.21,13.4326,13.4303,13.374,13.262,12.8786,12.4652,0.0,0.0,0.0,0.0,0.0,0.0,0.0,0.0,0.0,0.0,0.0,0.0,0.0,0.0,0.0,0.0,0.0,0.0,0.0,0.0,0.0,0.0,0.0,0.0,0.0,0.0,0.0,0.0,0.0,0.0,0.0,0.0,0.0,0.0,0.0,0.0,0.0,0.0,0.0,0.0,0.0,0.0,0.0,0.0,0.0,0.0,0.0,0.0,0.0,0.0,0.0,0.0,0.0,0.0,0.0,0.0,0.0,0.0,0.0,0.0,0.0,0.0,0.0,0.0,0.0,0.0,0.0,0.0,0.0,0.0,0.0,0.0,0.0,0.0,0.0,0.0,0.0,0.0,0.0,0.0,0.0,0.0,0.0,0.0,0.0,0.0,0.0,0.0,0.0,0.0,0.0,0.0,0.0,0.0,0.0,0.0,0.0,0.0,0.0,0.0,0.0,0.0,0.0,0.0,0.0,0.0,0.0,0.0,12.9439,13.322,13.1858,13.1191,13.1557,12.6289,12.1863,0.0,0.0,0.0,0.0,0.0,0.0,0.0,0.0,0.0,0.0,0.0,0.0,0.0,0.0,0.0,0.0,0.0,0.0,0.0,0.0,0.0,0.0,0.0,0.0,0.0,0.0,0.0,0.0,0.0,0.0,0.0,0.0,0.0,0.0,0.0,0.0,0.0,0.0,0.0,0.0,0.0,0.0,0.0,0.0,0.0,0.0,0.0,0.0,11.0409,0.0,0.0,0.0,0.0,0.0,0.0,0.0,0.0,0.0,0.0,0.0,0.0,0.0,0.0,0.0,0.0,0.0,0.0,0.0,0.0,0.0,0.0,0.0,0.0,0.0,0.0,0.0,0.0,0.0,0.0,0.0,0.0,0.0,0.0,0.0,0.0,0.0,0.0,0.0,0.0,0.0,0.0,0.0,0.0,0.0,0.0,0.0,0.0,0.0,0.0,0.0,0.0,0.0,0.0,0.0,0.0,0.0,0.0,0.0,12.8499,12.9172,12.9596,12.8941,12.7026,12.4123,12.0579,0.0,0.0,0.0,0.0,0.0,0.0,0.0,0.0,0.0,0.0,0.0,0.0,0.0,0.0,0.0,0.0,0.0,0.0,0.0,0.0,0.0,0.0,0.0,0.0,0.0,0.0,0.0,0.0,0.0,0.0,0.0,0.0,0.0,0.0,0.0,0.0,0.0,0.0,0.0,0.0,0.0,0.0,0.0,0.0,0.0,0.0,0.0,0.0,0.0,0.0,0.0,0.0,0.0,0.0,0.0,0.0,0.0,0.0,0.0,0.0,0.0,0.0,0.0,0.0,0.0,0.0,0.0,0.0,0.0,0.0,0.0,0.0,0.0,0.0,0.0,0.0,0.0,0.0,0.0,0.0,0.0,0.0,0.0,0.0,0.0,0.0,0.0,0.0,0.0,0.0,0.0,0.0,0.0,0.0,0.0,0.0,0.0,0.0,0.0,0.0,0.0,0.0,0.0,0.0,0.0,0.0,0.0,0.0,12.5545,12.8031,12.7635,12.6123,12.3473,12.034,11.7771,0.0,0.0,0.0,0.0,0.0,0.0,0.0,0.0,0.0,0.0,0.0,0.0,0.0,0.0,0.0,0.0,0.0,0.0,0.0,0.0,0.0,0.0,0.0,0.0,0.0,0.0,0.0,0.0,0.0,0.0,0.0,0.0,0.0,0.0,0.0,0.0,0.0,0.0,0.0,0.0,0.0,0.0,0.0,0.0,0.0,0.0,0.0,0.0,0.0,0.0,0.0,0.0,0.0,0.0,0.0,0.0,0.0,0.0,0.0,0.0,0.0,0.0,0.0,0.0,0.0,0.0,0.0,0.0,0.0,0.0,0.0,0.0,0.0,0.0,0.0,0.0,0.0,0.0,0.0,0.0,0.0,0.0,0.0,0.0,0.0,0.0,0.0,0.0,0.0,0.0,0.0,0.0,0.0,0.0,0.0,0.0,0.0,0.0,0.0,0.0,0.0,0.0,0.0,0.0,0.0,0.0,0.0,0.0,0.0,12.6363,12.5215,12.3181,12.0405,11.7751,11.5703,0.0,0.0,0.0,0.0,0.0,0.0,0.0,0.0,0.0,0.0,0.0,0.0,0.0,0.0,0.0,0.0,0.0,0.0,0.0,0.0,0.0,0.0,0.0,0.0,0.0,0.0,0.0,0.0,0.0,0.0,0.0,0.0,0.0,0.0,0.0,0.0,0.0,0.0,0.0,0.0,0.0,0.0,0.0,0.0,0.0,0.0,0.0,0.0,0.0,0.0,0.0,0.0,0.0,0.0,0.0,0.0,0.0,0.0,0.0,0.0,0.0,0.0,0.0,0.0,0.0,0.0,0.0,0.0,0.0,0.0,0.0,0.0,0.0,0.0,0.0,0.0,0.0,0.0,0.0,0.0,0.0,0.0,0.0,0.0,0.0,0.0,0.0,0.0,0.0,0.0,0.0,0.0,0.0,0.0,0.0,0.0,0.0,0.0,0.0,0.0,0.0,0.0,0.0,0.0,0.0,0.0,0.0,0.0,0.0,12.3428,12.1952,12.0116,11.8006,11.7491,11.5133,0.0,0.0,0.0,0.0,0.0,0.0,0.0,0.0,0.0,0.0,0.0,0.0,0.0,0.0,0.0,0.0,0.0,0.0,0.0,0.0,0.0,0.0,0.0,0.0,0.0,0.0,0.0,0.0,0.0,0.0,0.0,0.0,0.0,0.0,0.0,0.0,0.0,0.0,0.0,0.0,0.0,0.0,0.0,0.0,0.0,0.0,0.0,0.0,0.0,0.0,0.0,0.0,0.0,0.0,0.0,0.0,0.0,0.0,0.0,0.0,0.0,0.0,0.0,0.0,0.0,0.0,0.0,0.0,0.0,0.0,0.0,0.0,0.0,0.0,0.0,0.0,0.0,0.0,0.0,0.0,0.0,0.0,0.0,0.0,0.0,0.0,0.0,0.0,0.0,0.0,0.0,0.0,0.0,0.0,0.0,0.0,0.0,0.0,0.0,0.0,0.0,0.0,0.0,0.0,0.0,0.0,0.0,0.0,0.0,11.9549,11.7847,11.674,11.633,11.4233,11.2142,11.0082,0.0,0.0,0.0,0.0,0.0,0.0,0.0,0.0,0.0,0.0,0.0,0.0,0.0,0.0,0.0,0.0,0.0,0.0,0.0,0.0,0.0,0.0,0.0,0.0,0.0,0.0,0.0,0.0,0.0,0.0,0.0,0.0,0.0,0.0,0.0,0.0,0.0,0.0,0.0,0.0,0.0,0.0,0.0,0.0,0.0,0.0,0.0,0.0,0.0,0.0,0.0,0.0,0.0,0.0,0.0,0.0,0.0,0.0,0.0,0.0,0.0,0.0,0.0,0.0,0.0,0.0,0.0,0.0,0.0,0.0,0.0,0.0,0.0,0.0,0.0,0.0,0.0,0.0,0.0,0.0,0.0,0.0,0.0,0.0,0.0,0.0,0.0,0.0,0.0,0.0,0.0,0.0,0.0,0.0,0.0,0.0,0.0,0.0,0.0,0.0,0.0,0.0,0.0,0.0,0.0,0.0,0.0,0.0,11.6046,11.5166,11.451,11.4134,11.196,11.0038,0.0,0.0,0.0,0.0,0.0,0.0,0.0,0.0,0.0,0.0,0.0,0.0,0.0,0.0,0.0,0.0,0.0,0.0,0.0,0.0,0.0,0.0,0.0,0.0,0.0,0.0,0.0,0.0,0.0,0.0,0.0,0.0,0.0,0.0,0.0,0.0,0.0,0.0,0.0,0.0,0.0,0.0,0.0,0.0,0.0,0.0,0.0,0.0,0.0,0.0,0.0,0.0,0.0,0.0,0.0,0.0,0.0,0.0,0.0,0.0,0.0,0.0,0.0,0.0,0.0,0.0,0.0,0.0,0.0,0.0,0.0,0.0,0.0,0.0,0.0,0.0,0.0,0.0,0.0,0.0,0.0,0.0,0.0,0.0,0.0,0.0,0.0,0.0,0.0,0.0,0.0,0.0,0.0,0.0,0.0,0.0,0.0,0.0,0.0,0.0,0.0,0.0,0.0,0.0,0.0,0.0,0.0,0.0,11.2191,11.3167,11.434,11.3768,11.1546,11.1074,10.9277,0.0,0.0,0.0,0.0,0.0,0.0,0.0,0.0,0.0,0.0,0.0,0.0,0.0,0.0,0.0,0.0,0.0,0.0,0.0,0.0,0.0,0.0,0.0,0.0,0.0,0.0,0.0,0.0,0.0,0.0,0.0,0.0,0.0,0.0,0.0,0.0,0.0,0.0,0.0,0.0,0.0,0.0,0.0,0.0,0.0,0.0,0.0,0.0,0.0,0.0,0.0,0.0,0.0,0.0,0.0,0.0,0.0,0.0,0.0,0.0,0.0,0.0,0.0,0.0,0.0,0.0,0.0,0.0,0.0,0.0,0.0,0.0,0.0,0.0,0.0,0.0,0.0,0.0,0.0,0.0,0.0,0.0,0.0,0.0,0.0,0.0,0.0,0.0,0.0,0.0,0.0,0.0,0.0,0.0,0.0,0.0,0.0,0.0,0.0,0.0,0.0,0.0,0.0,0.0,0.0,0.0,0.0,0.0,0.0,11.1261,0.0,11.1306,0.0,10.9815,10.7952,0.0,0.0,0.0,0.0,0.0,0.0,0.0,0.0,0.0,0.0,0.0,0.0,0.0,0.0,0.0,0.0,0.0,0.0,0.0,0.0,0.0,0.0,0.0,0.0,0.0,0.0,0.0,0.0,0.0,0.0,0.0,0.0,0.0,0.0,0.0,0.0,0.0,0.0,0.0,0.0,0.0,0.0,0.0,0.0,0.0,0.0,0.0,0.0,0.0,0.0,0.0,0.0,0.0,0.0,0.0,0.0,0.0,0.0,0.0,0.0,0.0,0.0,0.0,0.0,0.0,0.0,0.0,0.0,0.0,0.0,0.0,0.0,0.0,0.0,0.0,0.0,0.0,0.0,0.0,0.0,0.0,0.0,0.0,0.0,0.0,0.0,0.0,0.0,0.0,0.0,0.0,0.0,0.0,0.0,0.0,0.0,0.0,0.0,0.0,0.0,0.0,0.0,0.0,0.0,0.0,0.0,0.0,0.0,0.0,11.0409,10.9995,10.9924,11.0066,10.8905,10.7318,0.0,0.0,0.0,0.0,0.0,0.0,0.0,0.0,0.0,0.0,0.0,0.0,0.0,0.0,0.0,0.0,0.0,0.0,0.0,0.0,0.0,0.0,0.0,0.0,0.0,0.0,0.0,0.0,0.0,0.0,0.0,0.0,0.0,0.0,0.0,0.0,0.0,0.0,0.0,0.0,0.0,0.0,0.0,0.0,0.0,0.0,0.0,0.0,0.0,0.0,0.0,0.0,0.0,0.0,0.0,0.0,0.0,0.0,0.0,0.0,0.0,0.0,0.0,0.0,0.0,0.0,0.0,0.0,0.0,0.0,0.0,0.0,0.0,0.0,0.0,0.0,0.0,0.0,0.0,0.0,0.0,0.0,0.0,0.0,0.0,0.0,0.0,0.0,0.0,0.0,0.0,0.0,0.0,0.0,0.0,0.0,0.0,0.0,0.0,0.0,0.0,0.0,0.0,0.0,0.0,0.0,0.0,0.0,0.0,0.0,11.0086,10.9546,10.8703,10.8397,10.7193,0.0,0.0,0.0,0.0,0.0,0.0,0.0,0.0,0.0,0.0,0.0,0.0,0.0,0.0,0.0,0.0,0.0,0.0,0.0,0.0,0.0,0.0,0.0,0.0,0.0,0.0,0.0,0.0,0.0,0.0,0.0,0.0,0.0,0.0,0.0,0.0,0.0,0.0,0.0,0.0,0.0,0.0,0.0,0.0,0.0,0.0,0.0,0.0,0.0,0.0,0.0,0.0,0.0,0.0,0.0,0.0,0.0,0.0,0.0,0.0,0.0,0.0,0.0,0.0,0.0,0.0,0.0,0.0,0.0,0.0,0.0,0.0,0.0,0.0,0.0,0.0,0.0,0.0,0.0,0.0,0.0,0.0,0.0,0.0,0.0,0.0,0.0,0.0,0.0,0.0,0.0,0.0,0.0,0.0,0.0,0.0,0.0,0.0,0.0,0.0,0.0,0.0,0.0,0.0,0.0,0.0,0.0,0.0,0.0,0.0,10.9059,0.0,10.8411,10.7901,10.6162,10.3278,0.0,0.0,0.0,0.0,0.0,0.0,0.0,0.0,0.0,0.0,0.0,0.0,0.0,0.0,0.0,0.0,0.0,0.0,0.0,0.0,0.0,0.0,0.0,0.0,0.0,0.0,0.0,0.0,0.0,0.0,0.0,0.0,0.0,0.0,0.0,0.0,0.0,0.0,0.0,0.0,0.0,0.0,0.0,0.0,0.0,0.0,0.0,0.0,0.0,0.0,0.0,0.0,0.0,0.0,0.0,0.0,0.0,0.0,0.0,0.0,0.0,0.0,0.0,0.0,0.0,0.0,0.0,0.0,0.0,0.0,0.0,0.0,0.0,0.0,0.0,0.0,0.0,0.0,0.0,0.0,0.0,0.0,0.0,0.0,0.0,0.0,0.0,0.0,0.0,0.0,0.0,0.0,0.0,0.0,0.0,0.0,0.0,0.0,0.0,0.0,0.0,0.0,0.0,0.0,0.0,0.0,0.0,0.0,0.0,0.0,0.0,10.8256,10.7632,10.5955,0.0,0.0,0.0,0.0,0.0,0.0,0.0,0.0,0.0,0.0,0.0,0.0,0.0,0.0,0.0,0.0,0.0,0.0,0.0,0.0,0.0,0.0,0.0,0.0,0.0,0.0,0.0,0.0,0.0,0.0,0.0,0.0,0.0,0.0,0.0,0.0,0.0,0.0,0.0,0.0,0.0,0.0,0.0,0.0,0.0,0.0,0.0,0.0,0.0,0.0,0.0,0.0,0.0,0.0,0.0,0.0,0.0,0.0,0.0,0.0,0.0,0.0,0.0,0.0,0.0,0.0,0.0,0.0,0.0,0.0,0.0,0.0,0.0,0.0,0.0,0.0,0.0,0.0,0.0,0.0,0.0,0.0,0.0,0.0,0.0,0.0,0.0,0.0,0.0,0.0,0.0,0.0,0.0,0.0,0.0,0.0,0.0,0.0,0.0,0.0,0.0,0.0,0.0,0.0,0.0,0.0,0.0,0.0,0.0,0.0,0.0,10.8228,10.8228,10.7646,0.0,10.4499,0.0,0.0,0.0,0.0,0.0,0.0,0.0,0.0,0.0,0.0,0.0,0.0,0.0,0.0,0.0,0.0,0.0,0.0,0.0,0.0,0.0,0.0,0.0,0.0,0.0,0.0,0.0,0.0,0.0,0.0,0.0,0.0,0.0,0.0,0.0,0.0,0.0,0.0,0.0,0.0,0.0,0.0,0.0,0.0,0.0,0.0,0.0,0.0,0.0,0.0,0.0,0.0,0.0,0.0,0.0,0.0,0.0,0.0,0.0,0.0,0.0,0.0,0.0,0.0,0.0,0.0,0.0,0.0,0.0,0.0,0.0,0.0,0.0,0.0,0.0,0.0,0.0,0.0,0.0,0.0,0.0,0.0,0.0,0.0,0.0,0.0,0.0,0.0,0.0,0.0,0.0,0.0,0.0,0.0,0.0,0.0,0.0,0.0,0.0,0.0,0.0,0.0,0.0,0.0,0.0,0.0,0.0,0.0,0.0,0.0,0.0,0.0,10.7855,10.7289,10.6295,0.0,0.0,0.0,0.0,0.0,0.0,0.0,0.0,0.0,0.0,0.0,0.0,0.0,0.0,0.0,0.0,0.0,0.0,0.0,0.0,0.0,0.0,0.0,0.0,0.0,0.0,0.0,0.0,0.0,0.0,0.0,0.0,0.0,0.0,0.0,0.0,0.0,0.0,0.0,0.0,0.0,0.0,0.0,0.0,0.0,0.0,0.0,0.0,0.0,0.0,0.0,0.0,0.0,0.0,0.0,0.0,0.0,0.0,0.0,0.0,0.0,0.0,0.0,0.0,0.0,0.0,0.0,0.0,0.0,0.0,0.0,0.0,0.0,0.0,0.0,0.0,0.0,0.0,0.0,0.0,0.0,0.0,0.0,0.0,0.0,0.0,0.0,0.0,0.0,0.0,0.0,0.0,0.0,0.0,0.0,0.0,0.0,0.0,0.0,0.0,0.0,0.0,0.0,0.0,0.0,0.0,0.0,0.0,0.0,0.0,10.8084,10.8084,10.7955,10.7269,10.5939,0.0,0.0,0.0,0.0,0.0,0.0,0.0,0.0,0.0,0.0,0.0,0.0,0.0,0.0,0.0,0.0,0.0,0.0,0.0,0.0,0.0,0.0,0.0,0.0,0.0,0.0,0.0,0.0,0.0,0.0,0.0,0.0,0.0,0.0,0.0,0.0,0.0,0.0,0.0,0.0,0.0,0.0,0.0,0.0,0.0,0.0,0.0,0.0,0.0,0.0,0.0,0.0,0.0,0.0,0.0,0.0,0.0,0.0,0.0,0.0,0.0,0.0,0.0,0.0,0.0,0.0,0.0,0.0,0.0,0.0,0.0,0.0,0.0,0.0,0.0,0.0,0.0,0.0,0.0,0.0,0.0,0.0,0.0,0.0,0.0,0.0,0.0,0.0,0.0,0.0,0.0,0.0,0.0,0.0,0.0,0.0,0.0,0.0,0.0,0.0,0.0,0.0,0.0,0.0,0.0,0.0,0.0,0.0,0.0,0.0,0.0,0.0,0.0,0.0,10.4919,0.0,0.0,0.0,0.0,0.0,0.0,0.0,0.0,0.0,0.0,0.0,0.0,0.0,0.0,0.0,0.0,0.0,0.0,0.0,0.0,0.0,0.0,0.0,0.0,0.0,0.0,0.0,0.0,0.0,0.0,0.0,0.0,0.0,0.0,0.0,0.0,0.0,0.0,0.0,0.0,0.0,0.0,0.0,0.0,0.0,0.0,0.0,0.0,0.0,0.0,0.0,0.0,0.0,0.0,0.0,0.0,0.0,0.0,0.0,0.0,0.0,0.0,0.0,0.0,0.0,0.0,0.0,0.0,0.0,0.0,0.0,0.0,0.0,0.0,0.0,0.0,0.0,0.0,0.0,0.0,0.0,0.0,0.0,0.0,0.0,0.0,0.0,0.0,0.0,0.0,0.0,0.0,0.0,0.0,0.0,0.0,0.0,0.0,0.0,0.0,0.0,0.0,0.0,0.0,0.0,0.0,0.0,0.0,0.0,0.0,0.0,0.0,0.0,0.0,0.0,0.0,0.0,0.0,0.0,0.0,0.0,0.0,0.0,0.0,0.0,0.0,0.0,0.0,0.0,0.0,0.0,0.0,0.0,0.0,0.0,0.0,0.0,0.0,0.0,0.0,0.0,0.0,0.0,0.0,0.0,0.0,0.0,0.0,0.0,0.0,0.0,0.0,0.0,0.0,0.0,0.0,0.0,0.0,0.0,0.0,0.0,0.0,0.0,0.0,0.0,0.0,0.0,0.0,0.0,0.0,0.0,0.0,0.0,0.0,0.0,0.0,0.0,0.0,0.0,0.0,0.0,0.0,0.0,0.0,0.0,0.0,0.0,0.0,0.0,0.0,0.0,0.0,0.0,0.0,0.0,0.0,0.0,0.0,0.0,0.0,0.0,0.0,0.0,0.0,0.0,0.0,0.0,0.0,0.0,0.0,0.0,0.0,0.0,0.0,0.0,0.0,0.0,0.0,0.0,0.0,0.0,0.0,0.0,0.0,0.0,0.0,0.0,0.0,0.0,0.0,0.0,0.0,0.0,0.0,0.0,0.0,0.0,0.0,0.0,0.0,0.0,0.0,0.0,0.0,0.0,0.0,0.0,0.0,0.0,0.0,0.0,0.0,0.0,0.0,0.0,0.0,0.0,0.0,0.0,0.0,0.0,0.0,0.0,0.0,0.0,0.0,0.0,0.0,0.0,0.0,0.0,0.0,0.0,0.0,0.0,0.0,0.0,0.0,0.0,0.0,0.0,0.0,0.0,0.0,0.0,0.0,0.0,0.0,0.0,0.0,0.0,0.0,0.0,0.0,0.0,0.0,0.0,0.0,0.0,0.0,0.0,0.0,0.0,0.0,0.0,0.0,0.0,0.0,0.0,0.0,0.0,0.0,0.0,0.0,0.0,0.0,0.0,0.0,0.0,0.0,0.0,0.0,0.0,0.0,0.0,0.0,0.0,0.0,0.0,0.0,0.0,0.0,0.0,0.0,0.0,0.0,0.0,0.0,0.0,0.0,0.0,0.0,0.0,0.0,0.0,0.0,0.0,0.0,0.0,0.0,0.0,0.0,0.0,0.0,0.0,0.0,0.0,0.0,0.0,0.0,0.0,0.0,0.0,0.0,0.0,0.0,0.0,0.0,0.0,0.0,0.0,0.0,0.0,0.0,0.0,0.0,0.0,0.0,0.0,0.0,0.0,0.0,0.0,0.0,0.0,0.0,0.0,0.0,0.0,0.0,0.0,0.0,0.0,0.0,0.0,0.0,0.0,0.0,0.0,0.0,0.0,0.0,0.0,0.0,0.0,0.0,0.0,0.0,0.0,0.0,0.0,0.0,0.0,0.0,0.0,0.0,0.0,0.0,0.0,0.0,0.0,0.0,0.0,0.0,0.0,0.0,0.0,0.0,0.0,0.0,0.0,0.0,0.0,0.0,0.0,0.0,0.0,0.0,0.0,0.0,0.0,0.0,0.0,0.0,0.0,0.0,0.0,0.0,0.0,0.0,0.0,0.0,0.0,0.0,0.0,0.0,0.0,0.0,0.0,0.0,0.0,0.0,0.0,0.0,0.0,0.0,0.0,0.0,0.0,0.0,0.0,0.0,0.0,0.0,0.0,0.0,0.0,0.0,0.0,0.0,0.0,0.0,0.0,0.0,0.0,0.0,0.0,0.0,0.0,0.0,0.0,0.0,0.0,0.0,0.0,0.0,0.0,0.0,0.0,0.0,0.0,0.0,0.0,0.0,0.0,0.0,0.0,0.0,0.0,0.0,0.0,0.0,0.0,0.0,0.0,0.0,0.0,0.0,0.0,0.0,0.0,0.0,0.0,0.0,0.0,0.0,0.0,0.0,0.0,0.0,0.0,0.0,0.0,0.0,0.0,0.0,0.0,0.0,0.0,0.0,0.0,0.0,0.0,0.0,0.0,0.0,0.0,0.0,0.0,0.0,0.0,0.0,0.0,0.0,0.0,0.0,0.0,0.0,0.0,0.0,0.0,0.0,0.0,0.0,0.0,0.0,0.0,0.0,0.0,0.0,0.0,0.0,0.0,0.0,0.0,0.0,0.0,0.0,0.0,0.0,0.0,0.0,0.0,0.0,0.0,0.0,0.0,0.0,0.0,0.0,0.0,0.0,0.0,0.0,0.0,0.0,0.0,0.0,0.0,0.0,0.0,0.0,0.0,0.0,0.0,0.0,0.0,0.0,0.0,0.0,0.0,0.0,0.0,0.0,0.0,0.0,0.0,0.0,0.0,0.0,0.0,0.0,0.0,0.0,0.0,0.0,0.0,0.0,0.0,0.0,0.0,0.0,0.0,0.0,0.0,0.0,0.0,0.0,0.0,0.0,0.0,0.0,0.0,0.0,0.0,0.0,0.0,0.0,0.0,0.0,0.0,0.0,0.0,0.0,0.0,0.0,0.0,0.0,0.0,0.0,0.0,0.0,0.0,0.0,0.0,0.0,0.0,0.0,0.0,0.0,0.0,0.0,0.0,0.0,0.0,0.0,0.0,0.0,0.0,0.0,0.0,0.0,0.0,0.0,0.0,0.0,0.0,0.0,0.0,0.0,0.0,0.0,0.0,0.0,0.0,0.0,0.0,0.0,0.0,0.0,0.0,0.0,0.0,0.0,0.0,0.0,0.0,0.0,0.0,0.0,0.0,0.0,0.0,0.0,0.0,0.0,0.0,0.0,0.0,0.0,0.0,0.0,0.0,0.0,0.0,0.0,0.0,0.0,0.0,0.0,0.0,0.0,0.0,0.0,0.0,0.0,0.0,0.0,0.0,0.0,0.0,0.0,0.0,0.0,0.0,0.0,0.0,0.0,0.0,0.0,0.0,0.0,0.0,0.0,0.0,0.0,0.0,0.0,0.0,0.0,0.0,0.0,0.0,0.0,0.0,0.0,0.0,0.0,0.0,0.0,0.0,0.0,0.0,0.0,0.0,0.0,0.0,0.0,0.0,0.0,0.0,0.0,0.0,0.0,0.0,0.0,0.0,0.0,0.0,0.0,0.0,0.0,0.0,0.0,0.0,0.0,0.0,0.0,0.0,0.0,0.0,0.0,0.0,0.0,0.0,0.0,0.0,0.0,0.0,0.0,0.0,0.0,0.0,0.0,0.0,0.0,0.0,0.0,0.0,0.0,0.0,0.0,0.0,0.0,0.0,0.0,0.0,0.0,0.0,0.0,0.0,0.0,0.0,0.0,0.0,0.0,0.0,0.0,0.0,0.0,0.0,0.0,0.0,0.0,0.0,0.0,0.0,0.0,0.0,0.0,0.0,0.0,0.0,0.0,0.0,0.0,0.0,0.0,0.0,0.0,0.0,0.0,0.0,0.0,0.0,0.0,0.0,0.0,0.0,0.0,0.0,0.0,0.0,0.0,0.0,0.0,0.0,0.0,0.0,0.0,0.0,0.0,0.0,0.0,0.0,0.0,0.0,0.0,0.0,0.0,0.0,0.0,0.0,0.0,0.0,0.0,0.0,0.0,0.0,0.0,0.0,0.0,0.0,0.0,0.0,0.0,0.0,0.0,0.0,0.0,0.0,0.0,0.0,0.0,0.0,0.0,0.0,0.0,0.0,0.0,0.0,0.0,0.0,0.0,0.0,0.0,0.0,0.0,0.0,0.0,0.0,0.0,0.0,0.0,0.0,0.0,0.0,0.0,0.0,0.0,0.0,0.0,0.0,0.0,0.0,0.0,0.0,0.0,0.0,0.0,0.0,0.0,0.0,0.0,0.0,0.0,0.0,0.0,0.0,0.0,0.0,0.0,0.0,0.0,0.0,0.0,0.0,0.0,0.0,0.0,0.0,0.0,0.0,0.0,0.0,0.0,0.0,0.0,0.0,0.0,0.0,0.0,0.0,0.0,0.0,0.0,0.0,0.0]}],[{"header":{"parameterUnit":"kt","parameterCategory":2,"dx":1,"dy":1,"la1":29.587661999999998,"la2":31.0,"lo1":-88.76705300000003,"lo2":-86.6583820000003,"nx":115,"ny":88,"refTime":"2022-09-27T06:00:00:Z","depth":0,"parameterNumber":2,"parameterNumberName":"V-component_of_WINDS"},"data":[13.4914,13.4914,13.4914,13.5446,13.6085,13.5428,13.5425,13.5696,13.4113,13.3295,13.2786,13.2099,13.1079,12.9303,12.9303,12.935,12.949,12.9397,12.9303,12.9303,12.9303,12.9303,12.9303,12.9303,12.9303,12.9303,12.9303,12.9303,12.9303,12.9303,12.9303,12.9303,12.9303,12.9303,12.9303,12.9303,12.9303,12.9303,12.9303,12.9303,12.9303,12.9303,12.9303,12.9303,12.9303,12.9303,12.9303,12.9303,12.9303,12.9303,12.9303,12.9303,12.9348,12.9393,12.9484,12.9707,12.9977,13.0336,13.0694,13.132,13.1722,13.1855,13.2526,13.2836,13.2969,13.3235,13.3368,13.3721,13.35,13.2526,13.1814,13.1142,13.065,13.0111,12.9889,12.9484,12.9303,12.9303,12.9303,12.9303,12.9303,12.9303,12.9303,12.9303,12.9303,12.9303,12.9303,12.9303,12.9303,12.9303,12.9303,12.9303,12.9303,12.9303,12.9303,12.9303,12.9303,12.9303,12.9303,12.9303,12.9303,12.9303,12.9303,12.9303,12.9303,12.9303,12.9303,12.9303,12.9303,12.9303,12.9303,12.9303,12.9303,12.9303,12.9303,13.4914,13.4914,13.4914,13.5012,13.5109,13.4977,13.4639,13.3943,13.2916,13.193,13.1354,13.1084,13.0261,12.9529,12.9303,12.9303,12.9303,12.9303,12.9303,12.9303,12.9303,12.9303,12.9303,12.9303,12.9303,12.9303,12.9303,12.9303,12.9303,12.9303,12.9303,12.9303,12.9303,12.9303,12.9303,12.9303,12.9303,12.9303,12.9303,12.9303,12.9303,12.9303,12.9303,12.9303,12.9303,12.9303,12.9303,12.9303,12.9303,12.9303,12.9303,12.9303,12.9303,12.9303,12.9303,12.9303,12.9527,12.9572,12.9707,13.0381,13.065,13.1052,13.1811,13.2215,13.2259,13.2348,13.2304,13.2345,13.2345,13.1855,13.1142,13.0515,13.0067,12.9617,12.9529,12.9303,12.9303,12.9303,12.9303,12.9303,12.9303,12.9303,12.9303,12.9303,12.9303,12.9303,12.9303,12.9303,12.9303,12.9303,12.9303,12.9303,12.9303,12.9303,12.9303,12.9303,12.9303,12.9303,12.9303,12.9303,12.9303,12.9303,12.9303,12.9303,12.9303,12.9303,12.9303,12.9303,12.9303,12.9303,12.9303,12.9303,12.9303,12.9303,12.9303,13.4914,13.4914,13.4914,13.4914,13.4914,13.4914,13.4695,13.4167,13.3372,13.2393,13.1499,13.0829,13.0111,12.9348,12.9303,12.9303,12.9303,12.9303,12.9303,12.9303,12.9303,12.9303,12.9303,12.9303,12.9303,12.9303,12.9303,12.9303,12.9303,12.9303,12.9303,12.9303,12.9303,12.9303,12.9303,12.9303,12.9303,12.9303,12.9303,12.9303,12.9303,12.9303,12.9303,12.9303,12.9303,12.9303,12.9303,12.9303,12.9303,12.9303,12.9303,12.9303,12.9303,12.9303,12.9303,12.9303,12.9303,12.9303,12.9347,12.9572,12.9842,12.9887,13.0428,13.1052,13.1142,13.0966,13.0921,13.0873,13.0873,13.0918,13.0201,13.0022,12.9617,12.9484,12.9348,12.9303,12.9303,12.9303,12.9303,12.9303,12.9303,12.9303,12.9303,12.9303,12.9303,12.9303,12.9303,12.9303,12.9303,12.9303,12.9303,12.9303,12.9303,12.9303,12.9303,12.9303,12.9303,12.9303,12.9303,12.9303,12.9303,12.9303,12.9303,12.9303,12.9303,12.9303,12.9303,12.9303,12.9303,12.9303,12.9303,12.9303,12.9303,12.9303,12.9211,13.4914,13.4914,13.4914,13.4914,13.4914,13.4914,13.4914,13.487,13.4122,13.3239,13.2215,13.132,13.0426,12.9438,12.9303,12.9303,12.9303,12.9303,12.9303,12.9303,12.9303,12.9303,12.9303,12.9303,12.9303,12.9303,12.9303,12.9303,12.9303,12.9303,12.9303,12.9303,12.9303,12.9303,12.9303,12.9303,12.9303,12.9303,12.9303,12.9303,12.9303,12.9303,12.9303,12.9303,12.9303,12.9303,12.9303,12.9303,12.9303,12.9303,12.9303,12.9303,12.9303,12.9303,12.9303,12.9303,12.9303,12.9303,12.9302,12.9347,12.9392,12.9393,12.9484,12.9752,12.9797,12.9529,12.9393,12.9393,12.9393,12.9438,12.9302,12.9347,12.9303,12.9303,12.9303,12.9303,12.9303,12.9303,12.9303,12.9303,12.9303,12.9303,12.9303,12.9303,12.9303,12.9303,12.9303,12.9303,12.9303,12.9303,12.9303,12.9303,12.9303,12.9303,12.9303,12.9303,12.9303,12.9303,12.9303,12.9303,12.9303,12.9303,12.9303,12.9303,12.9303,12.9303,12.9303,12.9303,12.9303,12.9303,12.9303,12.9303,12.9303,12.921,12.9118,13.4914,13.487,13.4914,13.4826,13.4914,13.4914,13.4822,13.487,13.4607,13.3765,13.2304,13.2037,13.0876,12.9484,12.9303,12.9303,12.9303,12.9303,12.9303,12.9303,12.9303,12.9303,12.9303,12.9303,12.9303,12.9303,12.9303,12.9303,12.9303,12.9303,12.9303,12.9303,12.9303,12.9303,12.9303,12.9303,12.9303,12.9303,12.9303,12.9303,12.9303,12.9303,12.9303,12.9303,12.9303,12.9303,12.9303,12.9303,12.9303,12.9303,12.9303,12.9303,12.9303,12.9303,12.9303,12.9303,12.9303,12.9303,12.9303,12.9303,12.9303,12.9303,12.9303,12.9392,12.9482,12.9348,12.9303,12.9303,12.9303,12.9303,12.9303,12.9303,12.9303,12.9303,12.9303,12.9303,12.9303,12.9303,12.9303,12.9303,12.9303,12.9303,12.9303,12.9303,12.9303,12.9303,12.9303,12.9303,12.9303,12.9303,12.9303,12.9303,12.9303,12.9303,12.9303,12.9303,12.9303,12.9303,12.9303,12.9303,12.9303,12.9303,12.9303,12.9303,12.9303,12.9303,12.9303,12.9303,12.9303,12.9303,12.9303,12.9303,12.921,12.9163,12.8884,13.4078,13.4078,13.4078,13.4078,13.4167,13.4695,13.4206,13.3368,13.3279,13.2522,13.1276,13.1276,13.0562,12.9393,12.9303,12.9303,12.9303,12.9303,12.9303,12.9303,12.9303,12.9303,12.9303,12.9303,12.9303,12.9303,12.9303,12.9303,12.9303,12.9303,12.9303,12.9303,12.9303,12.9303,12.9303,12.9303,12.9303,12.9303,12.9303,12.9303,12.9303,12.9303,12.9303,12.9303,12.9303,12.9303,12.9303,12.9303,12.9303,12.9303,12.9303,12.9303,12.9303,12.9303,12.9303,12.9303,12.9303,12.9303,12.9303,12.9303,12.9303,12.9303,12.9303,12.9303,12.9303,12.9303,12.9303,12.9303,12.9303,12.9303,12.9303,12.9303,12.9303,12.9303,12.9303,12.9303,12.9303,12.9303,12.9303,12.9303,12.9303,12.9303,12.9303,12.9303,12.9303,12.9303,12.9303,12.9303,12.9303,12.9303,12.9303,12.9303,12.9303,12.9303,12.9303,12.9303,12.9303,12.9303,12.9303,12.9303,12.9303,12.9303,12.9303,12.9303,12.9303,12.9303,12.9303,12.9303,12.9303,12.9303,12.9303,12.921,12.9116,12.8929,12.8323,13.3372,13.315,13.315,13.315,13.3239,13.3809,13.3412,13.2256,13.217,13.1588,13.065,13.065,13.0156,12.9303,12.9303,12.9303,12.9303,12.9303,12.9303,12.9303,12.9303,12.9303,12.9303,12.9303,12.9303,12.9303,12.9303,12.9303,12.9303,12.9303,12.9303,12.9303,12.9303,12.9303,12.9303,12.9303,12.9303,12.9303,12.9303,12.9303,12.9303,12.9303,12.9303,12.9303,12.9303,12.9303,12.9303,12.9303,12.9303,12.9303,12.9303,12.9303,12.9303,12.9303,12.9303,12.9303,12.9303,12.9303,12.9303,12.9303,12.9303,12.9303,12.9303,12.9303,12.9303,12.9303,12.9303,12.9303,12.9303,12.9303,12.9303,12.9303,12.9303,12.9303,12.9303,12.9303,12.9303,12.9303,12.9303,12.9303,12.9303,12.9303,12.9303,12.9303,12.9303,12.9303,12.9303,12.9303,12.9303,12.9303,12.9303,12.9303,12.9303,12.9303,12.9303,12.9303,12.9303,12.9303,12.9303,12.9303,12.9303,12.9303,12.9303,12.9303,12.9303,12.9303,12.9303,12.9303,12.9303,12.9303,12.9118,12.9024,12.8837,12.8323,12.7762,13.2969,13.2304,13.2215,13.2215,13.2167,13.2215,13.2215,13.217,13.2081,13.1502,13.056,13.0515,13.0022,12.9393,12.9303,12.9303,12.9303,12.9303,12.9303,12.9303,12.9303,12.9303,12.9303,12.9303,12.9303,12.9303,12.9303,12.9303,12.9303,12.9303,12.9303,12.9303,12.9303,12.9303,12.9303,12.9303,12.9303,12.9303,12.9303,12.9303,12.9303,12.9303,12.9303,12.9303,12.9303,12.9303,12.9303,12.9303,12.9303,12.9303,12.9303,12.9303,12.9303,12.9303,12.9303,12.9303,12.9303,12.9303,12.9303,12.9303,12.9303,12.9303,12.9303,12.9303,12.9303,12.9303,12.9303,12.9303,12.9303,12.9303,12.9303,12.9303,12.9303,12.9303,12.9303,12.9303,12.9303,12.9303,12.9303,12.9303,12.9303,12.9303,12.9303,12.9303,12.9303,12.9303,12.9303,12.9303,12.9303,12.9303,12.9303,12.9303,12.9303,12.9303,12.9303,12.9303,12.9303,12.9303,12.9303,12.9303,12.9303,12.9303,12.9303,12.9303,12.9303,12.9303,12.9303,12.9303,12.9303,12.9071,12.8978,12.8791,12.8323,12.7809,12.6687,13.141,13.1186,13.1142,13.1142,13.1052,13.0562,13.0293,13.0293,13.0293,13.0111,12.9797,12.9752,12.9574,12.9393,12.9303,12.9303,12.9303,12.9303,12.9303,12.9303,12.9303,12.9303,12.9303,12.9303,12.9303,12.9303,12.9303,12.9303,12.9303,12.9303,12.9303,12.9303,12.9303,12.9303,12.9303,12.9303,12.9303,12.9303,12.9303,12.9303,12.9303,12.9303,12.9303,12.9303,12.9303,12.9303,12.9303,12.9303,12.9303,12.9303,12.9303,12.9303,12.9303,12.9303,12.9303,12.9303,12.9303,12.9303,12.9303,12.9303,12.9303,12.9303,12.9303,12.9303,12.9303,12.9303,12.9303,12.9303,12.9303,12.9303,12.9303,12.9303,12.9303,12.9303,12.9303,12.9303,12.9303,12.9303,12.9303,12.9303,12.9303,12.9303,12.9303,12.9303,12.9303,12.9303,12.9303,12.9303,12.9303,12.9303,12.9303,12.9303,12.9303,12.9303,12.9303,12.9303,12.9303,12.9303,12.9303,12.9303,12.9303,12.9303,12.9303,12.9303,12.9303,12.9303,12.9303,12.9303,12.9303,12.9118,12.8791,12.8276,12.7809,12.6734,12.5474,13.047,13.0156,13.0156,13.0156,13.0067,12.9529,12.9303,12.9303,12.9303,12.9303,12.9303,12.9303,12.9303,12.9303,12.9303,12.9303,12.9303,12.9303,12.9303,12.9303,12.9303,12.9303,12.9303,12.9303,12.9303,12.9303,12.9303,12.9303,12.9303,12.9303,12.9303,12.9303,12.9303,12.9303,12.9303,12.9303,12.9303,12.9303,12.9303,12.9303,12.9303,12.9303,12.9303,12.9303,12.9303,12.9303,12.9303,12.9303,12.9303,12.9303,12.9303,12.9303,12.9303,12.9303,12.9303,12.9303,12.9303,12.9303,12.9303,12.9303,12.9303,12.9303,12.9303,12.9303,12.9303,12.9303,12.9303,12.9303,12.9303,12.9303,12.9303,12.9303,12.9303,12.9303,12.9303,12.9303,12.9303,12.9303,12.9303,12.9303,12.9303,12.9303,12.9303,12.9303,12.9303,12.9303,12.9303,12.9303,12.9303,12.9303,12.9303,12.9303,12.9303,12.9303,12.9303,12.9303,12.9303,12.9303,12.9303,12.9303,12.9303,12.9303,12.9303,12.9303,12.9303,12.9303,12.9303,12.9303,12.9303,12.8931,12.837,12.7856,12.6827,12.5521,12.4493,13.0111,12.9303,12.9303,12.9348,12.9393,12.9303,12.9303,12.9303,12.9303,12.9303,12.9303,12.9303,12.9303,12.9303,12.9303,12.9303,12.9303,12.9303,12.9303,12.9303,12.9303,12.9303,12.9303,12.9303,12.9303,12.9303,12.9303,12.9303,12.9303,12.9303,12.9303,12.9303,12.9303,12.9303,12.9303,12.9303,12.9303,12.9303,12.9303,12.9303,12.9303,12.9303,12.9303,12.9303,12.9303,12.9303,12.9303,12.9303,12.9303,12.9303,12.9303,12.9303,12.9303,12.9303,12.9303,12.9303,12.9303,12.9303,12.9303,12.9303,12.9303,12.9303,12.9303,12.9303,12.9303,12.9303,12.9303,12.9303,12.9303,12.9303,12.9303,12.9303,12.9303,12.9303,12.9303,12.9303,12.9303,12.9303,12.9303,12.9303,12.9303,12.9303,12.9303,12.9303,12.9303,12.9303,12.9303,12.9303,12.9303,12.9303,12.9303,12.9303,12.9303,12.9303,12.9303,12.9303,12.9303,12.9303,12.9303,12.9303,12.9303,12.9303,12.9303,12.9303,12.9303,12.9303,12.9303,12.9256,12.8931,12.865,12.8043,12.7014,12.5568,12.4446,12.3979,13.0114,12.9303,12.9303,12.9303,12.9303,12.9303,12.9303,12.9303,12.9303,12.9303,12.9303,12.9303,12.9303,12.9303,12.9303,12.9303,12.9303,12.9303,12.9303,12.9303,12.9303,12.9303,12.9303,12.9303,12.9303,12.9303,12.9303,12.9303,12.9303,12.9303,12.9303,12.9303,12.9303,12.9303,12.9303,12.9303,12.9303,12.9303,12.9303,12.9303,12.9303,12.9303,12.9303,12.9303,12.9303,12.9303,12.9303,12.9303,12.9303,12.9303,12.9303,12.9303,12.9303,12.9303,12.9303,12.9303,12.9303,12.9303,12.9303,12.9303,12.9303,12.9303,12.9303,12.9303,12.9303,12.9303,12.9303,12.9303,12.9303,12.9303,12.9303,12.9303,12.9303,12.9303,12.9303,12.9303,12.9303,12.9303,12.9303,12.9303,12.9303,12.9303,12.9303,12.9303,12.9303,12.9303,12.9303,12.9303,12.9303,12.9303,12.9303,12.9303,12.9303,12.9303,12.9303,12.9303,12.9303,12.9303,12.9303,12.9303,12.9303,12.9303,12.9303,12.9303,12.9303,12.9303,12.9071,12.8791,12.8557,12.8276,12.725,12.6222,12.4914,12.4119,12.3562,13.0067,12.9303,12.9303,12.9303,12.9303,12.9303,12.9303,12.9303,12.9303,12.9303,12.9303,12.9303,12.9303,12.9303,12.9303,12.9303,12.9303,12.9303,12.9303,12.9303,12.9303,12.9303,12.9303,12.9303,12.9303,12.9303,12.9303,12.9303,12.9303,12.9303,12.9303,12.9303,12.9303,12.9303,12.9303,12.9303,12.9303,12.9303,12.9303,12.9303,12.9303,12.9303,12.9303,12.9303,12.9303,12.9303,12.9303,12.9303,12.9303,12.9303,12.9303,12.9303,12.9303,12.9303,12.9303,12.9303,12.9303,12.9303,12.9303,12.9303,12.9303,12.9303,12.9303,12.9303,12.9303,12.9303,12.9303,12.9303,12.9303,12.9303,12.9303,12.9303,12.9303,12.9303,12.9303,12.9303,12.9303,12.9303,12.9303,12.9303,12.9303,12.9303,12.9303,12.9303,12.9303,12.9303,12.9303,12.9303,12.9303,12.9303,12.9303,12.9303,12.9303,12.9303,12.9303,12.9303,12.9303,12.9303,12.9303,12.9303,12.9303,12.9303,12.9303,12.9303,12.9303,12.9165,12.8931,12.851,12.7902,12.7157,12.6269,12.5381,12.4633,12.3796,12.3422,13.0203,12.9303,12.9303,12.9303,12.9303,12.9303,12.9303,12.9303,12.9303,12.9303,12.9303,12.9303,12.9303,12.9303,12.9303,12.9303,12.9303,12.9303,12.9303,12.9303,12.9303,12.9303,12.9303,12.9303,12.9303,12.9303,12.9303,12.9303,12.9303,12.9303,12.9303,12.9303,12.9303,12.9303,12.9303,12.9303,12.9303,12.9303,12.9303,12.9303,12.9303,12.9303,12.9303,12.9303,12.9303,12.9303,12.9303,12.9303,12.9303,12.9303,12.9303,12.9303,12.9303,12.9303,12.9303,12.9303,12.9303,12.9303,12.9303,12.9303,12.9303,12.9303,12.9303,12.9303,12.9303,12.9303,12.9303,12.9303,12.9303,12.9303,12.9303,12.9303,12.9303,12.9303,12.9303,12.9303,12.9303,12.9303,12.9303,12.9303,12.9303,12.9303,12.9303,12.9303,12.9303,12.9303,12.9303,12.9303,12.9303,12.9211,12.9211,12.9118,12.9163,12.9165,12.921,12.9303,12.9303,12.9303,12.9303,12.9303,12.921,12.9303,12.9303,12.921,12.8884,12.8978,12.8884,12.7575,12.6456,12.5942,12.5381,12.468,12.3889,12.3469,12.3235,13.0831,12.9303,12.9303,12.9303,12.9303,12.9303,12.9303,12.9303,12.9303,12.9303,12.9303,12.9303,12.9303,12.9303,12.9303,12.9303,12.9303,12.9303,12.9303,12.9303,12.9303,12.9303,12.9303,12.9303,12.9303,12.9303,12.9303,12.9303,12.9303,12.9303,12.9303,12.9303,12.9303,12.9303,12.9303,12.9303,12.9303,12.9303,12.9303,12.9303,12.9303,12.9303,12.9303,12.9303,12.9303,12.9303,12.9303,12.9303,12.9303,12.9303,12.9303,12.9303,12.9303,12.9303,12.9303,12.9303,12.9303,12.9303,12.9303,12.9303,12.9303,12.9303,12.9303,12.9303,12.9303,12.9303,12.9303,12.9303,12.9303,12.9303,12.9303,12.9303,12.9303,12.9303,12.9303,12.9303,12.9303,12.9303,12.9303,12.9303,12.9303,12.9303,12.9303,12.9303,12.9303,12.9303,12.9303,12.9303,12.9211,12.9211,12.9071,12.8791,12.8791,12.8791,12.8884,12.9071,12.9256,12.9303,12.9303,12.921,12.8929,12.8929,12.8697,12.8604,12.8417,12.823,12.7669,12.6269,12.496,12.4727,12.4446,12.3839,12.3515,12.3235,12.3048,13.1231,12.9844,12.9438,12.9303,12.9303,12.9303,12.9303,12.9303,12.9303,12.9303,12.9303,12.9303,12.9303,12.9303,12.9303,12.9303,12.9303,12.9303,12.9303,12.9303,12.9303,12.9303,12.9303,12.9303,12.9303,12.9303,12.9303,12.9303,12.9303,12.9303,12.9303,12.9303,12.9303,12.9303,12.9303,12.9303,12.9303,12.9303,12.9303,12.9303,12.9303,12.9303,12.9303,12.9303,12.9303,12.9303,12.9303,12.9303,12.9303,12.9303,12.9303,12.9303,12.9303,12.9303,12.9211,12.9211,12.9256,12.9303,12.9303,12.9303,12.9303,12.9303,12.9303,12.9303,12.9303,12.9303,12.9303,12.9303,12.9303,12.9303,12.9303,12.9303,12.9303,12.9303,12.9303,12.9303,12.9303,12.9303,12.9303,12.9303,12.9303,12.9303,12.9303,12.9303,12.9303,12.9256,12.9256,12.921,12.9118,12.8837,12.8463,12.8276,12.8183,12.8183,12.8276,12.8276,12.823,12.8089,12.8136,12.8136,12.8089,12.8043,12.7622,12.7435,12.7248,12.6827,12.6222,12.5241,12.4213,12.3792,12.3422,12.3328,12.3235,12.3048,12.3048,13.1544,13.056,12.9754,12.9393,12.9303,12.9303,12.9303,12.9303,12.9303,12.9303,12.9303,12.9303,12.9303,12.9303,12.9303,12.9303,12.9303,12.9303,12.9303,12.9303,12.9303,12.9303,12.9303,12.9303,12.9303,12.9303,12.9303,12.9303,12.9303,12.9303,12.9303,12.9303,12.9303,12.9303,12.9303,12.9303,12.9303,12.9303,12.9303,12.9303,12.9303,12.9303,12.9303,12.9303,12.9303,12.9303,12.9303,12.9303,12.9303,12.9303,12.9303,12.9303,12.9303,12.9303,12.9211,12.9118,12.9165,12.9303,12.9303,12.9303,12.9303,12.9303,12.9303,12.9303,12.9303,12.9303,12.9303,12.9303,12.9303,12.9303,12.9303,12.9303,12.9303,12.9303,12.9303,12.9303,12.9303,12.9303,12.9303,12.9303,12.9303,12.9303,12.921,12.9256,12.9256,12.9256,12.9165,12.9024,12.8744,12.7949,12.7435,12.7154,12.7061,12.7061,12.7108,12.6967,12.6827,12.664,12.664,12.664,12.6827,12.6967,12.6547,12.6269,12.5755,12.5381,12.496,12.4306,12.3465,12.3095,12.3188,12.3142,12.3001,12.3001,12.3001,13.1544,13.0605,13.0426,12.9932,12.9348,12.9303,12.9303,12.9303,12.9303,12.9303,12.9303,12.9303,12.9303,12.9303,12.9303,12.9303,12.9303,12.9303,12.9303,12.9303,12.9303,12.9303,12.9303,12.9303,12.9303,12.9303,12.9303,12.9303,12.9303,12.9303,12.9303,12.9303,12.9303,12.9303,12.9303,12.9303,12.9303,12.9303,12.9303,12.9303,12.9303,12.9303,12.9303,12.9303,12.9303,12.9165,12.8978,12.8978,12.8978,12.9069,12.9116,12.9163,12.9256,12.9256,12.8837,12.8323,12.8837,12.9118,12.9165,12.9118,12.8931,12.9071,12.921,12.9303,12.9303,12.9303,12.9303,12.9303,12.9303,12.9303,12.9303,12.9303,12.9303,12.9303,12.9303,12.9303,12.9303,12.9303,12.9303,12.9303,12.9303,12.921,12.9023,12.8976,12.8557,12.851,12.8183,12.8136,12.7902,12.7108,12.6362,12.6082,12.5848,12.5848,12.5661,12.5521,12.5474,12.5381,12.5381,12.5381,12.5615,12.5845,12.5986,12.5892,12.5147,12.4353,12.3745,12.3185,12.3048,12.3001,12.3001,12.3001,12.3001,12.3001,12.3001,13.2126,13.19,13.1008,13.0336,12.9887,12.9484,12.9303,12.9303,12.9303,12.9303,12.9303,12.9303,12.9303,12.9303,12.9303,12.9303,12.9303,12.9303,12.9303,12.9303,12.9303,12.9303,12.9303,12.9303,12.9303,12.9303,12.9303,12.9303,12.9303,12.9303,12.9303,12.9303,12.9303,12.9303,12.9303,12.9303,12.9303,12.9303,12.9303,12.9303,12.9303,12.9303,12.8884,12.865,12.8463,12.823,12.7949,12.7762,12.7809,12.7809,12.7762,12.7762,12.7715,12.7669,12.7437,12.711,12.7344,12.7715,12.7762,12.7762,12.8089,12.8417,12.8463,12.8697,12.9071,12.921,12.9303,12.9303,12.9303,12.9303,12.9303,12.9303,12.9303,12.9303,12.9303,12.9303,12.9303,12.9303,12.9303,12.9303,12.8791,12.8417,12.8463,12.823,12.7902,12.7575,12.7248,12.7108,12.6967,12.6219,12.5381,12.5007,12.4633,12.4493,12.4213,12.4166,12.4166,12.4213,12.4306,12.4306,12.44,12.4306,12.454,12.4914,12.44,12.3512,12.3048,12.3091,12.3048,12.3001,12.3001,12.3001,12.3001,12.3001,12.3001,13.2703,13.3372,13.1588,13.0784,13.0515,12.9664,12.9303,12.9303,12.9303,12.9303,12.9303,12.9303,12.9303,12.9303,12.9303,12.9303,12.9303,12.9303,12.9303,12.9303,12.9303,12.9303,12.9303,12.9303,12.9303,12.9303,12.9303,12.9303,12.9303,12.9303,12.9303,12.9303,12.9303,12.9303,12.9303,12.9303,12.9303,12.9303,12.9303,12.9303,12.9165,12.8931,12.8463,12.7528,12.7482,12.7108,12.6456,12.6222,12.6219,12.6219,12.6219,12.5988,12.5755,12.5848,12.5942,12.5988,12.6222,12.6593,12.6547,12.6316,12.6734,12.7201,12.7482,12.7902,12.8417,12.8791,12.8791,12.8884,12.9024,12.9303,12.9303,12.9303,12.9303,12.9303,12.9303,12.9303,12.9256,12.9069,12.8836,12.8323,12.7856,12.7482,12.7341,12.7154,12.7014,12.6874,12.636,12.5986,12.5799,12.5147,12.4493,12.3982,12.3562,12.3282,12.3001,12.3188,12.3328,12.3605,12.3605,12.3609,12.3469,12.3142,12.3048,12.3605,12.3418,12.3001,12.3001,12.3001,12.3001,12.3001,12.3001,12.3001,12.3001,12.3001,12.3001,13.2703,13.346,13.2393,13.1457,13.056,12.9617,12.9303,12.9303,12.9303,12.9303,12.9303,12.9303,12.9303,12.9303,12.9303,12.9303,12.9303,12.9303,12.9303,12.9303,12.9303,12.9303,12.9303,12.9303,12.9303,12.9303,12.9303,12.9303,12.9303,12.9303,12.9303,12.9303,12.9303,12.9303,12.9303,12.9303,12.9303,12.9211,12.9165,12.9071,12.9071,12.8323,12.7528,12.6687,12.6456,12.6175,12.5986,12.5895,12.6079,12.6219,12.6219,12.5194,12.4306,12.4259,12.482,12.4867,12.5521,12.5755,12.5755,12.5942,12.6079,12.6313,12.6406,12.6547,12.6874,12.7482,12.7856,12.8183,12.851,12.8978,12.9303,12.9118,12.9118,12.9303,12.9303,12.9303,12.9116,12.8463,12.7669,12.7061,12.6643,12.6409,12.6222,12.5895,12.6082,12.6079,12.5334,12.4773,12.454,12.4076,12.3702,12.3235,12.3235,12.3048,12.3001,12.3142,12.3142,12.3278,12.3231,12.3188,12.3142,12.3001,12.3001,12.3001,12.3001,12.3001,12.3001,12.3001,12.3001,12.3001,12.3001,12.3001,12.3001,12.3001,12.3001,13.3014,13.4078,13.2748,13.1855,13.1231,12.9887,12.9303,12.9303,12.9303,12.9303,12.9303,12.9303,12.9303,12.9303,12.9303,12.9303,12.9303,12.9303,12.9303,12.9303,12.9303,12.9303,12.9303,12.9303,12.9303,12.9303,12.9303,12.9303,12.9303,12.9303,12.9303,12.9303,12.9303,12.9303,12.9303,12.9303,12.9303,12.9165,12.8744,12.8417,12.8276,12.7435,12.6547,12.6175,12.5615,12.5007,12.4633,12.454,12.454,12.4493,12.4493,12.3982,12.3328,12.3515,12.3792,12.3839,12.4306,12.4493,12.454,12.454,12.482,12.5241,12.5334,12.5615,12.6175,12.6547,12.6921,12.7014,12.7341,12.7902,12.837,12.8417,12.8791,12.9024,12.9303,12.8978,12.8417,12.7528,12.664,12.6222,12.5615,12.5381,12.5054,12.454,12.4587,12.468,12.4026,12.3932,12.3609,12.3609,12.3142,12.3001,12.3001,12.3001,12.3001,12.3001,12.3001,12.3001,12.3001,12.3001,12.3001,12.3001,12.3001,12.3001,12.3001,12.3001,12.3001,12.3001,12.3001,12.3001,12.3001,12.3001,12.3001,12.3001,12.3001,13.2809,13.4178,13.2962,13.2393,13.1948,13.0338,12.9484,12.9303,12.9303,12.9303,12.9303,12.9303,12.9303,12.9303,12.9303,12.9303,12.9303,12.9303,12.9303,12.9303,12.9303,12.9303,12.9303,12.9303,12.9303,12.9303,12.9303,12.9303,12.9303,12.9303,12.9303,12.9303,12.9303,12.9303,12.9303,12.9211,12.9165,12.8791,12.8183,12.7715,12.7295,12.6362,12.5802,12.5615,12.4773,12.3886,12.3188,12.3001,12.3001,12.3001,12.3095,12.3282,12.3048,12.3095,12.3142,12.3188,12.3142,12.3142,12.3095,12.3235,12.3465,12.4213,12.4306,12.4633,12.5428,12.5615,12.5802,12.5848,12.6035,12.6643,12.7248,12.7388,12.7669,12.8136,12.8323,12.8043,12.7154,12.6316,12.5708,12.5287,12.4727,12.4306,12.4259,12.3605,12.3328,12.3095,12.3048,12.3048,12.3095,12.3142,12.3001,12.3001,12.3001,12.3001,12.3001,12.3001,12.3001,12.3001,12.3001,12.3001,12.3001,12.3001,12.3001,12.3001,12.3001,12.3001,12.3001,12.3001,12.3001,12.3001,12.3001,12.3001,12.3001,12.3001,12.3001,13.1351,13.2367,13.3118,13.2881,13.1986,13.0963,12.9833,12.93,12.9069,12.9071,12.921,12.9256,12.9165,12.9303,12.9303,12.9303,12.9303,12.9303,12.9303,12.9303,12.9303,12.9303,12.9303,12.9303,12.9303,12.9303,12.9303,12.9303,12.9303,12.9303,12.9303,12.9303,12.9303,12.9303,12.9211,12.9165,12.8697,12.8089,12.7622,12.7014,12.6222,12.5334,12.482,12.4633,12.3839,12.3235,12.3095,12.3001,12.3001,12.3001,12.3001,12.3001,12.3001,12.3001,12.3001,12.3001,12.3001,12.3001,12.3001,12.3001,12.3142,12.3235,12.3282,12.3282,12.3699,12.4309,12.4773,12.4773,12.5615,12.5895,12.6219,12.6269,12.6503,12.6689,12.6549,12.5988,12.5194,12.4867,12.44,12.3558,12.3328,12.3188,12.3188,12.3138,12.3001,12.3001,12.3001,12.3001,12.3001,12.3001,12.3001,12.3001,12.3001,12.3001,12.3001,12.3001,12.3001,12.3001,12.3001,12.3001,12.3001,12.3001,12.3001,12.3001,12.3001,12.3001,12.3001,12.3001,12.3001,12.3001,12.3001,12.3001,12.3001,12.3001,12.3001,13.0251,13.113,13.1564,13.1539,13.0967,12.9471,12.8632,12.819,12.7748,12.7762,12.8276,12.837,12.8697,12.9211,12.9256,12.9256,12.9303,12.9303,12.9211,12.9211,12.9256,12.9256,12.9303,12.9303,12.9303,12.9303,12.9303,12.9303,12.9303,12.9303,12.9303,12.9303,12.9303,12.9303,12.9165,12.8697,12.8089,12.7575,12.6453,12.5755,12.5194,12.4259,12.3749,12.3562,12.3328,12.3001,12.3001,12.3001,12.3001,12.3001,12.3001,12.3001,12.3001,12.3001,12.3001,12.3001,12.3001,12.3001,12.3001,12.3001,12.3001,12.3001,12.3001,12.3001,12.3142,12.3375,12.3702,12.3702,12.4029,12.4306,12.4446,12.4914,12.5474,12.5802,12.5054,12.4213,12.3749,12.3749,12.3422,12.3188,12.3001,12.3048,12.3048,12.3048,12.3001,12.3001,12.3001,12.3001,12.3001,12.3001,12.3001,12.3001,12.3001,12.3001,12.3001,12.3001,12.3001,12.3001,12.3001,12.3001,12.3001,12.3001,12.3001,12.3001,12.3001,12.3001,12.3001,12.3001,12.3001,12.3001,12.3001,12.3001,12.3001,12.3001,12.3001,12.8849,12.9674,13.0222,13.0453,13.0146,12.8668,12.7796,12.7446,12.6572,12.6734,12.7154,12.7295,12.7715,12.837,12.837,12.8604,12.8744,12.8791,12.8931,12.9165,12.9024,12.8978,12.9211,12.9303,12.9303,12.9303,12.9303,12.9303,12.9303,12.9303,12.9303,12.9303,12.8931,12.8837,12.8697,12.7809,12.7248,12.6687,12.5287,12.4587,12.4166,12.3375,12.3048,12.3001,12.3048,12.3048,12.3001,12.3001,12.3001,12.3001,12.3001,12.2998,12.2717,12.2904,12.2904,12.2764,12.2857,12.3001,12.3001,12.3001,12.3001,12.3001,12.3001,12.3001,12.3001,12.3048,12.3048,12.3001,12.3001,12.3095,12.3188,12.3792,12.4446,12.5007,12.4072,12.3231,12.3095,12.3001,12.3001,12.3001,12.3001,12.3001,12.3001,12.3001,12.3001,12.3001,12.3001,12.3001,12.3001,12.3001,12.3001,12.3001,12.3001,12.3001,12.3001,12.3001,12.3001,12.3001,12.2908,12.2861,12.2815,12.2815,12.2861,12.2955,12.2904,12.2955,12.2955,12.2815,12.3001,12.3001,12.3001,12.3001,12.3001,12.2815,12.2768,12.6893,12.7892,12.9626,13.026,13.0131,12.9262,12.8208,12.7392,12.6472,12.6123,12.6175,12.6222,12.636,12.6406,12.6687,12.7108,12.7669,12.7809,12.8183,12.8557,12.8276,12.8183,12.8837,12.9023,12.9118,12.9211,12.9165,12.921,12.9116,12.8978,12.9303,12.8884,12.8183,12.7809,12.7622,12.6736,12.5845,12.5194,12.4727,12.4029,12.3235,12.3048,12.3001,12.3001,12.3001,12.3001,12.3044,12.2951,12.2998,12.3001,12.2857,12.2437,12.2059,12.2624,12.2484,12.1825,12.253,12.2764,12.2908,12.2632,12.2635,12.2592,12.2596,12.3001,12.265,12.2611,12.2704,12.2747,12.2829,12.2962,12.2962,12.3235,12.3192,12.3282,12.3235,12.3048,12.3001,12.3001,12.3001,12.3001,12.3001,12.3001,12.3001,12.3001,12.3001,12.3001,12.3001,12.3001,12.3001,12.3001,12.3001,12.3001,12.3001,12.3001,12.3001,12.3001,12.3001,12.2908,12.2577,12.253,12.2394,12.2484,12.253,12.2624,12.2671,12.2768,12.2815,12.2488,12.2484,12.2343,12.2484,12.2908,12.2861,12.2488,12.2347,12.5239,12.5757,12.7594,12.8334,12.834,12.8037,12.7312,12.6365,12.5463,12.5061,12.5144,12.5194,12.5521,12.6079,12.6219,12.6406,12.6689,12.678,12.6967,12.7201,12.6874,12.6923,12.7341,12.7949,12.8557,12.9024,12.8604,12.8276,12.823,12.7669,12.7341,12.7295,12.6967,12.6734,12.664,12.5708,12.5054,12.4587,12.3979,12.3465,12.3138,12.3001,12.3001,12.3001,12.3001,12.3001,12.3001,12.2484,12.2199,12.2106,12.1502,12.1124,12.0797,12.103,12.1077,12.0797,12.0988,12.1222,12.109,12.0806,12.0369,12.0381,12.0414,12.0483,12.0575,12.1088,12.1364,12.1451,12.1791,12.2229,12.2269,12.2657,12.27,12.2269,12.2611,12.3001,12.3001,12.3001,12.3001,12.2908,12.2908,12.3001,12.3001,12.3001,12.3001,12.3001,12.3001,12.3001,12.3001,12.2955,12.3001,12.3001,12.2857,12.2764,12.2908,12.2908,12.2908,12.253,12.2016,12.1829,12.1689,12.1689,12.1642,12.1689,12.1689,12.1736,12.1689,12.1596,12.1596,12.1222,12.1035,12.1362,12.1596,12.1502,12.1689,12.4159,12.4628,12.6072,12.6874,12.7085,12.7133,12.6621,12.5686,12.4841,12.4326,12.4156,12.4076,12.4493,12.5054,12.5194,12.5334,12.5615,12.5334,12.5381,12.5661,12.5661,12.5848,12.6269,12.6876,12.7622,12.8089,12.7575,12.7248,12.7108,12.6593,12.6219,12.6079,12.5848,12.5661,12.5615,12.468,12.4119,12.4026,12.3375,12.3001,12.3001,12.3001,12.3001,12.3001,12.3001,12.2904,12.2624,12.2012,12.1587,12.1171,12.0516,11.9955,11.9768,11.9955,11.9955,11.9721,11.9699,11.9722,11.9592,11.8965,11.8461,11.8338,11.8159,11.8051,11.8102,11.8649,11.8925,11.9057,11.9794,12.0538,12.0941,12.1722,12.1533,12.044,12.1169,12.1547,12.1454,12.1846,12.2156,12.2156,12.2156,12.2156,12.211,12.2063,12.197,12.197,12.2016,12.2016,12.2063,12.1923,12.2156,12.2156,12.2156,12.1876,12.1689,12.1549,12.1549,12.1315,12.0988,12.0755,12.0656,12.0563,12.0516,12.0469,12.0423,12.0376,12.0329,12.0376,12.0516,12.0376,12.0236,12.0189,12.0142,12.0329,12.061,12.3555,12.4268,12.5341,12.605,12.6778,12.6898,12.6531,12.5643,12.4794,12.3992,12.3321,12.3142,12.3282,12.3235,12.3465,12.3745,12.4353,12.3792,12.3839,12.4543,12.4633,12.5101,12.5848,12.6035,12.6269,12.636,12.6222,12.6175,12.6129,12.5942,12.5892,12.5848,12.5007,12.4633,12.4543,12.3702,12.3142,12.3185,12.3095,12.3001,12.3001,12.3001,12.3001,12.3001,12.2998,12.253,12.1685,12.1545,12.0984,12.0236,12.0002,11.9623,11.8828,11.9306,11.9493,11.8626,11.8605,11.8695,11.8569,11.7628,11.6902,11.6863,11.6364,11.5772,11.5686,11.5952,11.6087,11.6218,11.6901,11.7809,11.876,11.9452,11.9301,11.7921,11.8568,11.9162,11.9281,11.9689,12.0189,12.0376,12.0469,12.0194,12.0236,12.0469,12.061,12.0563,12.0516,12.0563,12.0656,12.0656,12.0329,12.0329,12.0656,12.089,12.0516,12.0142,12.0142,12.0142,11.9768,11.9488,11.9301,11.9254,11.9161,11.9207,11.9161,11.9161,11.9114,11.9161,11.9301,11.9348,11.9675,11.9628,11.9436,11.9249,11.9488,12.1246,12.1626,12.2462,12.3476,12.443,12.5564,12.557,12.4921,12.5134,12.4457,12.3263,12.3001,12.3001,12.3001,12.3001,12.3278,12.3469,12.3188,12.3235,12.3515,12.3562,12.3745,12.4166,12.4773,12.5101,12.5194,12.5755,12.5755,12.5101,12.44,12.4072,12.4072,12.3745,12.3515,12.3469,12.3278,12.3001,12.3001,12.3001,12.3001,12.3001,12.3001,12.3001,12.2955,12.2437,12.1685,12.0656,11.995,11.9389,11.9015,11.8407,11.7846,11.7483,11.7223,11.6939,11.662,11.607,11.5755,11.5588,11.4334,11.3493,11.3409,11.2717,11.2218,11.2262,11.2878,11.3187,11.3448,11.4095,11.5045,11.5742,11.5679,11.5539,11.5812,11.6924,11.8069,11.8665,11.9003,11.9377,11.9792,11.9913,12.0007,12.0142,12.0095,12.0049,12.0142,12.0142,12.0142,12.0142,12.0142,12.0142,12.0142,12.0002,11.9955,11.9815,11.888,11.8459,11.8454,11.8173,11.7939,11.7799,11.7846,11.7805,11.7939,11.7986,11.8033,11.8033,11.7945,11.7945,11.7898,11.8314,11.8641,11.836,11.8173,11.822,12.0142,12.0226,12.1141,12.1852,12.2629,12.4007,12.414,12.345,12.3998,12.3559,12.2655,12.253,12.2764,12.3001,12.2301,12.197,12.2016,12.239,12.253,12.2624,12.2861,12.3001,12.3095,12.3702,12.4072,12.4166,12.4683,12.468,12.3982,12.3073,12.2571,12.2528,12.2273,12.2057,12.2143,12.2356,12.2571,12.2618,12.2919,12.3001,12.3001,12.3001,12.2671,12.1974,12.1404,12.061,11.9623,11.8963,11.836,11.8074,11.7378,11.7045,11.6963,11.6473,11.6022,11.5565,11.4498,11.3628,11.3171,11.1623,11.0446,11.0069,10.9064,10.838,10.8509,10.8982,10.9412,10.9586,11.0452,11.0969,11.1139,11.0874,11.1042,11.2126,11.3923,11.536,11.6084,11.6802,11.7515,11.8266,11.8516,11.8683,11.8709,11.8974,11.8974,11.8974,11.9015,11.8968,11.9015,11.9015,11.888,11.9015,11.8974,11.902,11.902,11.7752,11.7051,11.7004,11.7092,11.7139,11.7185,11.7285,11.7332,11.7472,11.7378,11.7378,11.7519,11.7472,11.7425,11.7332,11.7332,11.7472,11.7045,11.7472,11.7372,12.0002,12.0081,12.0916,12.1202,12.1421,12.2375,12.2257,12.1543,12.1568,12.1539,12.1629,12.1634,12.2063,12.2499,12.0908,12.0105,12.0161,12.0917,12.1379,12.1557,12.2351,12.2818,12.2908,12.2908,12.2861,12.2815,12.3044,12.3091,12.2958,12.2183,12.1665,12.1621,12.0887,12.0408,12.0582,12.1231,12.1621,12.1708,12.2442,12.2915,12.2822,12.2775,12.1838,12.0329,12.0049,11.9535,11.8682,11.8495,11.8027,11.6957,11.6911,11.6905,11.6817,11.6689,11.6153,11.5252,11.3608,11.2241,11.1149,10.9552,10.8199,10.7221,10.5763,10.4684,10.481,10.4893,10.4978,10.4769,10.6148,10.6236,10.5202,10.5933,10.6835,10.7863,11.003,11.1507,11.1799,11.3571,11.4544,11.5544,11.6012,11.6475,11.6946,11.6963,11.7238,11.7285,11.7144,11.7232,11.7332,11.7238,11.7285,11.7285,11.7238,11.7092,11.7092,11.7004,11.7045,11.7045,11.7045,11.7092,11.7045,11.7045,11.7092,11.7092,11.7045,11.7045,11.7045,11.7045,11.7045,11.7045,11.7045,11.7045,11.7045,11.7045,11.7045,11.7893,11.7934,11.8092,11.8638,11.9466,12.038,12.064,12.0551,12.1224,12.1115,12.0605,12.0563,12.0366,11.9913,11.9407,11.8792,11.82,11.8476,11.8911,11.9593,11.9825,12.0303,12.0895,12.0937,12.0937,12.1077,12.1685,12.2059,12.2067,12.1769,12.1362,12.0756,12.0452,12.0321,12.0365,12.0539,12.0713,12.0711,12.1624,12.1683,12.0941,12.0288,11.9652,11.9114,11.9015,11.8501,11.7519,11.7466,11.6957,11.5975,11.5882,11.5554,11.4813,11.4118,11.3393,11.2464,11.035,10.8536,10.7667,10.6564,10.5259,10.3724,10.3144,10.2515,10.1992,10.1776,10.2079,10.2477,10.138,10.0883,10.0921,10.2799,10.4773,10.6408,10.769,10.9518,11.1161,11.1919,11.2921,11.4416,11.503,11.5771,11.6104,11.6555,11.6882,11.6882,11.6963,11.7045,11.7045,11.6963,11.6963,11.7045,11.7004,11.6957,11.7045,11.6864,11.7045,11.7045,11.6864,11.6817,11.7045,11.7045,11.7004,11.6443,11.6905,11.6998,11.663,11.6858,11.6951,11.7045,11.7045,11.6957,11.7004,11.7045,11.7045,11.7045,11.7045,11.7045,11.7378,11.7975,11.8515,11.8808,11.8869,11.9454,11.9607,11.9436,11.8599,11.7997,11.7455,11.7125,11.6665,11.6203,11.6614,11.7092,11.756,11.8058,11.8707,11.9508,11.9592,11.976,12.0147,12.075,12.103,12.109,12.1073,12.0601,11.9796,11.8966,11.8571,11.857,11.856,11.8552,11.8595,11.9443,11.9442,11.8476,11.8215,11.7867,11.7349,11.7285,11.6695,11.5396,11.5175,11.4735,11.3855,11.3808,11.353,11.2888,11.2361,11.1719,11.0792,10.9048,10.7165,10.5139,10.3522,10.1996,10.0587,9.9701,9.9069,9.8506,9.8463,9.8503,9.855,9.7282,9.6662,9.7743,9.9788,10.1667,10.2868,10.4661,10.6578,10.8654,10.9467,11.0783,11.2838,11.367,11.4209,11.4994,11.557,11.5858,11.5899,11.5899,11.5817,11.5858,11.5899,11.6063,11.6257,11.5681,11.5268,11.5169,11.5459,11.5701,11.5742,11.5742,11.5742,11.5648,11.5742,11.5788,11.5695,11.5601,11.5601,11.5882,11.5788,11.5975,11.6303,11.6349,11.6537,11.6957,11.7004,11.6537,11.7045,11.7045,11.7045,11.7045,11.7092,11.7092,11.7092,11.7098,11.7092,11.7478,11.7755,11.6311,11.5493,11.52,11.442,11.3972,11.381,11.4749,11.5204,11.5334,11.641,11.7329,11.8039,11.83,11.8767,11.9392,11.9699,11.9746,11.975,11.9836,11.9519,11.8692,11.6806,11.579,11.5701,11.5698,11.5734,11.582,11.6342,11.6192,11.5449,11.6239,11.6187,11.5132,11.5079,11.4257,11.2666,11.2361,11.1914,11.118,11.1059,11.0933,11.0842,11.0761,11.0358,10.9465,10.8613,10.6775,10.3428,10.0703,9.8836,9.7681,9.6133,9.5262,9.5132,9.4893,9.4388,9.3864,9.3681,9.411,9.5023,9.6728,9.8005,9.8686,10.1141,10.3349,10.4622,10.6067,10.7984,11.0688,11.084,11.1647,11.2963,11.3583,11.3793,11.3739,11.3858,11.3981,11.4027,11.4027,11.4232,11.4458,11.3653,11.2592,11.2907,11.3327,11.3919,11.4072,11.3972,11.4158,11.4252,11.4205,11.3972,11.4532,11.4158,11.4252,11.4158,11.3972,11.4392,11.5093,11.5414,11.5561,11.6396,11.6537,11.5929,11.7045,11.7045,11.7045,11.7045,11.7045,11.7045,11.7045,11.7045,11.7004,11.5943,11.4427,11.4476,11.3836,11.2546,11.2295,11.1458,11.041,11.046,11.0971,11.1515,11.2456,11.3343,11.4264,11.5018,11.5438,11.5734,11.7136,11.7928,11.7854,11.7974,11.7891,11.7518,11.5196,11.3545,11.289,11.2889,11.3237,11.3799,11.182,11.1003,11.1532,11.2357,11.2671,11.2339,11.2328,11.2115,11.1644,11.0989,11.0096,10.9215,10.8568,10.7847,10.7094,10.6446,10.605,10.5729,10.4317,10.2775,10.1351,9.8793,9.6252,9.4031,9.4012,9.3922,9.3111,9.1953,9.1061,9.0966,9.1457,9.2188,9.3169,9.4319,9.5439,9.6986,9.8519,9.9968,10.1581,10.2763,10.4196,10.5954,10.6953,10.7781,10.8936,11.0166,11.0905,11.1077,11.1637,11.1962,11.2002,11.2002,11.1759,11.1424,11.0908,11.0984,11.2361,11.2709,11.3068,11.3845,11.3831,11.3738,11.3738,11.3831,11.3878,11.3738,11.3831,11.3738,11.3831,11.3831,11.3925,11.4112,11.4292,11.4345,11.4719,11.4766,11.4392,11.4995,11.4955,11.459,11.4428,11.4428,11.4428,11.4428,11.4388,11.361,11.2392,11.1127,11.1132,11.066,10.9662,10.8788,10.7955,10.7032,10.678,10.6946,10.7744,10.877,10.9826,11.1123,11.2404,11.3254,11.3753,11.5218,11.5867,11.5917,11.6038,11.5902,11.535,11.4089,11.2408,11.0665,10.9753,10.98,11.0669,10.786,10.744,10.9525,11.0055,11.0421,11.0683,11.0677,11.0289,10.9473,10.8132,10.6999,10.6024,10.4869,10.3906,10.3381,10.2547,10.2071,10.2032,10.0436,9.8953,9.7783,9.5916,9.3877,9.1581,9.153,9.118,9.0287,8.9751,8.9447,8.9485,9.0164,9.0914,9.1384,9.2239,9.3151,9.4178,9.5511,9.6862,9.8221,9.9564,10.1079,10.2721,10.3808,10.4849,10.6091,10.7039,10.7737,10.8228,10.8596,10.9174,10.95,10.8862,10.8027,10.7705,10.8187,10.9188,11.0298,11.0899,11.1577,11.2318,11.2522,11.2522,11.2522,11.2476,11.2476,11.2522,11.2476,11.2522,11.2476,11.2476,11.2756,11.299,11.3224,11.3457,11.3785,11.3925,11.3551,11.2522,11.2321,11.1639,11.1277,11.1196,11.1196,11.1115,11.0833,10.8653,10.7794,10.7846,10.7242,10.6875,10.6669,10.5098,10.4351,10.4226,10.3516,10.36,10.4269,10.5291,10.6601,10.815,10.9863,11.1185,11.2193,11.3111,11.3575,11.3719,11.3821,11.351,11.2794,11.2437,11.106,10.8704,10.659,10.5824,10.6263,10.4283,10.4806,10.8009,10.8291,10.8741,10.9195,10.9229,10.8372,10.6586,10.4951,10.3469,10.2354,10.078,9.9832,9.9584,9.8836,9.8358,9.8151,9.6654,9.5068,9.367,9.2466,9.1166,8.9612,8.8888,8.8156,8.7394,8.8004,8.854,8.8692,8.9219,8.9637,8.9717,9.0313,9.0774,9.0939,9.2477,9.3751,9.4602,9.6247,9.8003,9.9573,10.0622,10.163,10.2963,10.3587,10.4041,10.4871,10.5148,10.5653,10.6044,10.5078,10.4033,10.4346,10.5617,10.6964,10.7933,10.8738,10.9821,11.053,11.0825,11.1034,11.1081,11.1081,11.1081,11.0894,11.1034,11.0988,11.0941,11.0801,11.1307,11.1961,11.2109,11.2382,11.3083,11.327,11.281,11.2201,11.1604,11.1443,11.0954,11.0257,11.0257,10.9897,10.8954,10.4105,0.0,0.0,10.3966,10.385,10.3182,10.2847,10.2259,10.1585,10.1459,10.1459,10.1627,10.2511,10.3478,10.4399,10.5446,10.6841,10.8417,10.9379,11.0195,11.0907,11.0958,11.0878,11.0541,10.8506,10.7091,10.6531,10.4095,10.1843,9.9989,10.1414,10.2967,10.422,10.5689,10.6463,10.6442,10.6481,10.5593,10.3784,10.2819,10.1236,9.8997,9.7877,9.6662,9.5314,9.5076,9.4621,9.3874,9.2266,9.1205,9.089,8.871,8.7271,8.6984,8.6863,8.6676,8.6524,8.6638,8.7017,8.7659,8.7811,8.7925,8.7925,8.8091,8.8174,8.8174,8.9691,9.0816,9.1064,9.2562,9.4164,9.5052,9.5553,9.6181,9.7969,9.8839,9.9539,10.0403,10.1184,10.179,10.2399,10.1456,10.0793,10.2131,10.3821,10.5344,10.6212,10.7476,10.881,10.9714,11.0375,11.0801,11.0801,11.0801,11.0801,11.0801,11.0801,11.0801,11.0801,11.0801,11.0894,11.1034,11.1081,11.1128,11.1354,11.1361,11.1315,10.9331,10.8493,10.8093,10.7124,0.0,10.5868,10.4935,10.3176,10.0439,9.9535,9.9996,10.0042,9.9835,9.9335,9.8499,9.7871,9.7407,9.6944,9.7028,9.7491,9.8865,9.9912,10.0793,10.2678,10.3981,10.4869,10.579,10.6633,10.7444,10.7444,10.7192,10.6731,10.5426,10.407,10.2708,10.101,9.8904,9.6696,9.8031,9.9752,10.1881,10.3227,10.4303,10.5144,10.5538,0.0,0.0,0.0,0.0,0.0,0.0,0.0,0.0,9.0797,0.0,8.8809,8.7254,8.6172,8.5673,8.4439,8.3588,8.32,8.3875,8.3599,8.1968,8.341,8.4701,8.5537,8.5992,8.622,8.6179,8.6638,8.6903,8.6941,8.7997,8.87,8.8863,8.9957,9.1052,9.19,9.2437,9.3345,9.5116,9.5738,9.6319,9.7146,9.8011,9.8915,9.9528,9.8422,9.8012,9.9651,10.1726,10.3741,10.5418,10.6563,10.7515,10.9207,10.9994,11.0336,11.0723,11.0801,11.0801,11.0801,11.0801,11.0801,11.0801,11.0801,11.0801,11.0801,11.0801,11.0801,11.0801,11.0801,11.0801,10.5804,10.4913,10.4117,10.2844,10.1319,10.0287,9.8658,9.649,9.649,9.6531,9.6408,9.5707,9.5377,9.5253,9.3969,9.3345,9.3262,9.2707,9.2869,9.3622,9.5291,9.6533,9.7499,9.9663,10.1001,10.1462,10.2217,10.3054,10.4017,10.4017,10.3684,10.2931,10.2763,10.146,9.9173,0.0,0.0,0.0,9.5143,9.6898,9.9814,10.1035,10.2414,10.4025,10.4861,0.0,10.2349,10.0819,9.8605,9.5568,9.3129,0.0,0.0,0.0,0.0,0.0,0.0,0.0,0.0,0.0,0.0,0.0,7.9994,7.9462,7.7184,7.9652,8.1968,8.2994,8.379,8.4246,8.4284,8.5043,8.5575,8.5612,8.6296,8.6786,8.6786,8.7712,8.8624,8.9234,9.009,9.1187,9.2521,9.2961,9.3374,9.4128,9.5076,9.5658,9.5707,9.4678,9.4758,9.6325,9.8247,10.1045,10.4048,10.4835,10.6006,10.8149,10.8926,10.9345,10.9907,11.01,11.0146,11.0146,11.0232,11.0146,11.0146,11.0193,11.0146,11.0474,11.052,11.0474,11.024,11.0193,11.0193,10.286,10.2111,10.136,10.0512,9.9322,9.4774,9.2216,9.1195,9.1195,9.1195,9.1154,9.1072,9.099,9.1031,9.0786,9.0704,9.0702,9.1281,9.1595,9.1758,9.2744,9.3722,9.4605,9.4976,9.638,9.8621,9.8789,9.9745,10.1333,10.1374,10.1332,10.1205,10.0276,9.9343,9.8152,9.3459,9.1324,9.1834,9.4212,9.5987,9.7146,9.9569,10.1321,10.2212,10.3098,10.2308,9.9746,9.8782,9.6327,9.2107,9.0195,8.783,8.4602,8.2823,8.116,0.0,7.7947,0.0,0.0,0.0,0.0,0.0,0.0,0.0,0.0,7.6653,7.8817,8.0411,8.1246,8.174,8.174,8.2422,8.2877,8.2954,8.3714,8.4248,8.4323,8.5658,8.669,8.6763,8.7492,8.7994,8.8395,8.8923,8.9716,9.0715,9.1428,9.1058,8.8697,8.9136,9.0205,9.1031,9.2745,9.5739,9.9174,10.1764,10.3786,10.5519,10.6445,10.7174,10.7995,10.8099,10.809,10.8137,10.8155,10.8099,10.8081,10.8137,10.8455,10.9305,10.9322,10.9004,10.838,10.8193,10.8081,10.0802,9.9498,9.8184,9.581,9.2707,9.0378,8.9139,8.8777,8.8737,8.8777,8.8777,8.8777,8.8536,8.8012,8.7487,8.7554,8.8055,8.844,8.8784,8.9246,9.0167,9.101,9.1856,9.2317,9.3499,9.5127,9.5127,9.5591,9.6348,9.6348,9.6105,9.5703,9.5207,9.4333,9.2956,9.0996,8.9938,8.9977,9.2087,9.4069,9.5904,9.76,9.9324,10.1116,10.205,10.1426,9.9216,9.8385,9.5848,9.1427,8.9094,8.6231,8.2517,8.0226,7.7927,0.0,0.0,0.0,0.0,0.0,0.0,0.0,0.0,0.0,0.0,0.0,7.5058,7.5817,7.745,7.8437,7.8437,7.9652,8.0373,8.0373,8.1171,8.1741,8.1703,8.2765,8.3676,8.4092,8.4906,8.5602,8.6016,8.6392,8.6792,8.7209,8.7133,8.6672,8.5839,8.6604,8.7597,8.8051,8.994,9.2222,9.4481,9.7825,10.0964,10.337,10.4253,10.4903,10.6121,10.6349,10.6387,10.6387,10.6387,10.65,10.6954,10.7067,10.7311,10.7919,10.7224,10.6567,10.6907,10.7029,10.7218,9.7692,9.6101,9.3469,8.9972,8.6193,8.5957,8.5879,8.584,8.584,8.5879,8.584,8.5879,8.5486,8.4817,8.4107,8.4246,8.5119,8.5309,8.5914,8.6903,8.783,8.8655,8.9381,9.0129,9.0893,9.1764,9.1764,9.1913,9.2113,9.2114,9.1839,9.1205,8.997,8.8807,8.7699,8.8424,8.8665,8.8502,8.9969,9.1985,9.4404,9.5697,9.7352,9.9406,10.0215,9.9848,9.8269,9.7091,9.4475,9.0422,8.7609,8.4373,8.0506,7.769,0.0,0.0,0.0,0.0,0.0,0.0,0.0,0.0,0.0,6.8262,6.8484,0.0,7.1536,0.0,7.3459,7.4901,7.5089,7.641,0.0,0.0,7.7955,7.8369,7.8369,7.9389,8.0296,8.0935,8.2125,8.3039,8.3415,8.3765,8.3867,8.3216,8.256,8.2354,8.3056,8.3962,8.4496,8.4668,8.6591,8.869,8.974,9.3129,9.6852,10.0334,10.1015,10.1706,10.3341,10.3651,10.3764,10.3914,10.3952,10.4177,10.4601,10.5036,10.5261,10.5207,10.4011,10.3215,10.4509,10.4946,10.5263,9.2479,9.1271,8.5746,8.2833,8.1698,8.1018,8.0677,8.0677,8.0677,8.0677,8.0677,8.0677,8.0639,8.0563,8.0487,0.0,8.1664,8.2422,8.3561,8.5195,8.6111,8.6909,8.7669,8.7711,8.8242,8.9144,8.9149,8.9563,9.0346,9.0386,9.0347,9.015,8.5551,8.3494,8.4137,8.4973,8.6071,8.7545,8.8543,8.9889,9.1673,9.4195,9.5612,9.5903,9.6572,9.6559,9.5522,9.3236,9.0595,8.7675,8.4563,8.1246,7.7852,0.0,0.0,0.0,0.0,0.0,0.0,0.0,0.0,0.0,0.0,0.0,0.0,0.0,0.0,6.8238,6.9779,0.0,7.1809,7.2767,0.0,0.0,0.0,7.3467,7.3467,7.5422,7.6764,7.6834,0.0,0.0,7.9308,8.0486,8.0561,7.8397,7.8098,7.8058,7.8138,7.8963,7.9291,7.9629,8.1619,8.3503,8.471,8.7424,9.0861,9.458,9.5954,9.6888,9.8404,9.8768,9.9041,9.9649,9.9801,9.9847,9.9874,10.0496,10.0816,9.9177,9.9322,9.9674,9.9965,10.0516,10.1117,8.7345,8.3151,8.0026,7.8189,7.7465,7.7176,7.7067,7.7067,7.7067,7.7067,7.7031,7.7031,7.7031,7.7031,7.7031,0.0,0.0,0.0,8.0107,8.1284,8.2613,8.3637,8.4434,8.5005,8.57,8.6481,8.6481,8.6416,8.6358,8.6319,8.5319,8.3203,0.0,8.0867,8.2234,8.3602,8.5081,8.671,8.816,8.9392,9.0488,9.2137,9.3246,9.3773,9.4607,9.4406,9.2962,9.1376,8.9072,8.6016,8.2573,7.908,0.0,0.0,0.0,0.0,0.0,0.0,0.0,0.0,0.0,0.0,0.0,6.2993,6.3329,0.0,0.0,0.0,6.6042,6.7245,6.8464,6.9451,0.0,0.0,0.0,0.0,0.0,0.0,0.0,7.3401,7.5244,7.6667,7.7216,7.6566,7.6032,7.604,7.6428,7.6892,7.751,0.0,7.8057,7.8018,7.9284,8.074,8.2034,8.382,8.5981,8.9025,9.0534,9.1911,9.3431,9.372,9.3971,9.4626,9.4885,9.5207,9.6173,9.453,9.3003,9.2947,9.3977,9.5127,9.6018,9.64,9.7178,8.1485,0.0,0.0,0.0,0.0,7.3612,7.3612,7.3577,7.3612,7.3539,7.3577,7.3404,0.0,0.0,0.0,0.0,0.0,0.0,7.6691,7.7717,7.9121,8.0335,8.1398,8.2044,8.2765,8.3524,8.3562,8.3107,8.2309,8.1627,8.0069,7.7716,0.0,0.0,0.0,0.0,8.402,8.5838,8.7338,8.8424,8.9213,8.9865,9.0655,9.156,9.2005,9.1541,8.9964,8.8387,8.6143,8.3255,7.9836,0.0,0.0,0.0,0.0,0.0,0.0,0.0,0.0,0.0,0.0,0.0,0.0,0.0,0.0,0.0,0.0,0.0,0.0,0.0,6.4936,6.6061,6.6682,0.0,0.0,0.0,0.0,0.0,0.0,0.0,0.0,0.0,7.3868,7.2843,7.2541,0.0,0.0,7.5498,7.64,7.6507,7.6507,7.6507,7.7208,0.0,7.9056,8.0107,8.1579,8.3675,8.5113,8.6665,8.865,8.8966,8.9244,8.9945,9.0122,8.998,8.9847,8.7586,8.6383,8.7108,8.8581,9.0066,9.1264,9.1974,9.2827,0.0,0.0,0.0,0.0,7.0198,0.0,0.0,0.0,7.0165,7.0165,0.0,6.9501,0.0,0.0,0.0,0.0,7.1485,7.2287,0.0,0.0,7.5969,7.7186,7.8741,7.8855,7.9386,8.0183,8.0221,7.9728,7.8704,7.6425,0.0,0.0,0.0,0.0,0.0,0.0,8.2537,8.4889,8.5814,8.6592,8.7334,8.7432,8.7858,8.8768,8.824,8.7447,8.6388,8.3366,8.0775,7.8973,7.5697,0.0,0.0,0.0,0.0,0.0,0.0,0.0,0.0,0.0,0.0,0.0,0.0,0.0,0.0,0.0,0.0,0.0,0.0,0.0,0.0,6.2586,0.0,0.0,0.0,0.0,0.0,0.0,0.0,0.0,0.0,6.9139,6.8443,6.9513,7.0688,7.1506,0.0,0.0,0.0,0.0,7.4004,7.404,7.476,7.511,7.446,7.5614,7.716,7.8733,0.0,0.0,8.4199,8.4731,8.4857,8.5549,8.5621,8.4278,7.976,7.9895,8.0913,8.186,8.3264,8.4563,8.5358,8.6607,8.8031,0.0,0.0,0.0,0.0,0.0,0.0,0.0,0.0,0.0,6.7317,6.6896,6.6185,0.0,0.0,0.0,0.0,0.0,0.0,0.0,0.0,7.2397,7.3577,7.4678,7.521,7.5895,7.6801,7.6839,7.4994,0.0,0.0,0.0,0.0,0.0,0.0,0.0,0.0,8.0069,8.2469,8.4362,8.5745,8.6501,8.7011,8.7176,8.7002,8.6256,8.4689,8.2194,8.0496,7.83,0.0,0.0,0.0,0.0,0.0,0.0,0.0,0.0,0.0,0.0,0.0,0.0,0.0,0.0,0.0,0.0,0.0,0.0,0.0,0.0,0.0,0.0,0.0,6.0561,0.0,0.0,0.0,0.0,0.0,0.0,0.0,0.0,0.0,6.5287,6.5604,6.6791,6.9097,7.006,7.0988,7.2183,0.0,0.0,0.0,0.0,0.0,0.0,0.0,7.3767,7.5315,7.4944,7.4993,7.6555,7.7552,7.8606,7.9793,0.0,0.0,7.3173,7.3366,7.4522,7.5476,7.6828,7.8177,7.9222,8.0405,8.1764,0.0,0.0,0.0,0.0,0.0,0.0,0.0,0.0,0.0,6.4382,6.3722,0.0,0.0,0.0,0.0,0.0,0.0,0.0,0.0,0.0,0.0,0.0,7.1261,7.1589,0.0,0.0,0.0,0.0,0.0,0.0,0.0,0.0,0.0,0.0,0.0,0.0,7.8633,8.0801,8.3208,8.4682,8.5209,8.5711,8.5602,8.4879,8.406,8.221,7.9197,0.0,0.0,0.0,0.0,0.0,0.0,0.0,0.0,0.0,0.0,0.0,0.0,0.0,0.0,0.0,0.0,0.0,0.0,0.0,0.0,0.0,0.0,0.0,0.0,0.0,5.8925,0.0,0.0,0.0,0.0,0.0,0.0,0.0,0.0,0.0,0.0,6.2944,6.4325,6.6396,6.8011,6.9425,7.0687,7.1667,7.229,0.0,0.0,0.0,0.0,0.0,0.0,0.0,0.0,0.0,0.0,0.0,0.0,0.0,0.0,7.2026,6.8474,6.8719,6.9645,7.0218,0.0,0.0,0.0,0.0,0.0,0.0,0.0,0.0,0.0,0.0,0.0,0.0,0.0,0.0,0.0,6.0586,0.0,0.0,6.043,0.0,0.0,0.0,0.0,0.0,0.0,0.0,0.0,0.0,0.0,0.0,0.0,0.0,0.0,0.0,0.0,0.0,0.0,0.0,0.0,0.0,0.0,7.8256,7.9824,8.2233,8.3477,8.3357,8.3348,8.3025,8.223,8.1407,7.9927,7.7525,0.0,0.0,0.0,0.0,0.0,0.0,0.0,0.0,0.0,0.0,0.0,0.0,0.0,0.0,0.0,0.0,0.0,0.0,0.0,0.0,0.0,0.0,0.0,0.0,0.0,0.0,5.864,5.8676,5.8712,0.0,0.0,0.0,0.0,0.0,0.0,0.0,0.0,0.0,6.3566,6.6197,6.8406,6.9214,7.0536,7.14,7.1436,7.0795,7.0083,6.937,6.8551,6.8261,0.0,0.0,0.0,0.0,0.0,0.0,0.0,0.0,0.0,0.0,0.0,0.0,0.0,0.0,0.0,0.0,0.0,0.0,0.0,0.0,0.0,0.0,0.0,0.0,0.0,0.0,0.0,0.0,0.0,0.0,0.0,0.0,0.0,0.0,0.0,0.0,0.0,0.0,0.0,0.0,0.0,0.0,0.0,0.0,0.0,0.0,0.0,0.0,0.0,0.0,0.0,0.0,0.0,0.0,7.6566,7.8088,8.0545,8.1793,8.1806,8.23,8.1943,8.0618,7.9821,7.8012,0.0,0.0,0.0,0.0,0.0,0.0,0.0,0.0,0.0,0.0,0.0,0.0,0.0,0.0,0.0,0.0,0.0,0.0,0.0,0.0,0.0,0.0,0.0,0.0,0.0,0.0,0.0,0.0,5.7529,5.81,5.867,0.0,0.0,0.0,0.0,0.0,0.0,0.0,0.0,0.0,0.0,6.5432,6.6785,6.8163,6.905,6.9085,6.8872,6.8622,6.8409,6.7731,6.7122,6.6825,0.0,0.0,0.0,0.0,0.0,0.0,0.0,0.0,0.0,0.0,0.0,0.0,0.0,0.0,0.0,0.0,0.0,0.0,0.0,0.0,0.0,0.0,0.0,0.0,0.0,0.0,0.0,0.0,0.0,0.0,0.0,0.0,0.0,0.0,0.0,0.0,0.0,0.0,0.0,0.0,0.0,0.0,0.0,0.0,0.0,0.0,0.0,0.0,0.0,0.0,0.0,0.0,0.0,7.4868,7.6479,7.9219,8.0583,8.0652,8.1389,8.1033,7.9469,7.8337,7.6272,0.0,0.0,0.0,0.0,0.0,0.0,0.0,0.0,0.0,0.0,0.0,0.0,0.0,0.0,0.0,0.0,0.0,0.0,0.0,0.0,0.0,0.0,0.0,0.0,0.0,0.0,0.0,0.0,5.6352,5.6958,5.7743,0.0,0.0,0.0,0.0,0.0,0.0,0.0,0.0,0.0,0.0,6.3911,6.4842,6.6755,0.0,0.0,6.7803,6.7554,6.7589,6.6947,6.6162,6.538,6.4629,0.0,0.0,0.0,0.0,0.0,0.0,0.0,0.0,0.0,0.0,0.0,0.0,0.0,0.0,0.0,0.0,0.0,0.0,0.0,0.0,0.0,0.0,0.0,0.0,0.0,0.0,0.0,0.0,0.0,0.0,0.0,0.0,0.0,0.0,0.0,0.0,0.0,0.0,0.0,0.0,0.0,0.0,0.0,0.0,0.0,0.0,0.0,0.0,0.0,0.0,0.0,0.0,7.3372,7.4997,7.8112,7.9741,7.979,8.0533,8.0177,7.8572,7.6927,7.4608,0.0,0.0,0.0,0.0,0.0,0.0,0.0,0.0,0.0,0.0,0.0,0.0,0.0,0.0,0.0,0.0,0.0,0.0,0.0,0.0,0.0,0.0,0.0,0.0,0.0,0.0,0.0,0.0,0.0,0.0,0.0,0.0,0.0,0.0,0.0,0.0,0.0,0.0,0.0,0.0,0.0,6.3358,6.3394,6.5877,6.7731,0.0,6.709,6.6591,6.6625,6.6019,6.5273,6.4525,0.0,0.0,0.0,0.0,0.0,0.0,0.0,0.0,0.0,0.0,0.0,0.0,0.0,0.0,0.0,0.0,0.0,0.0,0.0,0.0,0.0,0.0,0.0,0.0,0.0,0.0,0.0,0.0,0.0,0.0,0.0,0.0,0.0,0.0,0.0,0.0,0.0,0.0,0.0,0.0,0.0,0.0,0.0,0.0,0.0,0.0,0.0,0.0,0.0,0.0,0.0,0.0,0.0,0.0,7.4163,7.6808,7.8443,7.9045,7.9214,7.8536,7.6852,7.5285,0.0,0.0,0.0,0.0,0.0,0.0,0.0,0.0,0.0,0.0,0.0,0.0,0.0,0.0,0.0,0.0,0.0,0.0,0.0,0.0,0.0,0.0,0.0,0.0,0.0,0.0,0.0,5.3213,0.0,0.0,0.0,0.0,0.0,0.0,0.0,0.0,0.0,0.0,0.0,0.0,0.0,0.0,6.1253,6.1741,6.3416,6.4558,0.0,0.0,6.4237,6.427,6.4094,6.367,0.0,0.0,0.0,0.0,0.0,0.0,0.0,0.0,0.0,0.0,0.0,0.0,0.0,0.0,0.0,0.0,0.0,0.0,0.0,0.0,0.0,0.0,0.0,0.0,0.0,0.0,0.0,0.0,0.0,0.0,0.0,0.0,0.0,0.0,0.0,0.0,0.0,0.0,0.0,0.0,0.0,0.0,0.0,0.0,0.0,0.0,0.0,0.0,0.0,0.0,0.0,0.0,0.0,0.0,7.0513,7.248,7.5071,7.6823,7.7645,7.8001,7.7431,7.5709,7.418,7.2042,0.0,0.0,0.0,0.0,0.0,0.0,0.0,0.0,0.0,0.0,0.0,0.0,0.0,0.0,0.0,0.0,0.0,0.0,0.0,0.0,0.0,0.0,0.0,0.0,0.0,0.0,0.0,0.0,0.0,0.0,0.0,0.0,0.0,0.0,0.0,0.0,0.0,0.0,0.0,0.0,0.0,0.0,6.1162,6.2486,0.0,0.0,0.0,6.3381,6.3381,0.0,0.0,0.0,0.0,0.0,0.0,0.0,0.0,0.0,0.0,0.0,0.0,0.0,0.0,0.0,0.0,0.0,0.0,0.0,0.0,0.0,0.0,0.0,0.0,0.0,0.0,0.0,0.0,0.0,0.0,0.0,0.0,0.0,0.0,0.0,0.0,0.0,0.0,0.0,0.0,0.0,0.0,0.0,0.0,0.0,0.0,0.0,0.0,0.0,0.0,0.0,0.0,0.0,0.0,0.0,0.0,0.0,7.0047,7.3187,7.5166,7.5912,7.6852,7.661,7.4926,7.3396,7.14,0.0,0.0,0.0,0.0,0.0,0.0,0.0,0.0,0.0,0.0,0.0,0.0,0.0,0.0,0.0,0.0,0.0,0.0,0.0,0.0,0.0,0.0,0.0,0.0,0.0,0.0,0.0,0.0,0.0,0.0,0.0,0.0,0.0,0.0,0.0,0.0,0.0,0.0,0.0,0.0,0.0,6.1,6.1077,6.225,6.3129,0.0,0.0,6.3129,6.3096,6.3096,0.0,0.0,0.0,0.0,0.0,0.0,0.0,0.0,0.0,0.0,0.0,0.0,0.0,0.0,0.0,0.0,0.0,0.0,0.0,0.0,0.0,0.0,0.0,0.0,0.0,0.0,0.0,0.0,0.0,0.0,0.0,0.0,0.0,0.0,0.0,0.0,0.0,0.0,0.0,0.0,0.0,0.0,0.0,0.0,0.0,0.0,0.0,0.0,0.0,0.0,0.0,0.0,0.0,0.0,0.0,0.0,6.692,7.1043,7.3543,7.4356,7.5756,7.5712,7.4145,7.2612,7.0367,0.0,0.0,0.0,0.0,0.0,0.0,0.0,0.0,0.0,0.0,0.0,0.0,0.0,0.0,0.0,0.0,0.0,0.0,0.0,0.0,0.0,0.0,0.0,0.0,0.0,0.0,0.0,0.0,0.0,0.0,0.0,0.0,0.0,0.0,0.0,0.0,0.0,0.0,0.0,0.0,0.0,5.96,6.0196,6.1007,0.0,0.0,0.0,0.0,6.1488,6.1524,0.0,0.0,0.0,0.0,0.0,0.0,0.0,0.0,0.0,0.0,0.0,0.0,0.0,0.0,0.0,0.0,0.0,0.0,0.0,0.0,0.0,0.0,0.0,0.0,0.0,0.0,0.0,0.0,0.0,0.0,0.0,0.0,0.0,0.0,0.0,0.0,0.0,0.0,0.0,0.0,0.0,0.0,0.0,0.0,0.0,0.0,0.0,0.0,0.0,0.0,0.0,0.0,0.0,0.0,0.0,0.0,6.4431,6.8116,7.1093,7.3243,7.3697,7.3764,7.3252,7.1437,6.9299,0.0,0.0,0.0,0.0,0.0,0.0,0.0,0.0,0.0,0.0,0.0,0.0,0.0,0.0,0.0,0.0,0.0,0.0,0.0,0.0,0.0,0.0,0.0,0.0,0.0,0.0,0.0,0.0,0.0,0.0,0.0,0.0,0.0,0.0,0.0,0.0,0.0,0.0,0.0,0.0,5.8621,5.9643,6.0417,0.0,0.0,0.0,0.0,0.0,0.0,6.1056,6.1056,0.0,0.0,0.0,0.0,0.0,0.0,0.0,0.0,0.0,0.0,0.0,0.0,0.0,0.0,0.0,0.0,0.0,0.0,0.0,0.0,0.0,0.0,0.0,0.0,0.0,0.0,0.0,0.0,0.0,0.0,0.0,0.0,0.0,0.0,0.0,0.0,0.0,0.0,0.0,0.0,0.0,0.0,0.0,0.0,0.0,0.0,0.0,0.0,0.0,0.0,0.0,0.0,0.0,0.0,0.0,6.1834,6.5059,6.835,7.1711,7.1622,7.1793,7.2219,7.0297,6.8337,6.6484,0.0,0.0,0.0,0.0,0.0,0.0,0.0,0.0,0.0,0.0,0.0,0.0,0.0,0.0,0.0,0.0,0.0,0.0,0.0,0.0,0.0,0.0,0.0,0.0,0.0,0.0,0.0,0.0,0.0,0.0,0.0,0.0,0.0,0.0,0.0,0.0,0.0,0.0,0.0,5.8991,5.9776,0.0,0.0,0.0,0.0,0.0,0.0,0.0,0.0,6.0463,0.0,0.0,0.0,0.0,0.0,0.0,0.0,0.0,0.0,0.0,0.0,0.0,0.0,0.0,0.0,0.0,0.0,0.0,0.0,0.0,0.0,0.0,0.0,0.0,0.0,0.0,0.0,0.0,0.0,0.0,0.0,0.0,0.0,0.0,0.0,0.0,0.0,0.0,0.0,0.0,0.0,0.0,0.0,0.0,0.0,0.0,0.0,0.0,0.0,0.0,0.0,0.0,0.0,0.0,0.0,0.0,6.2686,6.602,6.7901,7.0296,7.1265,7.0688,6.9727,6.7838,6.4954,0.0,0.0,0.0,0.0,0.0,0.0,0.0,0.0,0.0,0.0,0.0,0.0,0.0,0.0,0.0,0.0,0.0,0.0,0.0,0.0,0.0,0.0,0.0,0.0,0.0,0.0,0.0,0.0,0.0,0.0,0.0,0.0,0.0,0.0,0.0,0.0,0.0,0.0,5.6738,5.7416,0.0,0.0,0.0,0.0,0.0,0.0,0.0,0.0,5.7942,0.0,0.0,0.0,0.0,0.0,0.0,0.0,0.0,0.0,0.0,0.0,0.0,0.0,0.0,0.0,0.0,0.0,0.0,0.0,0.0,0.0,0.0,0.0,0.0,0.0,0.0,0.0,0.0,0.0,0.0,0.0,0.0,0.0,0.0,0.0,0.0,0.0,0.0,0.0,0.0,0.0,0.0,0.0,0.0,0.0,0.0,0.0,0.0,0.0,0.0,0.0,0.0,0.0,0.0,0.0,0.0,0.0,0.0,6.292,6.6334,6.8246,6.9343,6.9682,6.8162,6.6235,0.0,0.0,0.0,0.0,0.0,0.0,0.0,0.0,0.0,0.0,0.0,0.0,0.0,0.0,0.0,0.0,0.0,0.0,0.0,0.0,0.0,0.0,0.0,0.0,0.0,0.0,0.0,0.0,0.0,0.0,0.0,0.0,0.0,0.0,0.0,0.0,0.0,0.0,0.0,0.0,0.0,0.0,0.0,0.0,0.0,0.0,0.0,0.0,0.0,0.0,0.0,0.0,0.0,0.0,0.0,0.0,0.0,0.0,0.0,0.0,0.0,0.0,0.0,0.0,0.0,0.0,0.0,0.0,0.0,0.0,0.0,0.0,0.0,0.0,0.0,0.0,0.0,0.0,0.0,0.0,0.0,0.0,0.0,0.0,0.0,0.0,0.0,0.0,0.0,0.0,0.0,0.0,0.0,0.0,0.0,0.0,0.0,0.0,0.0,0.0,0.0,0.0,0.0,0.0,0.0,0.0,0.0,0.0,6.0015,6.4796,6.6011,6.7161,6.8439,6.6224,6.42,0.0,0.0,0.0,0.0,0.0,0.0,0.0,0.0,0.0,0.0,0.0,0.0,0.0,0.0,0.0,0.0,0.0,0.0,0.0,0.0,0.0,0.0,0.0,0.0,0.0,0.0,0.0,0.0,0.0,0.0,0.0,0.0,0.0,0.0,0.0,0.0,0.0,0.0,0.0,0.0,0.0,0.0,0.0,0.0,0.0,0.0,0.0,0.0,5.5764,0.0,0.0,0.0,0.0,0.0,0.0,0.0,0.0,0.0,0.0,0.0,0.0,0.0,0.0,0.0,0.0,0.0,0.0,0.0,0.0,0.0,0.0,0.0,0.0,0.0,0.0,0.0,0.0,0.0,0.0,0.0,0.0,0.0,0.0,0.0,0.0,0.0,0.0,0.0,0.0,0.0,0.0,0.0,0.0,0.0,0.0,0.0,0.0,0.0,0.0,0.0,0.0,0.0,0.0,0.0,0.0,0.0,0.0,0.0,5.8053,6.1828,6.3909,6.5389,6.6125,6.397,6.1728,0.0,0.0,0.0,0.0,0.0,0.0,0.0,0.0,0.0,0.0,0.0,0.0,0.0,0.0,0.0,0.0,0.0,0.0,0.0,0.0,0.0,0.0,0.0,0.0,0.0,0.0,0.0,0.0,0.0,0.0,0.0,0.0,0.0,0.0,0.0,0.0,0.0,0.0,0.0,0.0,0.0,0.0,0.0,0.0,0.0,0.0,0.0,0.0,0.0,0.0,0.0,0.0,0.0,0.0,0.0,0.0,0.0,0.0,0.0,0.0,0.0,0.0,0.0,0.0,0.0,0.0,0.0,0.0,0.0,0.0,0.0,0.0,0.0,0.0,0.0,0.0,0.0,0.0,0.0,0.0,0.0,0.0,0.0,0.0,0.0,0.0,0.0,0.0,0.0,0.0,0.0,0.0,0.0,0.0,0.0,0.0,0.0,0.0,0.0,0.0,0.0,0.0,0.0,0.0,0.0,0.0,0.0,0.0,5.5732,5.8896,6.1521,6.2539,6.2067,6.1027,6.0048,0.0,0.0,0.0,0.0,0.0,0.0,0.0,0.0,0.0,0.0,0.0,0.0,0.0,0.0,0.0,0.0,0.0,0.0,0.0,0.0,0.0,0.0,0.0,0.0,0.0,0.0,0.0,0.0,0.0,0.0,0.0,0.0,0.0,0.0,0.0,0.0,0.0,0.0,0.0,0.0,0.0,0.0,0.0,0.0,0.0,0.0,0.0,0.0,0.0,0.0,0.0,0.0,0.0,0.0,0.0,0.0,0.0,0.0,0.0,0.0,0.0,0.0,0.0,0.0,0.0,0.0,0.0,0.0,0.0,0.0,0.0,0.0,0.0,0.0,0.0,0.0,0.0,0.0,0.0,0.0,0.0,0.0,0.0,0.0,0.0,0.0,0.0,0.0,0.0,0.0,0.0,0.0,0.0,0.0,0.0,0.0,0.0,0.0,0.0,0.0,0.0,0.0,0.0,0.0,0.0,0.0,0.0,0.0,0.0,5.6508,5.8472,5.9043,5.8157,5.8228,5.8082,0.0,0.0,0.0,0.0,0.0,0.0,0.0,0.0,0.0,0.0,0.0,0.0,0.0,0.0,0.0,0.0,0.0,0.0,0.0,0.0,0.0,0.0,0.0,0.0,0.0,0.0,0.0,0.0,0.0,0.0,0.0,0.0,0.0,0.0,0.0,0.0,0.0,0.0,0.0,0.0,0.0,0.0,0.0,0.0,0.0,0.0,0.0,0.0,0.0,0.0,0.0,0.0,0.0,0.0,0.0,0.0,0.0,0.0,0.0,0.0,0.0,0.0,0.0,0.0,0.0,0.0,0.0,0.0,0.0,0.0,0.0,0.0,0.0,0.0,0.0,0.0,0.0,0.0,0.0,0.0,0.0,0.0,0.0,0.0,0.0,0.0,0.0,0.0,0.0,0.0,0.0,0.0,0.0,0.0,0.0,0.0,0.0,0.0,0.0,0.0,0.0,0.0,0.0,0.0,0.0,0.0,0.0,0.0,0.0,5.5075,5.4655,5.4661,5.5066,5.5805,5.5456,0.0,0.0,0.0,0.0,0.0,0.0,0.0,0.0,0.0,0.0,0.0,0.0,0.0,0.0,0.0,0.0,0.0,0.0,0.0,0.0,0.0,0.0,0.0,0.0,0.0,0.0,0.0,0.0,0.0,0.0,0.0,0.0,0.0,0.0,0.0,0.0,0.0,0.0,0.0,0.0,0.0,0.0,0.0,0.0,0.0,0.0,0.0,0.0,0.0,0.0,0.0,0.0,0.0,0.0,0.0,0.0,0.0,0.0,0.0,0.0,0.0,0.0,0.0,0.0,0.0,0.0,0.0,0.0,0.0,0.0,0.0,0.0,0.0,0.0,0.0,0.0,0.0,0.0,0.0,0.0,0.0,0.0,0.0,0.0,0.0,0.0,0.0,0.0,0.0,0.0,0.0,0.0,0.0,0.0,0.0,0.0,0.0,0.0,0.0,0.0,0.0,0.0,0.0,0.0,0.0,0.0,0.0,0.0,0.0,5.1633,5.1547,5.2358,5.4169,5.399,5.379,5.369,0.0,0.0,0.0,0.0,0.0,0.0,0.0,0.0,0.0,0.0,0.0,0.0,0.0,0.0,0.0,0.0,0.0,0.0,0.0,0.0,0.0,0.0,0.0,0.0,0.0,0.0,0.0,0.0,0.0,0.0,0.0,0.0,0.0,0.0,0.0,0.0,0.0,0.0,0.0,0.0,0.0,0.0,0.0,0.0,0.0,0.0,0.0,0.0,0.0,0.0,0.0,0.0,0.0,0.0,0.0,0.0,0.0,0.0,0.0,0.0,0.0,0.0,0.0,0.0,0.0,0.0,0.0,0.0,0.0,0.0,0.0,0.0,0.0,0.0,0.0,0.0,0.0,0.0,0.0,0.0,0.0,0.0,0.0,0.0,0.0,0.0,0.0,0.0,0.0,0.0,0.0,0.0,0.0,0.0,0.0,0.0,0.0,0.0,0.0,0.0,0.0,0.0,0.0,0.0,0.0,0.0,0.0,0.0,4.8811,4.9331,5.0647,5.2768,5.258,5.2559,0.0,0.0,0.0,0.0,0.0,0.0,0.0,0.0,0.0,0.0,0.0,0.0,0.0,0.0,0.0,0.0,0.0,0.0,0.0,0.0,0.0,0.0,0.0,0.0,0.0,0.0,0.0,0.0,0.0,0.0,0.0,0.0,0.0,0.0,0.0,0.0,0.0,0.0,0.0,0.0,0.0,0.0,0.0,0.0,0.0,0.0,0.0,0.0,0.0,0.0,0.0,0.0,0.0,0.0,0.0,0.0,0.0,0.0,0.0,0.0,0.0,0.0,0.0,0.0,0.0,0.0,0.0,0.0,0.0,0.0,0.0,0.0,0.0,0.0,0.0,0.0,0.0,0.0,0.0,0.0,0.0,0.0,0.0,0.0,0.0,0.0,0.0,0.0,0.0,0.0,0.0,0.0,0.0,0.0,0.0,0.0,0.0,0.0,0.0,0.0,0.0,0.0,0.0,0.0,0.0,0.0,0.0,0.0,4.5008,4.6839,4.8167,4.9504,5.0761,5.1426,5.1684,0.0,0.0,0.0,0.0,0.0,0.0,0.0,0.0,0.0,0.0,0.0,0.0,0.0,0.0,0.0,0.0,0.0,0.0,0.0,0.0,0.0,0.0,0.0,0.0,0.0,0.0,0.0,0.0,0.0,0.0,0.0,0.0,0.0,0.0,0.0,0.0,0.0,0.0,0.0,0.0,0.0,0.0,0.0,0.0,0.0,0.0,0.0,0.0,0.0,0.0,0.0,0.0,0.0,0.0,0.0,0.0,0.0,0.0,0.0,0.0,0.0,0.0,0.0,0.0,0.0,0.0,0.0,0.0,0.0,0.0,0.0,0.0,0.0,0.0,0.0,0.0,0.0,0.0,0.0,0.0,0.0,0.0,0.0,0.0,0.0,0.0,0.0,0.0,0.0,0.0,0.0,0.0,0.0,0.0,0.0,0.0,0.0,0.0,0.0,0.0,0.0,0.0,0.0,0.0,0.0,0.0,0.0,0.0,0.0,4.687,0.0,4.963,0.0,5.1609,5.1816,0.0,0.0,0.0,0.0,0.0,0.0,0.0,0.0,0.0,0.0,0.0,0.0,0.0,0.0,0.0,0.0,0.0,0.0,0.0,0.0,0.0,0.0,0.0,0.0,0.0,0.0,0.0,0.0,0.0,0.0,0.0,0.0,0.0,0.0,0.0,0.0,0.0,0.0,0.0,0.0,0.0,0.0,0.0,0.0,0.0,0.0,0.0,0.0,0.0,0.0,0.0,0.0,0.0,0.0,0.0,0.0,0.0,0.0,0.0,0.0,0.0,0.0,0.0,0.0,0.0,0.0,0.0,0.0,0.0,0.0,0.0,0.0,0.0,0.0,0.0,0.0,0.0,0.0,0.0,0.0,0.0,0.0,0.0,0.0,0.0,0.0,0.0,0.0,0.0,0.0,0.0,0.0,0.0,0.0,0.0,0.0,0.0,0.0,0.0,0.0,0.0,0.0,0.0,0.0,0.0,0.0,0.0,0.0,0.0,4.6937,4.7898,4.9373,5.1252,5.1581,5.1908,0.0,0.0,0.0,0.0,0.0,0.0,0.0,0.0,0.0,0.0,0.0,0.0,0.0,0.0,0.0,0.0,0.0,0.0,0.0,0.0,0.0,0.0,0.0,0.0,0.0,0.0,0.0,0.0,0.0,0.0,0.0,0.0,0.0,0.0,0.0,0.0,0.0,0.0,0.0,0.0,0.0,0.0,0.0,0.0,0.0,0.0,0.0,0.0,0.0,0.0,0.0,0.0,0.0,0.0,0.0,0.0,0.0,0.0,0.0,0.0,0.0,0.0,0.0,0.0,0.0,0.0,0.0,0.0,0.0,0.0,0.0,0.0,0.0,0.0,0.0,0.0,0.0,0.0,0.0,0.0,0.0,0.0,0.0,0.0,0.0,0.0,0.0,0.0,0.0,0.0,0.0,0.0,0.0,0.0,0.0,0.0,0.0,0.0,0.0,0.0,0.0,0.0,0.0,0.0,0.0,0.0,0.0,0.0,0.0,0.0,4.7688,4.8916,5.0761,5.1413,5.1992,0.0,0.0,0.0,0.0,0.0,0.0,0.0,0.0,0.0,0.0,0.0,0.0,0.0,0.0,0.0,0.0,0.0,0.0,0.0,0.0,0.0,0.0,0.0,0.0,0.0,0.0,0.0,0.0,0.0,0.0,0.0,0.0,0.0,0.0,0.0,0.0,0.0,0.0,0.0,0.0,0.0,0.0,0.0,0.0,0.0,0.0,0.0,0.0,0.0,0.0,0.0,0.0,0.0,0.0,0.0,0.0,0.0,0.0,0.0,0.0,0.0,0.0,0.0,0.0,0.0,0.0,0.0,0.0,0.0,0.0,0.0,0.0,0.0,0.0,0.0,0.0,0.0,0.0,0.0,0.0,0.0,0.0,0.0,0.0,0.0,0.0,0.0,0.0,0.0,0.0,0.0,0.0,0.0,0.0,0.0,0.0,0.0,0.0,0.0,0.0,0.0,0.0,0.0,0.0,0.0,0.0,0.0,0.0,0.0,0.0,4.9809,0.0,5.1383,5.2445,5.2714,5.2198,0.0,0.0,0.0,0.0,0.0,0.0,0.0,0.0,0.0,0.0,0.0,0.0,0.0,0.0,0.0,0.0,0.0,0.0,0.0,0.0,0.0,0.0,0.0,0.0,0.0,0.0,0.0,0.0,0.0,0.0,0.0,0.0,0.0,0.0,0.0,0.0,0.0,0.0,0.0,0.0,0.0,0.0,0.0,0.0,0.0,0.0,0.0,0.0,0.0,0.0,0.0,0.0,0.0,0.0,0.0,0.0,0.0,0.0,0.0,0.0,0.0,0.0,0.0,0.0,0.0,0.0,0.0,0.0,0.0,0.0,0.0,0.0,0.0,0.0,0.0,0.0,0.0,0.0,0.0,0.0,0.0,0.0,0.0,0.0,0.0,0.0,0.0,0.0,0.0,0.0,0.0,0.0,0.0,0.0,0.0,0.0,0.0,0.0,0.0,0.0,0.0,0.0,0.0,0.0,0.0,0.0,0.0,0.0,0.0,0.0,0.0,5.1708,5.2823,5.3297,0.0,0.0,0.0,0.0,0.0,0.0,0.0,0.0,0.0,0.0,0.0,0.0,0.0,0.0,0.0,0.0,0.0,0.0,0.0,0.0,0.0,0.0,0.0,0.0,0.0,0.0,0.0,0.0,0.0,0.0,0.0,0.0,0.0,0.0,0.0,0.0,0.0,0.0,0.0,0.0,0.0,0.0,0.0,0.0,0.0,0.0,0.0,0.0,0.0,0.0,0.0,0.0,0.0,0.0,0.0,0.0,0.0,0.0,0.0,0.0,0.0,0.0,0.0,0.0,0.0,0.0,0.0,0.0,0.0,0.0,0.0,0.0,0.0,0.0,0.0,0.0,0.0,0.0,0.0,0.0,0.0,0.0,0.0,0.0,0.0,0.0,0.0,0.0,0.0,0.0,0.0,0.0,0.0,0.0,0.0,0.0,0.0,0.0,0.0,0.0,0.0,0.0,0.0,0.0,0.0,0.0,0.0,0.0,0.0,0.0,0.0,5.1767,5.1767,5.2794,0.0,5.4145,0.0,0.0,0.0,0.0,0.0,0.0,0.0,0.0,0.0,0.0,0.0,0.0,0.0,0.0,0.0,0.0,0.0,0.0,0.0,0.0,0.0,0.0,0.0,0.0,0.0,0.0,0.0,0.0,0.0,0.0,0.0,0.0,0.0,0.0,0.0,0.0,0.0,0.0,0.0,0.0,0.0,0.0,0.0,0.0,0.0,0.0,0.0,0.0,0.0,0.0,0.0,0.0,0.0,0.0,0.0,0.0,0.0,0.0,0.0,0.0,0.0,0.0,0.0,0.0,0.0,0.0,0.0,0.0,0.0,0.0,0.0,0.0,0.0,0.0,0.0,0.0,0.0,0.0,0.0,0.0,0.0,0.0,0.0,0.0,0.0,0.0,0.0,0.0,0.0,0.0,0.0,0.0,0.0,0.0,0.0,0.0,0.0,0.0,0.0,0.0,0.0,0.0,0.0,0.0,0.0,0.0,0.0,0.0,0.0,0.0,0.0,0.0,5.2714,5.3346,5.4306,0.0,0.0,0.0,0.0,0.0,0.0,0.0,0.0,0.0,0.0,0.0,0.0,0.0,0.0,0.0,0.0,0.0,0.0,0.0,0.0,0.0,0.0,0.0,0.0,0.0,0.0,0.0,0.0,0.0,0.0,0.0,0.0,0.0,0.0,0.0,0.0,0.0,0.0,0.0,0.0,0.0,0.0,0.0,0.0,0.0,0.0,0.0,0.0,0.0,0.0,0.0,0.0,0.0,0.0,0.0,0.0,0.0,0.0,0.0,0.0,0.0,0.0,0.0,0.0,0.0,0.0,0.0,0.0,0.0,0.0,0.0,0.0,0.0,0.0,0.0,0.0,0.0,0.0,0.0,0.0,0.0,0.0,0.0,0.0,0.0,0.0,0.0,0.0,0.0,0.0,0.0,0.0,0.0,0.0,0.0,0.0,0.0,0.0,0.0,0.0,0.0,0.0,0.0,0.0,0.0,0.0,0.0,0.0,0.0,0.0,5.2242,5.2242,5.2508,5.3045,5.3833,0.0,0.0,0.0,0.0,0.0,0.0,0.0,0.0,0.0,0.0,0.0,0.0,0.0,0.0,0.0,0.0,0.0,0.0,0.0,0.0,0.0,0.0,0.0,0.0,0.0,0.0,0.0,0.0,0.0,0.0,0.0,0.0,0.0,0.0,0.0,0.0,0.0,0.0,0.0,0.0,0.0,0.0,0.0,0.0,0.0,0.0,0.0,0.0,0.0,0.0,0.0,0.0,0.0,0.0,0.0,0.0,0.0,0.0,0.0,0.0,0.0,0.0,0.0,0.0,0.0,0.0,0.0,0.0,0.0,0.0,0.0,0.0,0.0,0.0,0.0,0.0,0.0,0.0,0.0,0.0,0.0,0.0,0.0,0.0,0.0,0.0,0.0,0.0,0.0,0.0,0.0,0.0,0.0,0.0,0.0,0.0,0.0,0.0,0.0,0.0,0.0,0.0,0.0,0.0,0.0,0.0,0.0,0.0,0.0,0.0,0.0,0.0,0.0,0.0,5.2991,0.0,0.0,0.0,0.0,0.0,0.0,0.0,0.0,0.0,0.0,0.0,0.0,0.0,0.0,0.0,0.0,0.0,0.0,0.0,0.0,0.0,0.0,0.0,0.0,0.0,0.0,0.0,0.0,0.0,0.0,0.0,0.0,0.0,0.0,0.0,0.0,0.0,0.0,0.0,0.0,0.0,0.0,0.0,0.0,0.0,0.0,0.0,0.0,0.0,0.0,0.0,0.0,0.0,0.0,0.0,0.0,0.0,0.0,0.0,0.0,0.0,0.0,0.0,0.0,0.0,0.0,0.0,0.0,0.0,0.0,0.0,0.0,0.0,0.0,0.0,0.0,0.0,0.0,0.0,0.0,0.0,0.0,0.0,0.0,0.0,0.0,0.0,0.0,0.0,0.0,0.0,0.0,0.0,0.0,0.0,0.0,0.0,0.0,0.0,0.0,0.0,0.0,0.0,0.0,0.0,0.0,0.0,0.0,0.0,0.0,0.0,0.0,0.0,0.0,0.0,0.0,0.0,0.0,0.0,0.0,0.0,0.0,0.0,0.0,0.0,0.0,0.0,0.0,0.0,0.0,0.0,0.0,0.0,0.0,0.0,0.0,0.0,0.0,0.0,0.0,0.0,0.0,0.0,0.0,0.0,0.0,0.0,0.0,0.0,0.0,0.0,0.0,0.0,0.0,0.0,0.0,0.0,0.0,0.0,0.0,0.0,0.0,0.0,0.0,0.0,0.0,0.0,0.0,0.0,0.0,0.0,0.0,0.0,0.0,0.0,0.0,0.0,0.0,0.0,0.0,0.0,0.0,0.0,0.0,0.0,0.0,0.0,0.0,0.0,0.0,0.0,0.0,0.0,0.0,0.0,0.0,0.0,0.0,0.0,0.0,0.0,0.0,0.0,0.0,0.0,0.0,0.0,0.0,0.0,0.0,0.0,0.0,0.0,0.0,0.0,0.0,0.0,0.0,0.0,0.0,0.0,0.0,0.0,0.0,0.0,0.0,0.0,0.0,0.0,0.0,0.0,0.0,0.0,0.0,0.0,0.0,0.0,0.0,0.0,0.0,0.0,0.0,0.0,0.0,0.0,0.0,0.0,0.0,0.0,0.0,0.0,0.0,0.0,0.0,0.0,0.0,0.0,0.0,0.0,0.0,0.0,0.0,0.0,0.0,0.0,0.0,0.0,0.0,0.0,0.0,0.0,0.0,0.0,0.0,0.0,0.0,0.0,0.0,0.0,0.0,0.0,0.0,0.0,0.0,0.0,0.0,0.0,0.0,0.0,0.0,0.0,0.0,0.0,0.0,0.0,0.0,0.0,0.0,0.0,0.0,0.0,0.0,0.0,0.0,0.0,0.0,0.0,0.0,0.0,0.0,0.0,0.0,0.0,0.0,0.0,0.0,0.0,0.0,0.0,0.0,0.0,0.0,0.0,0.0,0.0,0.0,0.0,0.0,0.0,0.0,0.0,0.0,0.0,0.0,0.0,0.0,0.0,0.0,0.0,0.0,0.0,0.0,0.0,0.0,0.0,0.0,0.0,0.0,0.0,0.0,0.0,0.0,0.0,0.0,0.0,0.0,0.0,0.0,0.0,0.0,0.0,0.0,0.0,0.0,0.0,0.0,0.0,0.0,0.0,0.0,0.0,0.0,0.0,0.0,0.0,0.0,0.0,0.0,0.0,0.0,0.0,0.0,0.0,0.0,0.0,0.0,0.0,0.0,0.0,0.0,0.0,0.0,0.0,0.0,0.0,0.0,0.0,0.0,0.0,0.0,0.0,0.0,0.0,0.0,0.0,0.0,0.0,0.0,0.0,0.0,0.0,0.0,0.0,0.0,0.0,0.0,0.0,0.0,0.0,0.0,0.0,0.0,0.0,0.0,0.0,0.0,0.0,0.0,0.0,0.0,0.0,0.0,0.0,0.0,0.0,0.0,0.0,0.0,0.0,0.0,0.0,0.0,0.0,0.0,0.0,0.0,0.0,0.0,0.0,0.0,0.0,0.0,0.0,0.0,0.0,0.0,0.0,0.0,0.0,0.0,0.0,0.0,0.0,0.0,0.0,0.0,0.0,0.0,0.0,0.0,0.0,0.0,0.0,0.0,0.0,0.0,0.0,0.0,0.0,0.0,0.0,0.0,0.0,0.0,0.0,0.0,0.0,0.0,0.0,0.0,0.0,0.0,0.0,0.0,0.0,0.0,0.0,0.0,0.0,0.0,0.0,0.0,0.0,0.0,0.0,0.0,0.0,0.0,0.0,0.0,0.0,0.0,0.0,0.0,0.0,0.0,0.0,0.0,0.0,0.0,0.0,0.0,0.0,0.0,0.0,0.0,0.0,0.0,0.0,0.0,0.0,0.0,0.0,0.0,0.0,0.0,0.0,0.0,0.0,0.0,0.0,0.0,0.0,0.0,0.0,0.0,0.0,0.0,0.0,0.0,0.0,0.0,0.0,0.0,0.0,0.0,0.0,0.0,0.0,0.0,0.0,0.0,0.0,0.0,0.0,0.0,0.0,0.0,0.0,0.0,0.0,0.0,0.0,0.0,0.0,0.0,0.0,0.0,0.0,0.0,0.0,0.0,0.0,0.0,0.0,0.0,0.0,0.0,0.0,0.0,0.0,0.0,0.0,0.0,0.0,0.0,0.0,0.0,0.0,0.0,0.0,0.0,0.0,0.0,0.0,0.0,0.0,0.0,0.0,0.0,0.0,0.0,0.0,0.0,0.0,0.0,0.0,0.0,0.0,0.0,0.0,0.0,0.0,0.0,0.0,0.0,0.0,0.0,0.0,0.0,0.0,0.0,0.0,0.0,0.0,0.0,0.0,0.0,0.0,0.0,0.0,0.0,0.0,0.0,0.0,0.0,0.0,0.0,0.0,0.0,0.0,0.0,0.0,0.0,0.0,0.0,0.0,0.0,0.0,0.0,0.0,0.0,0.0,0.0,0.0,0.0,0.0,0.0,0.0,0.0,0.0,0.0,0.0,0.0,0.0,0.0,0.0,0.0,0.0,0.0,0.0,0.0,0.0,0.0,0.0,0.0,0.0,0.0,0.0,0.0,0.0,0.0,0.0,0.0,0.0,0.0,0.0,0.0,0.0,0.0,0.0,0.0,0.0,0.0,0.0,0.0,0.0,0.0,0.0,0.0,0.0,0.0,0.0,0.0,0.0,0.0,0.0,0.0,0.0,0.0,0.0,0.0,0.0,0.0,0.0,0.0,0.0,0.0,0.0,0.0,0.0,0.0,0.0,0.0,0.0,0.0,0.0,0.0,0.0,0.0,0.0,0.0,0.0,0.0,0.0,0.0,0.0,0.0,0.0,0.0,0.0,0.0,0.0,0.0,0.0,0.0,0.0,0.0,0.0,0.0,0.0,0.0,0.0,0.0,0.0,0.0,0.0,0.0,0.0,0.0,0.0,0.0,0.0,0.0,0.0,0.0,0.0,0.0,0.0,0.0,0.0,0.0,0.0,0.0,0.0,0.0,0.0,0.0,0.0,0.0,0.0,0.0,0.0,0.0,0.0,0.0,0.0,0.0,0.0,0.0,0.0,0.0,0.0,0.0,0.0,0.0,0.0,0.0,0.0,0.0,0.0,0.0,0.0,0.0,0.0,0.0,0.0,0.0,0.0,0.0,0.0,0.0,0.0,0.0,0.0,0.0,0.0,0.0,0.0,0.0,0.0,0.0,0.0,0.0,0.0,0.0,0.0,0.0,0.0,0.0,0.0,0.0,0.0,0.0,0.0,0.0,0.0,0.0,0.0,0.0,0.0,0.0,0.0,0.0,0.0,0.0,0.0,0.0,0.0,0.0,0.0,0.0,0.0,0.0,0.0,0.0,0.0,0.0,0.0,0.0,0.0,0.0,0.0,0.0,0.0,0.0,0.0,0.0,0.0,0.0,0.0,0.0,0.0,0.0,0.0,0.0,0.0,0.0,0.0,0.0,0.0,0.0,0.0,0.0,0.0,0.0,0.0,0.0,0.0,0.0,0.0,0.0,0.0,0.0,0.0,0.0,0.0,0.0,0.0,0.0,0.0,0.0,0.0,0.0,0.0,0.0,0.0,0.0,0.0,0.0,0.0,0.0,0.0,0.0,0.0,0.0,0.0,0.0,0.0,0.0,0.0,0.0,0.0,0.0,0.0,0.0,0.0,0.0,0.0,0.0,0.0,0.0,0.0,0.0,0.0,0.0,0.0,0.0,0.0,0.0,0.0,0.0,0.0,0.0,0.0,0.0,0.0,0.0,0.0,0.0,0.0,0.0,0.0,0.0,0.0,0.0,0.0,0.0,0.0,0.0,0.0,0.0,0.0,0.0,0.0,0.0,0.0,0.0,0.0,0.0,0.0,0.0,0.0,0.0,0.0,0.0,0.0,0.0]}]]]